     2              OBSERVATION DATA    GPS                 RINEX VERSION / TYPE
srx-v1.5-(11/13/93) SEISMO 11-MAR-1994                      PGM / RUN BY / DATE
                                                            COMMENT
sig: 9 8 7 6 5 4 1 0                                        COMMENT
sig: 9 8 7 6 5 4 1 0                                        COMMENT
sig: 9 8 7 6 5 4 1 0                                        COMMENT
Original Marker Name: COTR                                  COMMENT
Campaign Name: jpl 1993-1997                                COMMENT
4-Character Station Name: COTR                              COMMENT
6-Character Antenna Code: DMRCHT                            COMMENT
Vertical Measurement Point: BPA                             COMMENT
Vertical Offset to Rinex Ref. Point: 0.0000                 COMMENT
Radial Measurement Point: RRP                               COMMENT
Radial Offset to Rinex Ref. Point: 0.0000                   COMMENT
Antenna Height from Field Measurement: 0.0814 m             COMMENT
Additional Antenna Identification Info.:                    COMMENT
Turborogue and Ashtech Choke Ring                           COMMENT
Original XYZ: -2574986.4366 -4616103.2785 3557457.6440      COMMENT
New XYZ position is based on association with SCEC monument COMMENT
E1C7X6E4+0011. Position of that monument is believed to be  COMMENT
valid to within 1 m horizontally; vertical accuracy         COMMENT
should be no worse than 3-times this value.                 COMMENT
                                                            COMMENT
Revised Rinex header created by UCSD GPS archive for        COMMENT
GSAC on 06-Apr-1999 (1999:096) 03:07:17 GMT                 COMMENT
For assistance contact dagnew@ucsd.edu or hjohnson@ucsd.edu COMMENT
                                                            COMMENT
COTAR                                                       MARKER NAME
COTR                                                        MARKER NUMBER
GWF JET PROPULSION LABORATORY                               OBSERVER / AGENCY
198 TURBOROGUE SNR-8000 93.06.08                            REC # / TYPE / VERS
234 DORNE-MARGOL. TYPE T                                    ANT # / TYPE
 -2575006.0000 -4616129.0000  3557472.0000                  APPROX POSITION XYZ
        0.0814        0.0000        0.0000                  ANTENNA: DELTA H/E/N
     1     1     0                                          WAVELENGTH FACT L1/2
     5    L1    L2    P1    P2    C1                        # / TYPES OF OBSERV
    30                                                      INTERVAL
  1994     2    20     0     0    0.000000                  TIME OF FIRST OBS
  1994     2    20    23    59   30.000000                  TIME OF LAST OBS
    26                                                      # OF SATELLITES
          01   803   803     0   803   803                  PRN / # OF OBS
          02   950   950     0   950   950                  PRN / # OF OBS
          03   878   878   878   878     0                  PRN / # OF OBS
          04   368   368     0   368   368                  PRN / # OF OBS
          05   796   796     0   796   796                  PRN / # OF OBS
          07   817   817     0   817   817                  PRN / # OF OBS
          09   956   956     0   956   956                  PRN / # OF OBS
          12   751   751   751   751     0                  PRN / # OF OBS
          13   718   718   718   718     0                  PRN / # OF OBS
          14   783   783     0   783   783                  PRN / # OF OBS
          15   767   767     0   767   767                  PRN / # OF OBS
          16   951   951     0   951   951                  PRN / # OF OBS
          17   722   722     0   722   722                  PRN / # OF OBS
          18   868   868     0   868   868                  PRN / # OF OBS
          19   949   949     0   949   949                  PRN / # OF OBS
          20   801   801     0   801   801                  PRN / # OF OBS
          21   853   853     0   853   853                  PRN / # OF OBS
          22  1101  1101     0  1101  1101                  PRN / # OF OBS
          23   880   880     0   880   880                  PRN / # OF OBS
          24   738   738     0   738   738                  PRN / # OF OBS
          25   822   822     0   822   822                  PRN / # OF OBS
          26   786   786     0   786   786                  PRN / # OF OBS
          27   917   917     0   917   917                  PRN / # OF OBS
          28   932   932     0   932   932                  PRN / # OF OBS
          29   921   921     0   921   921                  PRN / # OF OBS
                                                            END OF HEADER
 94 02 20 00 00 00.0000000  0  8 02 07 16 18 19 26 27 31
 -12220551.95149  -9522491.66548         0.00041  20906250.38648  20906249.04949
 -21156293.66149 -16485381.77148         0.00041  21299674.38648  21299672.96949
     97942.06747     76324.00144         0.00041  25113417.06044  25113411.32447
   1879924.40048   1464865.40244         0.00041  25607705.49744  25607706.34048
 -16506676.13048 -12862323.19846         0.00041  22145322.01446  22145320.08248
 -12351688.47348  -9624678.48146         0.00041  23164200.28946  23164198.04148
 -26974270.09649 -21018887.78348         0.00041  20420381.67248  20420380.96649
   -430941.12248   -335776.02845         0.00041  25153919.73645  25153918.97348
 94 02 20 00 00 30.0000000  0  8 02 07 16 18 19 26 27 31
 -12227839.78749  -9528170.47548         0.00041  20904863.43548  20904862.14049
 -21225510.00649 -16539316.53648         0.00041  21286502.74948  21286501.33749
    161304.22247    125697.03944         0.00041  25125472.76844  25125468.71147
   1990651.05248   1551145.61844         0.00041  25628785.79144  25628777.30948
 -16441685.78648 -12811681.39746         0.00041  22157689.00046  22157687.44148
 -12416102.76748  -9674871.36346         0.00041  23151942.18746  23151940.00848
 -26946276.48649 -20997074.57948         0.00041  20425708.67148  20425707.95249
   -323399.28048   -251977.14144         0.00041  25174383.98244  25174383.34748
 94 02 20 00 01 00.0000000  0  8 02 07 16 18 19 26 27 31
 -12234923.50549  -9533690.23148         0.00041  20903515.52748  20903514.14449
 -21294321.39049 -16592935.74848         0.00041  21273408.45548  21273407.01449
    224778.42647    175157.33644         0.00041  25137551.05644  25137547.62547
   2101280.04548   1637349.71444         0.00041  25649840.46244  25649829.92848
 -16376418.30848 -12760823.63546         0.00041  22170109.05346  22170107.45748
 -12480096.18948  -9724736.30646         0.00041  23139764.77546  23139763.03448
 -26917880.13849 -20974947.55148         0.00041  20431112.39348  20431111.62849
   -215776.79348   -168115.43944         0.00041  25194866.20544  25194863.62048
 94 02 20 00 01 30.0000000  0  8 02 07 16 18 19 26 27 31
 -12241770.51749  -9539025.54648         0.00041  20902212.53248  20902211.14449
 -21362686.31649 -16646207.07148         0.00041  21260399.06848  21260397.55449
    288388.67047    224723.75844         0.00041  25149662.63644  25149652.19647
   2211799.78748   1723468.63844         0.00041  25670863.63544  25670861.56648
 -16310868.30148 -12709745.73046         0.00041  22182583.08646  22182581.15048
 -12543638.75748  -9774249.92646         0.00041  23127672.48046  23127671.19248
 -26889075.25249 -20952502.18248         0.00041  20436593.64348  20436592.99349
   -108060.15948    -84180.35844         0.00041  25215358.99444  25215361.05748
 94 02 20 00 02 00.0000000  0  8 02 07 16 18 19 26 27 31
 -12248383.00449  -9544178.11448         0.00041  20900954.21048  20900952.80149
 -21430615.42649 -16699138.79848         0.00041  21247472.56948  21247470.97049
    352119.35047    274383.95544         0.00041  25161782.86444  25161779.85847
   2322167.29047   1809468.99744         0.00041  25691860.17744  25691864.07447
 -16245055.52948 -12658463.07246         0.00041  22195107.02546  22195104.87348
 -12606739.18848  -9823419.01946         0.00041  23115664.83846  23115663.21748
 -26859880.77149 -20929753.23148         0.00041  20442149.26948  20442148.51849
      -275.23148      -192.04844         0.00041  25235875.17944  25235872.05648
 94 02 20 00 02 30.0000000  0  8 02 07 16 18 19 26 27 31
 -12254755.11649  -9549143.38148         0.00041  20899741.65548  20899740.24449
 -21498109.24749 -16751731.33848         0.00041  21234628.77448  21234627.28749
    415957.60147    324128.02644         0.00041  25173937.02844  25173927.94347
   2432392.24847   1895358.25844         0.00041  25712840.20344  25712839.72947
 -16178970.45748 -12606968.23246         0.00041  22207682.37646  22207680.45148
 -12669401.27648  -9872246.56846         0.00041  23103740.40846  23103739.28848
 -26830287.99449 -20906693.91948         0.00041  20447780.45948  20447779.81749
    107593.35048     83861.47844         0.00041  25256403.83844  25256398.64248
 94 02 20 00 03 00.0000000  0  8 02 07 16 18 19 26 27 31
 -12260887.32949  -9553921.71348         0.00041  20898574.72948  20898573.31149
 -21565163.71949 -16803981.52848         0.00041  21221868.65248  21221867.29649
    479894.08147    373948.43144         0.00041  25186105.02744  25186094.78747
   2542494.35247   1981151.73244         0.00041  25733793.78444  25733791.29847
 -16112608.37348 -12555257.53546         0.00041  22220311.01246  22220308.82048
 -12731618.41648  -9920727.39946         0.00041  23091901.42746  23091899.45948
 -26800284.15249 -20883314.29848         0.00041  20453489.99748  20453489.33849
    215572.14448    168000.78744         0.00041  25276944.38144  25276946.65048
 94 02 20 00 03 30.0000000  0  8 02 07 16 18 19 26 27 31
 -12266794.45449  -9558524.65248         0.00041  20897450.60148  20897449.19649
 -21631793.30749 -16855900.64248         0.00041  21209189.40848  21209188.07249
    543908.03947    423829.40244         0.00041  25198286.55444  25198276.21847
   2652475.91047   2066851.50444         0.00041  25754722.24144  25754719.15347
 -16045969.14448 -12503330.89346         0.00041  22232991.59846  22232989.83848
 -12793397.11548  -9968866.58046         0.00041  23080144.63546  23080143.26248
 -26769871.88249 -20859616.41948         0.00041  20459277.37948  20459276.65049
    323665.00548    252229.03944         0.00041  25297517.86344  25297515.99748
 94 02 20 00 04 00.0000000  0  7 02 07 18 19 26 27 31
 -12272507.56349  -9562976.41348         0.00041  20896363.57148  20896362.11049
 -21698015.03549 -16907501.94448         0.00041  21196587.88948  21196586.39349
   2762370.03247   2152482.88044         0.00041  25775635.77344  25775631.81147
 -15979051.25348 -12451187.11746         0.00041  22245725.65646  22245723.91448
 -12854749.56648 -10016673.62246         0.00041  23068469.22846  23068468.48848
 -26739053.17849 -20835601.84448         0.00041  20465142.00648  20465141.30149
    431875.52548    336548.99244         0.00041  25318111.27844  25318107.62948
 94 02 20 00 04 30.0000000  0  7 02 07 13 19 26 27 31
 -12278059.02849  -9567302.21448         0.00041  20895306.98048  20895305.68649
 -21763833.15549 -16958788.74648         0.00041  21184062.99848  21184061.63149
        -0.39717         0.32216  25369899.51017  25369907.77816         0.00011
 -15911877.61448 -12398844.04746         0.00041  22258508.60646  22258506.72448
 -12915690.45248 -10064159.96946         0.00041  23056873.41846  23056871.71348
 -26707841.11249 -20811280.75448         0.00041  20471081.36548  20471080.74049
    540202.73848    420959.86545         0.00041  25338723.66445  25338721.69648
 94 02 20 00 05 00.0000000  0  7 02 07 13 19 26 27 31
 -12283405.18649  -9571468.03848         0.00041  20894289.50848  20894288.30649
 -21829197.61049 -17009722.04448         0.00041  21171624.48148  21171623.20649
   -120058.13707    -93550.76407  25347052.92507  25347061.27607         0.00001
 -15844415.65248 -12346276.32046         0.00041  22271346.18046  22271344.32048
 -12976163.63048 -10111281.85946         0.00041  23045366.11146  23045363.84348
 -26676203.12149 -20786627.77248         0.00041  20477101.76648  20477101.23749
    648656.67248    505469.44944         0.00041  25359358.56844  25359359.59448
 94 02 20 00 05 30.0000000  0  8 02 07 13 15 19 26 27 31
 -12288568.03849  -9575491.02548         0.00041  20893307.08448  20893305.88649
 -21894114.06549 -17060306.25048         0.00041  21159271.36848  21159269.97449
   -240151.67707   -187129.72507  25324199.45807  25324207.86207         0.00001
        -0.14858         0.33956         0.00051  24082181.92156  24082179.25258
 -15776676.80048 -12293492.82746         0.00041  22284236.42946  22284234.53948
 -13036194.51148 -10158059.10846         0.00041  23033942.10246  23033940.56948
 -26644163.18949 -20761661.59148         0.00041  20483198.88148  20483198.27149
    757192.71848    590043.04844         0.00041  25380018.85444  25380013.02148
 94 02 20 00 06 00.0000000  0  8 02 07 13 15 19 26 27 31
 -12293575.22749  -9579392.71348         0.00041  20892354.22048  20892353.01549
 -21958606.71149 -17110560.21448         0.00041  21146998.54148  21146997.34449
   -360302.92807   -280753.64207  25301335.08507  25301343.15807         0.00001
    -38169.20248    -29741.71146         0.00041  24074918.31846  24074915.84048
 -15708674.08348 -12240503.72746         0.00041  22297176.81246  22297175.04148
 -13095805.82248 -10204509.41946         0.00041  23022597.73646  23022596.72648
 -26611740.50449 -20736397.15848         0.00041  20489368.78948  20489368.06449
    865790.75948    674664.96344         0.00041  25400681.23144  25400678.47848
 94 02 20 00 06 30.0000000  0  8 02 07 13 15 19 26 27 31
 -12298411.56249  -9583161.26848         0.00041  20891433.69848  20891432.57549
 -22022684.94749 -17160491.26548         0.00041  21134805.00148  21134803.65349
   -480521.12907   -374429.74107  25278458.11307  25278466.07807         0.00001
    -75942.63748    -59175.49346         0.00041  24067730.88446  24067727.83848
 -15640404.19548 -12187306.44946         0.00041  22310168.44846  22310166.45048
 -13155001.48248 -10250635.85046         0.00041  23011333.94846  23011331.93648
 -26578927.42949 -20710828.52748         0.00041  20495612.78048  20495612.14049
    974435.95748    759323.55344         0.00041  25421355.00244  25421353.31948
 94 02 20 00 07 00.0000000  0  8 02 07 13 15 19 26 27 31
 -12303005.74449  -9586741.13148         0.00041  20890559.63848  20890558.34749
 -22086298.18449 -17210059.98048         0.00041  21122699.68248  21122698.33549
   -600748.85307   -468113.26607  25255579.11507  25255587.16807         0.00001
   -113263.14248    -88256.34346         0.00041  24060630.96946  24060625.84248
 -15571793.49448 -12133843.60946         0.00041  22323224.72346  22323222.65648
 -13213738.06948 -10296404.55546         0.00041  23000155.98346  23000154.83948
 -26545656.05549 -20684902.77948         0.00041  20501944.16348  20501943.44849
   1083176.62647    844056.70844         0.00041  25442048.35844  25442046.13647
 94 02 20 00 07 30.0000000  0  8 02 07 13 15 19 26 27 31
 -12307404.18549  -9590168.46848         0.00041  20889722.68548  20889721.39949
 -22149488.68649 -17259299.28948         0.00041  21110674.95748  21110673.61849
   -721014.26007   -561826.20707  25232693.25107  25232700.97707         0.00001
   -150159.98548   -117007.07446         0.00041  24053608.44246  24053604.51948
 -15502863.15648 -12080131.68546         0.00041  22336341.13646  22336339.71248
 -13272068.48248 -10341856.76046         0.00041  22989055.30946  22989054.67048
 -26511942.81949 -20658632.72648         0.00041  20508359.47048  20508358.92149
   1192000.61147    928854.63444         0.00041  25462758.50244  25462754.59247
 94 02 20 00 08 00.0000000  0  8 02 07 13 15 19 26 27 31
 -12311645.38749  -9593473.28348         0.00041  20888915.36348  20888914.24949
 -22212293.86149 -17308238.34248         0.00041  21098723.53148  21098722.19649
   -841349.77807   -655593.81307  25209793.84607  25209801.57107         0.00001
   -186666.06748   -145453.32046         0.00041  24046661.34246  24046657.62848
 -15433660.32448 -12026207.43346         0.00041  22349510.17146  22349508.52148
 -13330014.19848 -10387009.21246         0.00041  22978030.06346  22978028.06548
 -26477814.68549 -20632039.37648         0.00041  20514853.90348  20514853.20049
   1300878.65447   1013694.64544         0.00041  25483464.28744  25483473.06347
 94 02 20 00 08 30.0000000  0  8 02 07 13 15 19 26 27 31
 -12315689.56549  -9596624.57048         0.00041  20888145.83148  20888144.60549
 -22274665.22049 -17356839.36048         0.00041  21086854.63448  21086853.19749
   -961720.98707   -749389.25707  25186887.77207  25186895.26207         0.00001
   -222747.61948   -173568.75446         0.00041  24039796.48546  24039791.51548
 -15364167.01348 -11972056.83046         0.00041  22362734.81846  22362732.63648
 -13387530.76948 -10431827.25746         0.00041  22967084.35646  22967083.01648
 -26443242.94349 -20605100.35648         0.00041  20521432.66148  20521432.03249
   1409826.71447   1098589.48044         0.00041  25504203.31544  25504205.18147
 94 02 20 00 09 00.0000000  0  8 02 07 13 15 19 26 27 31
 -12319556.49649  -9599637.73848         0.00041  20887409.91448  20887408.73449
 -22336598.99549 -17405099.40148         0.00041  21075069.05148  21075067.66249
  -1082133.26907   -843216.73207  25163973.99407  25163981.26607         0.00001
   -258410.10548   -201357.64846         0.00041  24033007.63846  24033005.02948
 -15294405.14148 -11917696.96246         0.00041  22376009.61146  22376007.91448
 -13444610.29348 -10476304.74646         0.00041  22956222.74646  22956220.89748
 -26408256.54349 -20577838.22948         0.00041  20528090.41648  20528089.67149
   1518836.87047   1183532.36744         0.00041  25524951.03144  25524949.51147
 94 02 20 00 09 30.0000000  0  7 02 07 13 15 19 26 27
 -12323240.58249  -9602508.42948         0.00041  20886708.93148  20886707.73349
 -22398061.74449 -17452992.40848         0.00041  21063372.77148  21063371.52749
  -1202570.67207   -937063.79807  25141055.24207  25141062.57607         0.00001
   -293638.55948   -228808.32246         0.00041  24026304.33946  24026301.46148
 -15224383.74448 -11863134.87046         0.00041  22389334.13446  22389332.54248
 -13501217.03648 -10520413.82946         0.00041  22945449.71046  22945449.13548
 -26372859.25549 -20550255.92848         0.00041  20534826.17748  20534825.57549
 94 02 20 00 10 00.0000000  0  7 02 07 13 15 19 26 27
 -12326731.40749  -9605228.52848         0.00041  20886044.56148  20886043.38449
 -22459053.65849 -17500518.53148         0.00041  21051766.30748  21051765.07149
  -1323043.15507  -1030938.23507  25118129.81207  25118137.11807         0.00001
   -328443.77748   -255929.19046         0.00041  24019680.02346  24019678.04448
 -15154124.96148 -11808387.80146         0.00041  22402704.38846  22402702.40648
 -13557342.42648 -10564147.85246         0.00041  22934770.17046  22934768.92048
 -26337079.90049 -20522375.91348         0.00041  20541634.87648  20541634.17649
 94 02 20 00 10 30.0000000  0  8 02 07 13 15 16 19 26 27
 -12329972.81649  -9607754.27548         0.00041  20885427.58848  20885426.45449
 -22519536.18649 -17547647.73148         0.00041  21040257.07248  21040255.68149
  -1443508.88707  -1124807.42307  25095205.71407  25095213.00607         0.00001
   -362784.55348   -282688.19446         0.00041  24013147.20946  24013143.22748
        -0.59158         0.17354         0.00051  25370250.44354  25370243.70958
 -15083578.52848 -11753416.57646         0.00041  22416128.59046  22416127.05148
 -13612946.17348 -10607475.39546         0.00041  22924188.64546  22924187.53648
 -26300881.99049 -20494169.75048         0.00041  20548522.98648  20548522.31749
 94 02 20 00 11 00.0000000  0  8 02 07 13 15 16 19 26 27
 -12333018.05449  -9610127.16348         0.00041  20884848.26948  20884846.98649
 -22579559.63949 -17594419.20948         0.00041  21028835.03348  21028833.57349
  -1564012.04907  -1218705.79307  25072274.71107  25072281.79407         0.00001
   -396705.77948   -309120.25846         0.00041  24006691.07946  24006688.01648
     64970.85148     50627.24344         0.00041  25382611.27444  25382606.93748
 -15012781.99048 -11698250.48146         0.00041  22429601.50146  22429599.17548
 -13668086.16648 -10650441.57146         0.00041  22913695.80946  22913695.00748
 -26264306.85849 -20465669.65348         0.00041  20555483.16648  20555482.45049
 94 02 20 00 11 30.0000000  0  8 02 07 13 15 16 19 26 27
 -12335849.75049  -9612333.65748         0.00041  20884309.35948  20884308.16749
 -22639116.11049 -17640826.80648         0.00041  21017501.72248  21017500.22949
  -1684531.89507  -1312617.16007  25049340.48607  25049347.37107         0.00001
   -430187.55048   -335209.87546         0.00041  24000319.54646  24000316.67248
    129978.94148    101282.92544         0.00041  25394974.87544  25394977.77648
 -14941714.30348 -11642873.10146         0.00041  22443124.69246  22443122.82648
 -13722768.38748 -10693051.04146         0.00041  22903289.94246  22903289.18248
 -26227314.10949 -20436844.13948         0.00041  20562522.40548  20562521.78549
 94 02 20 00 12 00.0000000  0  8 02 07 13 15 16 19 26 27
 -12338471.10749  -9614376.25048         0.00041  20883810.45548  20883809.28949
 -22698224.08849 -17686884.92848         0.00041  21006253.74848  21006252.36149
  -1805065.02507  -1406538.89807  25026403.53607  25026410.57007         0.00001
   -463227.05848   -360954.86546         0.00041  23994034.03446  23994029.39248
    195042.28048    151981.67644         0.00041  25407360.08244  25407358.74948
 -14870360.75948 -11587272.97346         0.00041  22456702.97746  22456701.00148
 -13777000.49748 -10735309.77546         0.00041  22892970.15746  22892968.93548
 -26189893.98949 -20407685.60748         0.00041  20569643.24848  20569642.70949
 94 02 20 00 12 30.0000000  0  8 02 07 13 15 16 19 26 27
 -12340913.35249  -9616279.27548         0.00041  20883345.77148  20883344.58849
 -22756891.12749 -17732599.46048         0.00041  20995089.80348  20995088.33649
  -1925616.89307  -1500475.26407  25003463.22507  25003470.03907         0.00001
   -495830.48448   -386360.08346         0.00041  23987828.65646  23987825.04548
    260153.25447    202717.30844         0.00041  25419750.90044  25419749.19747
 -14798726.45448 -11531454.06346         0.00041  22470334.79146  22470332.51648
 -13830804.09248 -10777234.59846         0.00041  22882731.04346  22882730.68548
 -26152046.26649 -20378193.88048         0.00041  20576845.58448  20576844.90449
 94 02 20 00 13 00.0000000  0  8 02 07 13 15 16 19 26 27
 -12343197.99149  -9618059.48948         0.00041  20882910.98948  20882909.84249
 -22815121.89749 -17777974.04648         0.00041  20984008.72848  20984007.28649
  -2046178.71107  -1594419.39307  24980520.78807  24980527.91607         0.00001
   -527989.61648   -411419.08346         0.00041  23981707.55646  23981705.27548
    325318.44547    253495.57644         0.00041  25432152.93844  25432149.78847
 -14726818.86648 -11475422.20546         0.00041  22484018.12546  22484016.03048
 -13884189.19848 -10818833.32746         0.00041  22872572.87546  22872571.73048
 -26113764.62049 -20348364.03048         0.00041  20584130.20148  20584129.57849
 94 02 20 00 13 30.0000000  0  8 02 07 13 15 16 19 26 27
 -12345321.36249  -9619714.04748         0.00041  20882506.85248  20882505.73349
 -22872936.61149 -17823024.42648         0.00041  20973006.99948  20973005.59049
  -2166750.59307  -1688371.28307  24957576.66907  24957583.54707         0.00001
   -559705.61948   -436132.79746         0.00041  23975673.73246  23975670.05348
    390536.65247    304314.86044         0.00041  25444572.05444  25444560.49247
 -14654649.01748 -11419185.99746         0.00041  22497751.79046  22497749.53948
 -13937148.22948 -10860100.05946         0.00041  22862494.71346  22862493.83148
 -26075070.29049 -20318212.61048         0.00041  20591493.44948  20591492.93049
 94 02 20 00 14 00.0000000  0  8 02 07 13 15 16 19 26 27
 -12347220.55649  -9621193.91948         0.00041  20882145.41248  20882144.36249
 -22930266.08149 -17867696.69748         0.00041  20962097.38448  20962096.01349
  -2287269.42307  -1782281.84807  24934642.42407  24934649.22307         0.00001
   -590916.23848   -460452.69946         0.00041  23969733.61946  23969730.80348
    455850.31047    355208.51544         0.00041  25456993.43244  25456988.73447
 -14582155.55648 -11362697.61946         0.00041  22511546.70146  22511544.67748
 -13989596.70848 -10900968.95246         0.00041  22852514.65746  22852512.99748
 -26035921.52849 -20287707.08448         0.00041  20598943.29148  20598942.66349
 94 02 20 00 14 30.0000000  0  8 02 07 13 15 16 19 26 27
 -12348959.94049  -9622549.26548         0.00041  20881814.48348  20881813.34349
 -22987174.45549 -17912040.84148         0.00041  20951268.21848  20951266.82149
  -2407797.18607  -1876199.34207  24911706.60607  24911713.38407         0.00001
   -621684.70148   -484428.08046         0.00041  23963878.79146  23963875.66848
    521171.83347    406108.39444         0.00041  25469423.60544  25469418.65247
 -14509416.40648 -11306017.79146         0.00041  22525388.36646  22525386.61548
 -14041601.92948 -10941492.45746         0.00041  22842618.07746  22842616.80048
 -25996386.59849 -20256900.65148         0.00041  20606466.75848  20606465.93749
 94 02 20 00 15 00.0000000  0  8 02 07 13 15 16 19 26 27
 -12350536.96349  -9623778.09648         0.00041  20881514.33748  20881513.07949
 -23043679.31349 -17956070.55648         0.00041  20940515.48748  20940514.27149
  -2528345.91507  -1970133.18407  24888766.77507  24888773.50307         0.00001
   -652023.93348   -508068.99146         0.00041  23958105.99946  23958102.31448
    586475.79847    456994.30344         0.00041  25481850.65344  25481845.62647
 -14436452.10248 -11249162.52146         0.00041  22539273.14646  22539271.09848
 -14093171.29748 -10981676.33446         0.00041  22832805.12646  22832803.59648
 -25956489.67649 -20225812.14448         0.00041  20614058.81948  20614058.12549
 94 02 20 00 15 30.0000000  0  8 02 07 13 15 16 19 26 27
 -12351864.16249  -9624812.26048         0.00041  20881261.68348  20881260.50549
 -23099679.83849 -17999707.28648         0.00041  20929858.96848  20929857.65549
  -2648844.36507  -2064027.75207  24865836.31007  24865843.12007         0.00001
   -681863.53548   -531320.57746         0.00041  23952428.04346  23952424.04148
    651823.33447    507913.83744         0.00041  25494286.43244  25494281.35447
 -14363184.16848 -11192070.65346         0.00041  22553215.26046  22553213.52348
 -14144212.76948 -11021448.86046         0.00041  22823092.29146  22823090.55848
 -25916166.21949 -20194391.27248         0.00041  20621732.02248  20621731.41849
 94 02 20 00 16 00.0000000  0  7 02 07 13 15 19 26 27
 -12352967.10849  -9625671.68548         0.00041  20881051.77148  20881050.62049
 -23155170.13749 -18042946.43848         0.00041  20919299.40948  20919298.25749
  -2769306.29407  -2157893.85207  24842913.01907  24842919.70407         0.00001
   -711217.93348   -554194.05446         0.00041  23946841.30946  23946838.08948
 -14289626.13948 -11134752.74046         0.00041  22567212.79646  22567211.29348
 -14194748.51848 -11060827.32246         0.00041  22813474.95046  22813473.79148
 -25875413.15649 -20162635.64348         0.00041  20629487.34248  20629486.48249
 94 02 20 00 16 30.0000000  0  7 02 07 13 15 19 26 27
 -12353954.68049  -9626441.20848         0.00041  20880863.94948  20880862.79549
 -23210269.96749 -18085881.32848         0.00041  20908814.02348  20908813.01949
  -2889839.79807  -2251815.79107  24819976.09707  24819982.56607         0.00001
   -740195.84348   -576774.22746         0.00041  23941326.73746  23941323.57448
 -14215883.52048 -11077290.99146         0.00041  22581245.74346  22581244.11148
 -14244900.32648 -11099906.61146         0.00041  22803931.73646  22803930.42048
 -25834327.09749 -20130620.53648         0.00041  20637305.58448  20637304.81649
 94 02 20 00 17 00.0000000  0  7 02 07 13 15 19 26 27
 -12354734.84549  -9627049.11248         0.00041  20880715.45948  20880714.30349
 -23264869.87649 -18128426.67148         0.00041  20898424.06048  20898422.94649
  -3010348.70707  -2345718.38607  24797043.57207  24797050.06007         0.00001
   -768702.87248   -598987.43446         0.00041  23935900.71146  23935898.83348
 -14141846.47648 -11019599.81846         0.00041  22595334.70346  22595332.96048
 -14294564.78348 -11138606.14146         0.00041  22794480.63846  22794479.54648
 -25792817.82749 -20098275.65548         0.00041  20645204.72948  20645203.89849
 94 02 20 00 17 30.0000000  0  7 02 07 13 15 19 26 27
 -12355305.21449  -9627493.53948         0.00041  20880606.94948  20880605.71249
 -23318942.30849 -18170560.99448         0.00041  20888134.54148  20888133.31349
  -3130807.46707  -2439581.98007  24774120.77907  24774127.01607         0.00001
   -796713.93748   -620814.21345         0.00041  23930570.96745  23930568.35448
 -14067488.10748 -10961658.26346         0.00041  22609484.99746  22609482.87848
 -14343711.14548 -11176901.95946         0.00041  22785128.12346  22785127.18348
 -25750840.91349 -20065566.37348         0.00041  20653192.42348  20653191.73149
 94 02 20 00 18 00.0000000  0  7 02 07 13 15 19 26 27
 -12355707.06149  -9627806.65248         0.00041  20880530.39448  20880529.18349
 -23372546.89149 -18212330.75748         0.00041  20877933.74748  20877932.69049
  -3251246.52407  -2533430.24407  24751201.69207  24751207.89307         0.00001
   -824260.52448   -642279.03346         0.00041  23925330.91146  23925326.49148
 -13992845.18248 -10903494.98146         0.00041  22623689.17946  22623687.07148
 -14392390.13748 -11214833.60146         0.00041  22775865.34446  22775863.98848
 -25708423.23249 -20032513.63748         0.00041  20661264.39648  20661263.54249
 94 02 20 00 18 30.0000000  0  7 02 07 13 15 19 26 27
 -12355940.80849  -9627988.77748         0.00041  20880485.81248  20880484.73549
 -23425676.80249 -18253730.64848         0.00041  20867823.53248  20867822.41949
  -3371659.25107  -2627258.00807  24728287.68607  24728293.69207         0.00001
   -851337.02748   -663377.56246         0.00041  23920176.65746  23920173.89948
 -13917920.19348 -10845111.89346         0.00041  22637946.82946  22637944.75348
 -14440595.94248 -11252396.51446         0.00041  22766691.10646  22766690.68248
 -25665569.88149 -19999121.41748         0.00041  20669419.03448  20669418.28849
 94 02 20 00 19 00.0000000  0  7 02 07 13 15 19 26 27
 -12356029.84849  -9628058.14248         0.00041  20880468.90848  20880467.75049
 -23478341.95349 -18294768.38948         0.00041  20857801.50048  20857800.48649
  -3492058.64307  -2721075.41207  24705376.26207  24705382.26107         0.00001
   -877957.49548   -684120.72046         0.00041  23915109.50046  23915108.01448
 -13842746.89848 -10786535.33246         0.00041  22652252.00646  22652249.71348
 -14488340.43448 -11289599.96946         0.00041  22757606.17546  22757605.11648
 -25622306.68949 -19965409.84048         0.00041  20677651.85848  20677651.03249
 94 02 20 00 19 30.0000000  0  7 02 07 13 15 19 26 27
 -12355957.44849  -9628001.71048         0.00041  20880482.72748  20880481.53149
 -23530537.03249 -18335439.83948         0.00041  20847869.03448  20847867.94849
  -3612425.19507  -2814867.23807  24682470.93407  24682477.00707         0.00001
   -904103.30048   -704494.05346         0.00041  23910136.73746  23910132.85648
 -13767323.91748 -10727764.21146         0.00041  22666604.43046  22666602.32148
 -14535605.43748 -11326429.79646         0.00041  22748611.93846  22748610.78248
 -25578613.87949 -19931363.49748         0.00041  20685966.18048  20685965.53249
 94 02 20 00 20 00.0000000  0  6 02 07 15 19 26 27
 -12355689.54049  -9627792.92948         0.00041  20880533.67948  20880532.51549
 -23582244.86649 -18375731.62048         0.00041  20838029.32248  20838028.33049
   -929753.11748   -724480.87446         0.00041  23905255.50446  23905251.80648
 -13691640.26848 -10668789.96646         0.00041  22681006.31546  22681004.35848
 -14582378.43348 -11362876.24346         0.00041  22739711.88346  22739710.08448
 -25534488.53849 -19896980.11748         0.00041  20694362.98648  20694362.31049
 94 02 20 00 20 30.0000000  0  6 02 07 15 19 26 27
 -12355277.07249  -9627471.50748         0.00041  20880612.03748  20880610.92649
 -23633510.48749 -18415678.81748         0.00041  20828273.86448  20828272.80849
   -954954.76648   -744118.44646         0.00041  23900459.07046  23900455.96148
 -13615748.81548 -10609653.80346         0.00041  22695448.36246  22695446.04548
 -14628687.34748 -11398961.06546         0.00041  22730898.44246  22730897.81848
 -25489985.48949 -19862302.42048         0.00041  20702831.66048  20702830.90149
 94 02 20 00 21 00.0000000  0  7 02 07 13 15 19 26 27
 -12354694.81249  -9627017.77648         0.00041  20880722.98148  20880721.72949
 -23684320.83049 -18455271.25348         0.00041  20818604.99648  20818603.88449
        -0.93517        -0.13317  24613797.06317  24613802.74117         0.00011
   -979684.77048   -763388.51846         0.00041  23895751.92146  23895749.99448
 -13539617.10248 -10550330.40746         0.00041  22709934.85346  22709933.43948
 -14674496.52748 -11434656.48846         0.00041  22722181.49446  22722180.48948
 -25445071.51949 -19827304.52448         0.00041  20711378.31548  20711377.74849
 94 02 20 00 21 30.0000000  0  7 02 07 13 15 19 26 27
 -12353901.30349  -9626399.43648         0.00041  20880873.92748  20880872.70949
 -23734644.08849 -18494484.14448         0.00041  20809028.83348  20809027.67049
   -120204.29107    -93664.77807  24590922.83907  24590928.44407         0.00001
  -1003913.14248   -782267.72746         0.00041  23891142.11146  23891139.39648
 -13463200.55248 -10490785.08046         0.00041  22724477.01746  22724475.04948
 -14719777.87848 -11469940.62046         0.00041  22713564.40746  22713563.62348
 -25399706.83249 -19791955.41948         0.00041  20720010.95248  20720010.34249
 94 02 20 00 22 00.0000000  0  7 02 07 13 15 19 26 27
 -12352862.19649  -9625589.72148         0.00041  20881071.45648  20881070.34949
 -23784449.36249 -18533293.41348         0.00041  20799551.09048  20799549.95449
   -240314.72107   -187257.01407  24568066.28807  24568072.09007         0.00001
  -1027612.88448   -800734.97646         0.00041  23886633.51546  23886629.65048
 -13386469.05748 -10430994.32946         0.00041  22739078.81346  22739076.68548
 -14764509.27348 -11504796.21746         0.00041  22705052.29846  22705051.64848
 -25353868.95749 -19756237.59348         0.00041  20728733.77848  20728733.00149
 94 02 20 00 22 30.0000000  0  7 02 07 13 15 19 26 27
 -12351634.70149  -9624633.21248         0.00041  20881305.18148  20881303.91649
 -23833797.53449 -18571746.49848         0.00041  20790160.30648  20790159.26149
   -360392.23507   -280823.60107  24545216.32907  24545221.86107         0.00001
  -1050845.42348   -818838.21745         0.00041  23882211.55745  23882208.51148
 -13309472.58048 -10370997.10346         0.00041  22753730.63846  22753728.65348
 -14808753.94348 -11539272.54946         0.00041  22696633.22146  22696632.05748
 -25307625.55649 -19720203.77448         0.00041  20737533.64248  20737532.82149
 94 02 20 00 23 00.0000000  0  7 02 07 13 15 19 26 27
 -12350205.12749  -9623519.23948         0.00041  20881577.21848  20881576.03149
 -23882678.22149 -18609835.31248         0.00041  20780858.59448  20780857.57949
   -480433.99207   -374362.31007  24522372.92807  24522378.10507         0.00001
  -1073608.82248   -836575.88946         0.00041  23877880.84646  23877876.61148
 -13232212.22248 -10310794.24746         0.00041  22768432.88746  22768430.70348
 -14852535.58348 -11573388.07946         0.00041  22688301.52146  22688300.62048
 -25260980.11649 -19683856.67748         0.00041  20746409.81948  20746409.16649
 94 02 20 00 23 30.0000000  0  7 02 07 13 15 19 26 27
 -12348603.67249  -9622271.33248         0.00041  20881881.87648  20881880.76249
 -23931120.77649 -18647582.72348         0.00041  20771640.27348  20771639.24449
   -600465.69207   -467893.13607  24499531.22807  24499536.45707         0.00001
  -1095930.29948   -853969.16746         0.00041  23873631.84446  23873628.92448
 -13154725.63748 -10250415.12946         0.00041  22783178.25346  22783176.13948
 -14895894.47048 -11607174.18846         0.00041  22680050.61346  22680049.55548
 -25213983.61749 -19647236.02848         0.00041  20755352.94948  20755352.22149
 94 02 20 00 24 00.0000000  0  7 02 07 13 15 19 26 27
 -12346800.75649  -9620866.44748         0.00041  20882224.95648  20882223.83749
 -23979068.35249 -18684944.43948         0.00041  20762516.20948  20762515.14849
   -720423.90107   -561366.74807  24476703.65207  24476708.83107         0.00001
  -1117747.47448   -870969.53446         0.00041  23869479.35546  23869477.29748
 -13076962.63848 -10189820.61846         0.00041  22797976.11346  22797973.92648
 -14938769.05748 -11640582.92146         0.00041  22671892.06046  22671890.73848
 -25166586.75549 -19610303.41048         0.00041  20764372.48248  20764371.68849
 94 02 20 00 24 30.0000000  0  7 02 07 13 15 19 26 27
 -12344793.49549  -9619302.33248         0.00041  20882606.99648  20882605.75849
 -24026497.76649 -18721902.39448         0.00041  20753490.58048  20753489.57149
   -840275.63807   -654757.41407  24453896.37007  24453901.41807         0.00001
  -1139028.80448   -887552.34746         0.00041  23865429.61846  23865427.75448
 -12998897.47648 -10128990.65546         0.00041  22812831.44046  22812829.18448
 -14981134.86348 -11673595.20446         0.00041  22663830.15746  22663829.00048
 -25118752.62749 -19573030.06348         0.00041  20773474.79348  20773474.10949
 94 02 20 00 25 00.0000000  0  7 02 07 13 15 19 26 27
 -12342642.06649  -9617625.88148         0.00041  20883016.24248  20883015.12749
 -24073442.43849 -18758482.62048         0.00041  20744557.43148  20744556.31649
   -960056.56607   -748092.90507  24431102.65007  24431107.80107         0.00001
  -1159811.54048   -903746.63146         0.00041  23861474.35146  23861472.69948
 -12920585.61948 -10067968.45646         0.00041  22827733.33246  22827731.41348
 -15023020.90748 -11706233.64746         0.00041  22655859.72046  22655858.33548
 -25070507.82649 -19535436.71048         0.00041  20782655.65748  20782654.85249
 94 02 20 00 25 30.0000000  0  7 02 07 13 15 19 26 27
 -12340370.25249  -9615855.62248         0.00041  20883448.47448  20883447.45449
 -24119913.92049 -18794694.13148         0.00041  20735713.98448  20735712.95849
  -1079765.59007   -841372.38507  24408322.59507  24408327.58907         0.00001
  -1180095.94348   -919552.63046         0.00041  23857613.92246  23857612.68948
 -12842033.07648 -10006758.72546         0.00041  22842681.86746  22842679.51648
 -15064410.12548 -11738484.95946         0.00041  22647983.51946  22647982.16348
 -25021844.31649 -19497517.09448         0.00041  20791915.93648  20791915.17949
 94 02 20 00 26 00.0000000  0  7 02 07 13 15 19 26 27
 -12337976.90849  -9613990.66848         0.00041  20883903.95648  20883902.87349
 -24165918.77049 -18830542.03648         0.00041  20726959.44948  20726958.46749
  -1199409.03707   -934600.77407  24385555.09107  24385559.93107         0.00001
  -1199889.74148   -934976.33146         0.00041  23853849.87446  23853846.10648
 -12763254.39648  -9945372.76646         0.00041  22857672.64846  22857670.55048
 -15105303.52548 -11770349.91646         0.00041  22640200.89046  22640200.42848
 -24972753.37149 -19459264.41148         0.00041  20801257.57948  20801256.89349
 94 02 20 00 26 30.0000000  0  7 02 07 13 15 19 26 27
 -12335400.68249  -9611983.20648         0.00041  20884394.19448  20884393.13649
 -24211419.36149 -18865997.01448         0.00041  20718301.07648  20718300.04849
  -1318959.92807  -1027757.08307  24362805.08607  24362809.92907         0.00001
  -1219167.01048   -949997.52146         0.00041  23850181.41446  23850177.91848
 -12684223.94948  -9883790.64046         0.00041  22872711.98746  22872709.59648
 -15145671.14448 -11801805.17546         0.00041  22632519.58246  22632518.67048
 -24923205.18849 -19420655.44648         0.00041  20810686.24048  20810685.50749
 94 02 20 00 27 00.0000000  0  7 02 07 13 15 19 26 27
 -12332640.18749  -9609832.16048         0.00041  20884919.36948  20884918.35449
 -24256426.78549 -18901067.70548         0.00041  20709736.30448  20709735.42849
  -1438437.19807  -1120856.02407  24340069.14807  24340073.87607         0.00001
  -1237948.34948   -964632.29246         0.00041  23846606.39846  23846603.91148
 -12604963.30348  -9822029.14146         0.00041  22887794.39246  22887792.42148
 -15185518.98748 -11832855.40846         0.00041  22624936.49346  22624935.66048
 -24873219.44449 -19381705.52648         0.00041  20820198.18448  20820197.54749
 94 02 20 00 27 30.0000000  0  7 02 07 13 15 19 26 27
 -12329701.62849  -9607542.36248         0.00041  20885478.62848  20885477.61949
 -24300977.62649 -18935782.61748         0.00041  20701258.53848  20701257.60549
  -1557862.82107  -1213914.72607  24317343.00907  24317347.69507         0.00001
  -1256257.07048   -978898.79646         0.00041  23843120.56446  23843119.79748
 -12525487.95248  -9760100.32046         0.00041  22902918.26846  22902916.03248
 -15224870.74148 -11863519.08446         0.00041  22617448.68046  22617447.46548
 -24822835.04049 -19342444.96248         0.00041  20829786.06848  20829785.36449
 94 02 20 00 28 00.0000000  0  7 02 07 13 15 19 26 27
 -12326544.63849  -9605082.35748         0.00041  20886079.29448  20886078.31949
 -24345027.74049 -18970107.35248         0.00041  20692876.17348  20692875.20149
  -1677205.55807  -1306908.84507  24294632.69307  24294637.38707         0.00001
  -1274063.30548   -992773.74446         0.00041  23839732.79346  23839731.12548
 -12445766.67848  -9697979.88246         0.00041  22918089.14746  22918086.55948
 -15263703.39748 -11893778.27046         0.00041  22610058.36246  22610057.69548
 -24772032.76049 -19302858.78848         0.00041  20839453.50048  20839452.79249
 94 02 20 00 28 30.0000000  0  7 02 07 13 15 19 26 27
 -12323202.19449  -9602477.84448         0.00041  20886715.45148  20886714.39049
 -24388592.42549 -19004053.82848         0.00041  20684585.94048  20684585.05049
  -1796480.50807  -1399850.15507  24271935.29507  24271939.77107         0.00001
  -1291383.77448  -1006270.15646         0.00041  23836438.08846  23836435.17148
 -12365810.94048  -9635676.75646         0.00041  22933303.80646  22933301.74948
 -15302039.55848 -11923650.57646         0.00041  22602762.92346  22602762.53248
 -24720836.73549 -19262965.79848         0.00041  20849195.66048  20849194.96149
 94 02 20 00 29 00.0000000  0  7 02 07 13 15 19 26 27
 -12319648.43549  -9599708.66748         0.00041  20887391.68048  20887390.57549
 -24431650.39849 -19037605.46748         0.00041  20676392.32148  20676391.34849
  -1915645.59107  -1492705.85707  24249258.69407  24249263.18807         0.00001
  -1308178.08548  -1019356.59545         0.00041  23833242.99345  23833239.35448
 -12285582.66748  -9573161.25346         0.00041  22948570.49246  22948568.55748
 -15339839.60348 -11953105.11646         0.00041  22595569.97546  22595569.35548
 -24669215.50249 -19222741.47848         0.00041  20859019.27948  20859018.24449
 94 02 20 00 29 30.0000000  0  7 02 07 13 15 19 26 27
 -12315922.73149  -9596805.50848         0.00041  20888100.73748  20888099.49149
 -24474226.47249 -19070781.60048         0.00041  20668290.45048  20668289.37049
  -2034726.58707  -1585496.04407  24226598.17507  24226602.64807         0.00001
  -1324473.56248  -1032054.31045         0.00041  23830141.17345  23830138.27548
 -12205102.64948  -9510449.60146         0.00041  22963885.52446  22963883.40848
 -15377140.73048 -11982170.89646         0.00041  22588471.87046  22588471.26848
 -24617210.75349 -19182218.31148         0.00041  20868915.32448  20868914.44749
 94 02 20 00 30 00.0000000  0  7 02 07 13 15 19 26 27
 -12312045.89449  -9593784.57948         0.00041  20888838.39648  20888837.29749
 -24516324.67849 -19103585.36848         0.00041  20660279.12848  20660278.27149
  -2153729.31507  -1678225.26207  24203952.67007  24203957.05007         0.00001
  -1340277.60648  -1044369.08745         0.00041  23827134.68745  23827130.68748
 -12124373.65948  -9447543.94646         0.00041  22979248.55046  22979245.76748
 -15413954.53448 -12010856.93446         0.00041  22581466.41946  22581465.80748
 -24564815.42549 -19141390.79948         0.00041  20878885.63348  20878884.86549
 94 02 20 00 30 30.0000000  0  7 02 07 13 15 19 26 27
 -12307986.46249  -9590621.37248         0.00041  20889610.83848  20889609.75949
 -24557929.87249 -19136004.97648         0.00041  20652361.94848  20652361.10349
  -2272619.89907  -1770867.09007  24181328.35707  24181332.70307         0.00001
  -1355557.84448  -1056275.72045         0.00041  23824225.33145  23824223.14948
 -12043358.35948  -9384415.18446         0.00041  22994664.83746  22994662.41348
 -15450242.31548 -12039133.09046         0.00041  22574561.43646  22574560.46848
 -24511992.13249 -19100229.80548         0.00041  20888937.53848  20888936.81949
 94 02 20 00 31 00.0000000  0  7 02 07 13 15 19 26 27
 -12303755.81249  -9587324.74648         0.00041  20890415.77348  20890414.79149
 -24599066.63649 -19168059.56848         0.00041  20644533.88348  20644532.87749
  -2391417.19508  -1863436.20407  24158721.76308  24158726.22707         0.00001
  -1370334.89648  -1067790.24445         0.00041  23821412.30145  23821411.21648
 -11962081.71148  -9321082.77546         0.00041  23010130.69146  23010129.01248
 -15486018.91848 -12067010.92146         0.00041  22567753.12946  22567752.40148
 -24458765.01249 -19058754.13647         0.00041  20899066.37547  20899065.68549
 94 02 20 00 31 30.0000000  0  7 02 07 13 15 19 26 27
 -12299361.04949  -9583900.23948         0.00041  20891251.94148  20891250.98149
 -24639721.46449 -19199738.62348         0.00041  20636797.39948  20636796.47649
  -2510114.42208  -1955927.33307  24136134.29508  24136138.62107         0.00001
  -1384603.53748  -1078908.60845         0.00041  23818696.56045  23818695.80548
 -11880544.63148  -9257547.43346         0.00041  23025646.82946  23025644.81648
 -15521282.28448 -12094488.83246         0.00041  22561043.02146  22561042.01248
 -24405129.56949 -19016960.29047         0.00041  20909273.09147  20909272.16849
 94 02 20 00 32 00.0000000  0  7 02 07 13 15 19 26 27
 -12294818.82449  -9580360.82948         0.00041  20892116.50048  20892115.40949
 -24679909.16949 -19231053.69248         0.00041  20629150.00748  20629149.11049
  -2628723.21608  -2048349.54407  24113563.59808  24113567.80307         0.00001
  -1398377.20448  -1089641.28546         0.00041  23816076.04146  23816074.79548
 -11798778.86648  -9193833.91546         0.00041  23041206.83846  23041204.47948
 -15556046.51048 -12121577.79746         0.00041  22554427.35346  22554426.48248
 -24351090.91349 -18974852.25247         0.00041  20919556.11047  20919555.33349
 94 02 20 00 32 30.0000000  0  7 02 07 13 15 19 26 27
 -12290103.41949  -9576686.47448         0.00041  20893013.79048  20893012.73849
 -24719586.89849 -19261971.38248         0.00041  20621599.67048  20621598.63149
  -2747212.57108  -2140678.69207  24091015.59608  24091019.93407         0.00001
  -1411626.57648  -1099965.42545         0.00041  23813555.16545  23813553.65048
 -11716764.66348  -9129926.77546         0.00041  23056814.18046  23056811.22048
 -15590281.47248 -12148254.35346         0.00041  22547912.58546  22547911.62648
 -24296631.13249 -18932416.06147         0.00041  20929919.45047  20929918.70749
 94 02 20 00 33 00.0000000  0  7 02 07 13 15 19 26 27
 -12285232.64149  -9572891.04848         0.00041  20893940.64248  20893939.62849
 -24758743.74949 -19292483.18848         0.00041  20614148.12948  20614147.28649
  -2865588.91008  -2232919.77707  24068489.16508  24068493.41107         0.00001
  -1424359.39748  -1109887.03545         0.00041  23811133.24345  23811130.52248
 -11634517.30948  -9065837.99146         0.00041  23072464.26446  23072462.44848
 -15624004.97948 -12174532.36846         0.00041  22541495.36346  22541494.37948
 -24241762.79349 -18889661.51347         0.00041  20940360.40747  20940359.78149
 94 02 20 00 33 30.0000000  0  7 02 07 13 15 19 26 27
 -12280205.44249  -9568973.74048         0.00041  20894897.27548  20894896.24749
 -24797354.94149 -19322569.79948         0.00041  20606800.78448  20606799.85849
  -2983837.24108  -2325061.12707  24045987.05908  24045991.38807         0.00001
  -1436562.75748  -1119396.11545         0.00041  23808811.98745  23808808.22748
 -11552014.29148  -9001549.97046         0.00041  23088164.93546  23088162.34848
 -15657210.20648 -12200406.52646         0.00041  22535176.31746  22535175.58248
 -24186465.79449 -18846572.94747         0.00041  20950883.12547  20950882.44449
 94 02 20 00 34 00.0000000  0  7 02 07 13 15 19 26 27
 -12275014.66349  -9564928.96748         0.00041  20895884.81948  20895883.88249
 -24835436.49249 -19352243.70648         0.00041  20599553.97848  20599553.07049
  -3101962.71508  -2417106.74807  24023508.41808  24023512.75807         0.00001
  -1448243.58448  -1128497.98945         0.00041  23806588.96845  23806585.48948
 -11469252.38948  -8937060.22046         0.00041  23103913.22646  23103911.43948
 -15689905.93548 -12225883.68046         0.00041  22528954.58346  22528953.83648
 -24130739.96549 -18803150.22547         0.00041  20961487.41047  20961486.68649
 94 02 20 00 34 30.0000000  0  7 02 07 13 15 19 26 27
 -12269656.49549  -9560753.75948         0.00041  20896904.59048  20896903.53849
 -24873005.60249 -19381518.30448         0.00041  20592404.83648  20592403.94449
  -3219970.63808  -2509060.78307  24001052.18908  24001056.19907         0.00001
  -1459408.77748  -1137198.08245         0.00041  23804464.12845  23804460.88048
 -11386228.58148  -8872366.40146         0.00041  23119712.16146  23119710.22448
 -15722105.25848 -12250974.02746         0.00041  22522827.17546  22522826.43748
 -24074599.60049 -18759404.48947         0.00041  20972170.73647  20972169.81849
 94 02 20 00 35 00.0000000  0  7 02 07 13 15 19 26 27
 -12264149.27649  -9556462.41148         0.00041  20897952.47848  20897951.52549
 -24910097.02249 -19410420.68248         0.00041  20585346.60948  20585345.61749
  -3337879.66808  -2600937.76507  23978614.66408  23978618.64707         0.00001
  -1470078.93048  -1145512.45745         0.00041  23802432.98245  23802430.37948
 -11302973.96548  -8807492.72946         0.00041  23135555.83946  23135553.12248
 -15753831.17248 -12275695.47946         0.00041  22516790.53746  22516789.10748
 -24018068.44149 -18715354.23647         0.00041  20982928.17947  20982927.35549
 94 02 20 00 35 30.0000000  0  7 02 07 13 15 19 26 27
 -12258439.48449  -9552013.21148         0.00041  20899039.37848  20899038.11749
 -24946690.81149 -19438935.29348         0.00041  20578382.94248  20578382.12649
  -3455641.71108  -2692700.22007  23956205.16608  23956209.14107         0.00001
  -1480208.01148  -1153405.22646         0.00041  23800505.62546  23800502.68448
 -11219455.63548  -8742413.56546         0.00041  23151448.65746  23151446.26548
 -15785031.35548 -12300007.27246         0.00041  22510852.77846  22510851.82948
 -23961104.20649 -18670966.52347         0.00041  20993767.96347  20993767.37349
 94 02 20 00 36 00.0000000  0  7 02 07 13 15 19 26 27
 -12252530.02149  -9547408.42648         0.00041  20900163.70048  20900162.60149
 -24982806.26849 -19467077.17848         0.00041  20571510.30348  20571509.39349
  -3573258.78008  -2784349.71607  23933823.23208  23933827.18807         0.00001
  -1489799.58148  -1160879.15245         0.00041  23798680.01045  23798677.63448
 -11135698.53248  -8677148.33546         0.00041  23167388.29946  23167384.77848
 -15815705.08348 -12323908.84346         0.00041  22505015.60446  22505014.61248
 -23903727.97849 -18626257.78447         0.00041  21004686.34847  21004685.58449
 94 02 20 00 36 30.0000000  0  7 02 07 13 15 19 26 27
 -12246443.75449  -9542665.87148         0.00041  20901321.77348  20901320.78249
 -25018444.39949 -19494847.11948         0.00041  20564728.64448  20564727.75149
  -3690742.66608  -2875895.43607  23911466.74608  23911470.51207         0.00001
  -1498867.23848  -1167944.83446         0.00041  23796954.56346  23796951.96048
 -11051729.12148  -8611717.67846         0.00041  23183366.67646  23183363.75548
 -15845858.74548 -12347405.17446         0.00041  22499278.02046  22499276.71048
 -23845966.09749 -18581248.53547         0.00041  21015677.98647  21015677.39149
 94 02 20 00 37 00.0000000  0  7 02 07 13 15 19 26 27
 -12240120.29049  -9537738.48748         0.00041  20902525.08148  20902524.03449
 -25053540.03949 -19522194.33848         0.00041  20558050.08948  20558049.24849
  -3808025.89308  -2967284.80807  23889148.35208  23889152.24207         0.00001
  -1507345.45548  -1174551.19645         0.00041  23795342.71045  23795338.56748
 -10967485.41148  -8546073.27246         0.00041  23199397.23546  23199394.80248
 -15875403.86048 -12370427.31046         0.00041  22493655.22646  22493654.37948
 -23787756.04249 -18535890.05947         0.00041  21026755.38447  21026754.45949
 94 02 20 00 37 30.0000000  0  7 02 07 13 15 19 26 27
 -12233561.08749  -9532627.41048         0.00041  20903773.33048  20903772.28749
 -25088102.49549 -19549126.09048         0.00041  20551472.84348  20551472.15349
  -3925108.52408  -3058517.88407  23866868.10508  23866871.77107         0.00001
  -1515236.52748  -1180700.06845         0.00041  23793838.53845  23793836.75248
 -10882958.07348  -8480207.86546         0.00041  23215482.59246  23215479.98848
 -15904333.44348 -12392969.81346         0.00041  22488150.35246  22488149.30148
 -23729100.52449 -18490184.47147         0.00041  21037917.04647  21037916.25549
 94 02 20 00 38 00.0000000  0  7 02 07 13 15 19 26 27
 -12226898.47549  -9527435.75448         0.00041  20905041.23148  20905040.14649
 -25122241.92049 -19575728.20848         0.00041  20544976.54948  20544975.76549
  -4042120.05708  -3149695.55907  23844601.48408  23844605.13907         0.00001
  -1522671.47948  -1186493.48045         0.00041  23792425.40945  23792422.02748
 -10798259.15248  -8414208.75046         0.00041  23231600.68746  23231597.33448
 -15932779.22848 -12415135.32846         0.00041  22482737.18646  22482736.18148
 -23670127.66449 -18444231.60647         0.00041  21049139.14847  21049138.44949
 94 02 20 00 38 30.0000000  0  7 02 07 13 15 19 26 27
 -12220095.79449  -9522134.94948         0.00041  20906335.63748  20906334.57749
 -25155906.97249 -19601960.68548         0.00041  20538570.34148  20538569.49749
  -4159021.41308  -3240787.39107  23822355.77108  23822359.36807         0.00001
  -1529613.58548  -1191902.93245         0.00041  23791102.65345  23791101.02148
 -10713348.12148  -8348044.35046         0.00041  23247758.24546  23247755.52448
 -15960711.27248 -12436900.53346         0.00041  22477422.21446  22477420.97048
 -23610788.50349 -18397993.31547         0.00041  21060431.04547  21060430.29249
 94 02 20 00 39 00.0000000  0  7 02 07 13 15 19 26 27
 -12213157.27049  -9516728.29448         0.00041  20907656.02348  20907654.89549
 -25189091.22049 -19627818.50848         0.00041  20532255.40548  20532254.68349
  -4275798.84308  -3331782.66007  23800133.66708  23800137.14807         0.00001
  -1536050.98248  -1196918.99245         0.00041  23789877.97245  23789875.83348
 -10628209.78748  -8281702.83746         0.00041  23263959.33546  23263956.61748
 -15988135.85248 -12458270.30446         0.00041  22472202.66846  22472202.11548
 -23551062.66549 -18351453.70747         0.00041  21071796.65647  21071795.78549
 94 02 20 00 39 30.0000000  0  7 02 07 13 15 19 26 27
 -12206084.19549  -9511216.79248         0.00041  20909002.15948  20909000.90549
 -25221779.39249 -19653289.77848         0.00041  20526035.04348  20526034.32249
  -4392440.82708  -3422672.38407  23777937.36208  23777940.84607         0.00001
  -1541973.99248  -1201534.27645         0.00041  23788751.74245  23788748.78348
 -10542831.92348  -8215174.68046         0.00041  23280207.06946  23280203.90248
 -16015075.64648 -12479262.32546         0.00041  22467076.38946  22467075.73748
 -23490929.33249 -18304596.57947         0.00041  21083239.44247  21083238.75849
 94 02 20 00 40 00.0000000  0  7 02 07 13 15 19 26 27
 -12198869.49049  -9505594.92448         0.00041  20910374.93548  20910373.81249
 -25253955.22649 -19678361.82748         0.00041  20519912.16048  20519911.40949
  -4508930.75808  -3513443.62807  23755769.97808  23755773.37407         0.00001
  -1547368.37748  -1205737.66045         0.00041  23787726.55745  23787722.13048
 -10457217.56348  -8148462.25046         0.00041  23296498.40746  23296495.52848
 -16041530.58448 -12499876.53246         0.00041  22462042.13946  22462041.57148
 -23430372.92849 -18257409.78947         0.00041  21094763.00247  21094762.23949
 94 02 20 00 40 30.0000000  0  7 02 07 13 15 19 26 27
 -12191500.01849  -9499852.45648         0.00041  20911777.25848  20911776.18849
 -25285621.61849 -19703036.90948         0.00041  20513886.16948  20513885.46549
  -4625250.14208  -3604081.98507  23733635.06908  23733638.39607         0.00001
  -1552217.31748  -1209516.02645         0.00041  23786804.45445  23786799.50848
 -10371362.91848  -8081562.54946         0.00041  23312835.48446  23312833.40848
 -16067487.18148 -12520102.41946         0.00041  22457103.07246  22457102.11148
 -23369380.25149 -18209883.04647         0.00041  21106369.37947  21106368.59849
 94 02 20 00 41 00.0000000  0  7 02 07 13 15 19 26 27
 -12183943.62149  -9493964.33448         0.00041  20913215.05048  20913213.98549
 -25316775.59549 -19727312.70348         0.00041  20507957.70948  20507957.04949
  -4741374.30408  -3694568.22407  23711537.18708  23711540.60707         0.00001
  -1556498.60848  -1212852.03045         0.00041  23785985.80445  23785984.80948
 -10285235.40148  -8014450.23746         0.00041  23329226.10646  23329222.69748
 -16092913.03148 -12539914.74046         0.00041  22452264.56646  22452263.56148
 -23307929.47349 -18161999.33347         0.00041  21118063.34347  21118062.49249
 94 02 20 00 41 30.0000000  0  7 02 07 13 15 19 26 27
 -12176208.60049  -9487937.02248         0.00041  20914686.98848  20914685.94449
 -25347454.86949 -19751218.60248         0.00041  20502119.62248  20502118.98849
  -4857328.28408  -3784921.86707  23689471.89208  23689475.13707         0.00001
  -1560239.25748  -1215766.82445         0.00041  23785276.70245  23785272.67648
 -10198873.48848  -7947155.28846         0.00041  23345660.64346  23345657.13848
 -16117814.98548 -12559318.83346         0.00041  22447526.29946  22447524.92348
 -23246057.83449 -18113787.67747         0.00041  21129836.94447  21129836.24149
 94 02 20 00 42 00.0000000  0  7 02 07 13 15 19 26 27
 -12168295.71349  -9481771.11448         0.00041  20916192.84848  20916191.69849
 -25377653.80849 -19774750.21448         0.00041  20496372.83848  20496372.22249
  -4973112.96808  -3875143.59107  23667438.81308  23667442.12807         0.00001
  -1563442.15648  -1218262.56245         0.00041  23784665.39445  23784663.34348
 -10112293.45648  -7879690.38346         0.00041  23362134.84846  23362132.55948
 -16142175.79048 -12578301.24546         0.00041  22442890.55846  22442889.21148
 -23183780.63149 -18065260.00047         0.00041  21141687.96147  21141687.16949
 94 02 20 00 42 30.0000000  0  7 02 07 13 15 19 26 27
 -12160208.53149  -9475469.39248         0.00041  20917731.63648  20917730.59949
 -25407368.20349 -19797904.25648         0.00041  20490718.55248  20490717.84349
  -5088736.13408  -3965239.46007  23645436.23008  23645439.60607         0.00001
  -1566117.55448  -1220347.23245         0.00041  23784155.76245  23784154.17348
 -10025494.33748  -7812054.72846         0.00041  23378651.91746  23378650.05248
 -16165997.86248 -12596863.85846         0.00041  22438356.95546  22438356.00748
 -23121106.88949 -18016423.33447         0.00041  21153614.69147  21153613.59549
 94 02 20 00 43 00.0000000  0  7 02 07 13 15 19 26 27
 -12151945.15149  -9469030.37548         0.00041  20919303.93348  20919303.02349
 -25436568.43749 -19820657.65548         0.00041  20485161.95748  20485161.14749
  -5204180.59008  -4055196.06707  23623467.82908  23623471.09207         0.00001
  -1568250.20048  -1222009.03945         0.00041  23783750.18745  23783748.23448
  -9938474.84848  -7744247.36846         0.00041  23395211.99546  23395209.46648
 -16189269.71548 -12614997.73946         0.00041  22433928.20146  22433927.34848
 -23058028.74749 -17967271.55047         0.00041  21165617.86547  21165617.05949
 94 02 20 00 43 30.0000000  0  7 02 07 13 15 19 26 27
 -12143530.41149  -9462473.41648         0.00041  20920905.40848  20920904.41749
 -25465245.22449 -19843003.17348         0.00041  20479704.55148  20479703.93049
  -5319451.02408  -4145017.06307  23601532.51008  23601535.73107         0.00001
  -1569846.95148  -1223253.21045         0.00041  23783446.74545  23783444.21948
  -9851259.75148  -7676287.58646         0.00041  23411808.31246  23411805.91748
 -16212002.57048 -12632711.61946         0.00041  22429602.02546  22429601.30448
 -22994566.31749 -17917820.32147         0.00041  21177694.34647  21177693.50449
 94 02 20 00 44 00.0000000  0  7 02 07 13 15 19 26 27
 -12134991.46549  -9455819.67848         0.00041  20922529.97048  20922529.18149
 -25493405.87349 -19864946.50648         0.00041  20474345.80848  20474345.15949
  -5434567.31108  -4234717.94707  23579626.51008  23579629.73007         0.00001
  -1570930.02048  -1224097.13945         0.00041  23783240.39945  23783238.34148
  -9763865.26948  -7608188.02146         0.00041  23428439.40046  23428436.73848
 -16234230.10348 -12650031.74246         0.00041  22425372.36946  22425371.56948
 -22930740.26149 -17868085.74647         0.00041  21189840.07947  21189839.27149
 94 02 20 00 44 30.0000000  0  7 02 07 13 15 19 26 27
 -12126261.78549  -9449017.31648         0.00041  20924191.39048  20924190.39849
 -25521008.74849 -19886455.21048         0.00041  20469093.20048  20469092.56249
  -5549467.52208  -4324250.46407  23557761.59108  23557764.90407         0.00001
  -1571439.60248  -1224494.20645         0.00041  23783144.26745  23783141.38348
  -9676224.16948  -7539896.29146         0.00041  23445116.56246  23445114.25748
 -16255895.51048 -12666913.84746         0.00041  22421249.70346  22421248.80048
 -22866485.80549 -17818017.34547         0.00041  21202067.37047  21202066.49749
 94 02 20 00 45 00.0000000  0  7 02 07 13 15 19 26 27
 -12117362.49249  -9442082.79048         0.00041  20925884.87848  20925883.92249
 -25548093.33749 -19907560.05548         0.00041  20463939.34248  20463938.61849
  -5664169.96208  -4413628.87507  23535934.33708  23535937.69507         0.00001
  -1571396.31848  -1224460.46345         0.00041  23783149.45045  23783149.35048
  -9588362.71848  -7471432.87246         0.00041  23461835.47346  23461833.66848
 -16277012.41048 -12683368.54346         0.00041  22417231.07446  22417230.39448
 -22801828.35649 -17767634.93147         0.00041  21214371.22947  21214370.32849
 94 02 20 00 45 30.0000000  0  7 02 07 13 15 19 26 27
 -12108282.36149  -9435007.35248         0.00041  20927612.63148  20927611.78449
 -25574673.65949 -19928271.96648         0.00041  20458881.24448  20458880.45849
  -5778679.10708  -4502856.67407  23514143.88908  23514147.09607         0.00001
  -1570807.19148  -1224001.45245         0.00041  23783261.12845  23783261.63048
  -9500272.79648  -7402791.41046         0.00041  23478597.98646  23478596.73648
 -16297579.43848 -12699394.77146         0.00041  22413317.05246  22413316.53448
 -22736761.91849 -17716933.82247         0.00041  21226752.99747  21226752.10949
 94 02 20 00 46 00.0000000  0  7 02 07 13 15 19 26 27
 -12099033.59549  -9427800.51248         0.00041  20929372.81748  20929371.78349
 -25600775.42249 -19948610.97048         0.00041  20453914.09948  20453913.39049
  -5893010.89708  -4591946.26707  23492387.22208  23492390.41107         0.00001
  -1569690.26648  -1223131.00345         0.00041  23783476.57045  23783474.16148
  -9411966.23248  -7333981.15046         0.00041  23495402.27846  23495400.66348
 -16317610.34048 -12715003.23246         0.00041  22409505.79146  22409504.91748
 -22671291.61149 -17665918.00947         0.00041  21239211.60247  21239210.64349
 94 02 20 00 46 30.0000000  0  7 02 07 13 15 19 26 27
 -12089633.63649  -9420475.86248         0.00041  20931161.42148  20931160.43049
 -25626417.84349 -19968592.04948         0.00041  20449034.51748  20449033.81649
  -6007168.41308  -4680900.05807  23470663.64608  23470666.82907         0.00001
  -1568051.08448  -1221853.68345         0.00041  23783791.72545  23783786.08348
  -9323457.99848  -7265013.72946         0.00041  23512244.98246  23512243.55048
 -16337105.50148 -12730194.24446         0.00041  22405795.87846  22405795.08948
 -22605428.48549 -17614596.10547         0.00041  21251745.06147  21251744.03749
 94 02 20 00 47 00.0000000  0  7 02 07 13 15 19 26 27
 -12079730.81749  -9412759.37148         0.00041  20933045.92848  20933044.99149
 -25651229.51249 -19987925.79048         0.00041  20444313.09648  20444312.24949
  -6120783.49208  -4769431.18307  23449043.33108  23449046.53007         0.00001
  -1565523.67248  -1219884.24745         0.00041  23784267.52445  23784267.02848
  -9234389.69148  -7195609.88946         0.00041  23529195.98646  23529192.44448
 -16355706.81448 -12744688.74946         0.00041  22402256.00946  22402255.31748
 -22538809.94549 -17562685.56647         0.00041  21264422.06547  21264421.05849
 94 02 20 00 47 30.0000000  0  7 02 07 13 15 19 26 27
 -12069513.31049  -9404797.67148         0.00041  20934990.32348  20934989.35649
 -25675378.74049 -20006743.34448         0.00041  20439717.47148  20439716.77549
  -6234028.27008  -4857673.75807  23427493.49508  23427496.59707         0.00001
  -1562282.75148  -1217358.82346         0.00041  23784887.07246  23784883.73948
  -9144934.75748  -7125904.79046         0.00041  23546218.10546  23546215.48648
 -16373608.30748 -12758637.94146         0.00041  22398849.25046  22398848.81448
 -22471613.26449 -17510324.52847         0.00041  21277209.09947  21277208.15749
 94 02 20 00 48 00.0000000  0  7 02 07 13 15 19 26 27
 -12059940.10649  -9397338.02748         0.00041  20936811.99648  20936810.97649
 -25699807.56849 -20025778.76848         0.00041  20435068.79048  20435068.15149
  -6347844.99708  -4946362.00607  23405834.90508  23405837.92407         0.00001
  -1559273.02148  -1215013.56645         0.00041  23785458.54445  23785456.45748
  -9056041.85948  -7056637.64446         0.00041  23563132.86746  23563131.04048
 -16391769.80748 -12772789.74146         0.00041  22395393.48746  22395392.76848
 -22404806.65449 -17458267.44247         0.00041  21289922.18347  21289921.12149
 94 02 20 00 48 30.0000000  0  7 02 07 13 15 19 26 27
 -12050051.96649  -9389632.97248         0.00041  20938693.74048  20938692.66249
 -25723562.37849 -20044288.98048         0.00041  20430548.37848  20430547.70849
  -6461278.93808  -5034751.96907  23384249.02108  23384252.05207         0.00001
  -1555542.17148  -1212106.40245         0.00041  23786166.78945  23786166.32648
  -8966751.57048  -6987060.82846         0.00041  23580124.30846  23580122.50348
 -16409251.00748 -12786411.43346         0.00041  22392066.46446  22392066.31648
 -22337444.76649 -17405777.67047         0.00041  21302740.61147  21302739.66649
 94 02 20 00 49 00.0000000  0  7 02 07 13 15 19 26 27
 -12040022.94049  -9381818.14048         0.00041  20940602.08748  20940601.19249
 -25746822.69149 -20062413.87348         0.00041  20426122.03248  20426121.32349
  -6574516.54708  -5122988.95408  23362700.56408  23362703.43408         0.00001
  -1551278.64448  -1208784.14245         0.00041  23786981.04745  23786977.67448
  -8877238.65448  -6917310.54946         0.00041  23597158.28146  23597156.05248
 -16426250.61948 -12799657.86346         0.00041  22388832.20346  22388831.20748
 -22269712.60449 -17352999.37347         0.00041  21315629.49547  21315628.69949
 94 02 20 00 49 30.0000000  0  7 02 07 13 15 19 26 27
 -12029747.80849  -9373811.53648         0.00041  20942557.16648  20942556.34949
 -25769487.40449 -20080074.66148         0.00041  20421809.08648  20421808.45849
  -6687466.37108  -5211001.69508  23341206.86908  23341209.87108         0.00001
  -1546393.43248  -1204977.47745         0.00041  23787907.72745  23787907.06548
  -8787418.12648  -6847320.57846         0.00041  23614251.74546  23614248.89148
 -16442668.75548 -12812451.19246         0.00041  22385707.40146  22385706.78048
 -22201529.35149 -17299869.57947         0.00041  21328604.52347  21328603.64649
 94 02 20 00 50 00.0000000  0  7 02 07 13 15 19 26 27
 -12019228.82749  -9365614.92048         0.00041  20944559.05148  20944558.12549
 -25791562.20849 -20097275.78048         0.00041  20417608.46148  20417607.77749
  -6800135.49308  -5298795.70308  23319766.56908  23319769.35108         0.00001
  -1540896.48448  -1200694.13345         0.00041  23788956.77145  23788953.00748
  -8697310.14948  -6777106.60046         0.00041  23631399.16546  23631395.65248
 -16458495.83948 -12824783.97046         0.00041  22382695.94346  22382695.11548
 -22132900.48549 -17246392.55447         0.00041  21341663.99647  21341663.22549
 94 02 20 00 50 30.0000000  0  7 02 07 13 15 19 26 27
 -12008579.57549  -9357316.79348         0.00041  20946585.36848  20946584.51449
 -25813172.47549 -20114114.92248         0.00041  20413496.14548  20413495.45549
  -6912638.78708  -5386460.48708  23298357.78508  23298360.68508         0.00001
  -1534905.48048  -1196025.80345         0.00041  23790095.42445  23790092.90848
  -8607038.95248  -6706765.45945         0.00041  23648575.61745  23648573.73048
 -16473837.48048 -12836738.47746         0.00041  22379776.53546  22379775.62048
 -22063932.54949 -17192651.31347         0.00041  21354788.01347  21354787.28449
 94 02 20 00 51 00.0000000  0  7 02 07 13 15 19 26 27
 -11997847.06849  -9348953.79248         0.00041  20948627.70048  20948626.79649
 -25834351.67749 -20130618.16748         0.00041  20409465.76548  20409465.11949
  -7025007.50208  -5474020.40408  23276974.65608  23276977.49808         0.00001
  -1528453.78448  -1190998.49645         0.00041  23791323.58645  23791320.67248
  -8516655.07048  -6636336.49946         0.00041  23665775.61246  23665773.34548
 -16488715.58648 -12848331.78146         0.00041  22376944.85746  22376944.32348
 -21994669.96649 -17138680.47747         0.00041  21367968.66347  21367967.54749
 94 02 20 00 51 30.0000000  0  7 02 07 13 15 19 26 27
 -11986825.77949  -9340365.76548         0.00041  20950725.02348  20950724.13549
 -25854883.20549 -20146616.73348         0.00041  20405558.48748  20405557.91449
  -7137019.65608  -5561302.48008  23255659.38708  23255662.08808         0.00001
  -1521321.97448  -1185441.24945         0.00041  23792680.22245  23792677.89148
  -8425961.51948  -6565666.23145         0.00041  23683034.16845  23683031.59648
 -16502902.08648 -12859386.18246         0.00041  22374245.65546  22374244.78148
 -21924897.07349 -17084311.99647         0.00041  21381245.95947  21381244.98849
 94 02 20 00 52 00.0000000  0  7 02 07 13 15 19 26 27
 -11975557.82149  -9331585.52948         0.00041  20952869.29048  20952868.40149
 -25874812.37449 -20162145.92648         0.00041  20401766.32148  20401765.65049
  -7248706.04308  -5648330.72008  23234406.11408  23234408.77108         0.00001
  -1513543.20048  -1179379.84545         0.00041  23794159.06345  23794158.30148
  -8334983.68448  -6494774.43245         0.00041  23700347.53545  23700344.20648
 -16516442.48448 -12869937.12746         0.00041  22371668.96546  22371668.11248
 -21854635.40249 -17029562.65547         0.00041  21394616.17347  21394615.34749
 94 02 20 00 52 30.0000000  0  7 02 07 13 15 19 26 27
 -11964274.29349  -9322793.15948         0.00041  20955016.47048  20955015.56449
 -25894382.76249 -20177395.54948         0.00041  20398042.10448  20398041.49349
  -7360303.09208  -5735289.34508  23213169.73108  23213172.49108         0.00001
  -1505357.21748  -1173001.13945         0.00041  23795720.26845  23795716.10348
  -8243949.63248  -6423838.84045         0.00041  23717670.55145  23717667.24548
 -16529582.82548 -12880176.33246         0.00041  22369168.10946  22369167.49348
 -21784129.03649 -16974622.64047         0.00041  21408033.30547  21408032.24749
 94 02 20 00 53 00.0000000  0  7 02 07 13 15 19 26 27
 -11952781.01649  -9313837.34648         0.00041  20957203.62748  20957202.71049
 -25913387.74949 -20192204.60048         0.00041  20394425.64448  20394424.99749
  -7471619.17308  -5822029.04108  23191986.95408  23191989.63808         0.00001
  -1496574.79748  -1166157.66245         0.00041  23797387.96045  23797387.49348
  -8152675.15848  -6352715.93545         0.00041  23735039.45945  23735036.15648
 -16542132.23548 -12889955.08046         0.00041  22366779.45146  22366779.37648
 -21713189.77949 -16919345.30747         0.00041  21421532.60047  21421531.53549
 94 02 20 00 53 30.0000000  0  6 02 07 13 19 26 27
 -11941105.80049  -9304739.76248         0.00041  20959425.29348  20959424.42249
 -25931874.11249 -20206609.52848         0.00041  20390907.70948  20390907.02149
  -7582688.88208  -5908576.76408  23170850.95708  23170853.73508         0.00001
  -8061182.27848  -6281422.80445         0.00041  23752449.89945  23752446.83748
 -16554133.35748 -12899306.58246         0.00041  22364496.36246  22364495.66748
 -21641841.54849 -16863749.29647         0.00041  21435109.51247  21435108.69349
 94 02 20 00 54 00.0000000  0  6 02 07 13 19 26 27
 -11929244.10749  -9295496.87348         0.00041  20961682.45048  20961681.65149
 -25949856.78449 -20220621.97348         0.00041  20387485.67348  20387485.05749
  -7693514.82108  -5994934.53808  23149761.40908  23149764.06008         0.00001
  -7969455.58148  -6209947.49045         0.00041  23769906.10445  23769901.54848
 -16565593.41948 -12908236.48846         0.00041  22362315.45746  22362314.86148
 -21570098.02649 -16807845.27147         0.00041  21448761.92747  21448761.02149
 94 02 20 00 54 30.0000000  0  7 02 07 09 13 19 26 27
 -11917175.79949  -9286092.98448         0.00041  20963978.99648  20963978.07349
 -25967311.98349 -20234223.39648         0.00041  20384164.13948  20384163.48749
        -1.09058        -0.73854         0.00051  25344457.03454  25344453.50158
  -7804076.57008  -6081086.45108  23128722.17208  23128724.75208         0.00001
  -7877482.34748  -6138280.05745         0.00041  23787404.69745  23787403.86548
 -16576481.88848 -12916720.99346         0.00041  22360243.77946  22360242.89548
 -21497955.39749 -16751630.24947         0.00041  21462490.28347  21462489.39449
 94 02 20 00 55 00.0000000  0  7 02 07 09 13 19 26 27
 -11904894.16149  -9276522.86548         0.00041  20966316.00248  20966315.10749
 -25984225.27649 -20247402.55848         0.00041  20380945.53948  20380944.87249
    -98413.48248    -76685.68144         0.00041  25325726.17544  25325725.89048
  -7914353.17308  -6167016.17008  23107737.08108  23107739.86408         0.00001
  -7785253.14948  -6066413.22845         0.00041  23804958.00645  23804954.49148
 -16586780.44648 -12924745.83046         0.00041  22358283.86646  22358283.23348
 -21425390.60849 -16695086.26747         0.00041  21476298.81147  21476297.99049
 94 02 20 00 55 30.0000000  0  7 02 07 09 13 19 26 27
 -11892436.46049  -9266815.55448         0.00041  20968686.63748  20968685.79249
 -26000639.89349 -20260193.14348         0.00041  20377821.90948  20377821.31749
   -196861.61448   -153398.39444         0.00041  25306999.88544  25306991.93048
  -8024367.88308  -6252741.81608  23086801.91308  23086804.68108         0.00001
  -7692793.90648  -5994367.10045         0.00041  23822549.86045  23822548.84448
 -16596531.98348 -12932344.42346         0.00041  22356428.40946  22356427.47048
 -21352434.51449 -16638237.37247         0.00041  21490181.80447  21490181.03049
 94 02 20 00 56 00.0000000  0  7 02 07 09 13 19 26 27
 -11879923.15649  -9257064.91648         0.00041  20971067.85948  20971066.95949
 -26016664.62549 -20272679.92248         0.00041  20374772.54048  20374771.95849
   -295464.03748   -230231.35044         0.00041  25288232.13544  25288228.47548
  -8134235.45408  -6338352.81008  23065894.74808  23065897.42708         0.00001
  -7600244.16048  -5922250.43845         0.00041  23840164.67945  23840160.43848
 -16605858.18748 -12939611.57546         0.00041  22354653.77246  22354652.76848
 -21279209.49049 -16581178.92347         0.00041  21504115.75147  21504115.27349
 94 02 20 00 56 30.0000000  0  7 02 07 09 13 19 26 27
 -11867232.69949  -9247176.23748         0.00041  20973482.66648  20973481.74549
 -26032165.78549 -20284758.72248         0.00041  20371822.60548  20371822.04549
   -394082.58248   -307076.91545         0.00041  25269462.45245  25269461.85048
  -8243824.34808  -6423746.65608  23045040.63308  23045043.27608         0.00001
  -7507491.07748  -5849975.35945         0.00041  23857812.55345  23857810.84748
 -16614635.60448 -12946451.11246         0.00041  22352983.07146  22352982.53048
 -21205572.78449 -16523799.68147         0.00041  21518128.53347  21518127.78749
 94 02 20 00 57 00.0000000  0  7 02 07 09 13 19 26 27
 -11854394.18349  -9237172.18648         0.00041  20975925.74648  20975924.91949
 -26047169.57049 -20296449.96048         0.00041  20368967.42148  20368966.85649
   -492716.15548   -383934.16245         0.00041  25250694.40745  25250692.48148
  -8353146.28208  -6508932.48608  23024237.31708  23024239.90108         0.00001
  -7414556.39448  -5777558.76245         0.00041  23875497.67245  23875495.86448
 -16622897.11648 -12952888.62446         0.00041  22351410.88846  22351410.45848
 -21131540.24549 -16466111.99547         0.00041  21532216.92047  21532215.81249
 94 02 20 00 57 30.0000000  0  7 02 07 09 13 19 26 27
 -11841401.20649  -9227047.77448         0.00041  20978398.28948  20978397.43149
 -26061670.35849 -20307749.24948         0.00041  20366207.91048  20366207.32449
   -591348.31048   -460790.29545         0.00041  25231927.06645  25231923.32948
  -8462190.40708  -6593901.84708  23003486.82408  23003489.44108         0.00001
  -7321434.48148  -5704996.25945         0.00041  23893219.84645  23893216.27048
 -16630636.26248 -12958919.11246         0.00041  22349937.97046  22349937.59748
 -21057117.72349 -16408120.42547         0.00041  21546378.65947  21546377.98349
 94 02 20 00 58 00.0000000  0  7 02 07 09 13 19 26 27
 -11828253.51049  -9216802.80648         0.00041  20980900.06048  20980899.27949
 -26075658.75449 -20318649.27848         0.00041  20363545.82248  20363545.30749
   -689980.51448   -537646.44845         0.00041  25213158.31945  25213154.09048
  -8570955.17508  -6678653.53308  22982789.47408  22982792.12808         0.00001
  -7228124.79548  -5632287.45345         0.00041  23910975.33045  23910972.54548
 -16637830.25948 -12964524.79946         0.00041  22348569.26946  22348568.66448
 -20982302.19849 -16349822.61947         0.00041  21560615.73947  21560614.92749
 94 02 20 00 58 30.0000000  0  7 02 07 09 13 19 26 27
 -11814957.24449  -9206442.06948         0.00041  20983430.31548  20983429.47649
 -26089139.88449 -20329154.03448         0.00041  20360980.52848  20360980.01849
   -788612.00448   -614502.07845         0.00041  25194388.20745  25194385.12048
  -8679440.30508  -6763187.32308  22962145.41108  22962147.98908         0.00001
  -7134623.02448  -5559429.00445         0.00041  23928766.97645  23928765.40048
 -16644469.63648 -12969698.34146         0.00041  22347305.60946  22347305.17448
 -20907100.83349 -16291224.16347         0.00041  21574925.97047  21574925.24249
 94 02 20 00 59 00.0000000  0  7 02 07 09 13 19 26 27
 -11801536.34449  -9195984.21548         0.00041  20985984.26948  20985983.43249
 -26102146.04449 -20339288.68548         0.00041  20358505.68648  20358505.09849
   -887296.67748   -691399.12145         0.00041  25175607.37145  25175606.14848
  -8787672.93508  -6847524.36008  22941549.38608  22941551.94908         0.00001
  -7040949.37448  -5486436.56445         0.00041  23946593.46445  23946590.90748
 -16650568.65248 -12974450.80646         0.00041  22346145.22946  22346144.52348
 -20831552.18349 -16232355.08847         0.00041  21589302.40747  21589301.68949
 94 02 20 00 59 30.0000000  0  7 02 07 09 13 19 26 27
 -11787951.62649  -9185398.71248         0.00041  20988569.33248  20988568.49349
 -26114651.01849 -20349032.80248         0.00041  20356125.95148  20356125.51849
   -986028.25048   -768332.67045         0.00041  25156819.50245  25156818.12048
  -8895630.96108  -6931647.42308  22921005.59008  22921008.08608         0.00001
  -6947063.89348  -5413279.11745         0.00041  23964459.27345  23964456.68048
 -16656088.28348 -12978751.81046         0.00041  22345094.90846  22345094.11948
 -20755621.30548 -16173188.18047         0.00041  21603751.79447  21603750.88948
 94 02 20 01 00 00.0000000  0  7 02 07 09 13 19 26 27
 -11774232.23649  -9174708.26848         0.00041  20991179.91748  20991179.15149
 -26126694.03349 -20358416.95248         0.00041  20353834.55048  20353833.82849
  -1084843.93748   -845331.79345         0.00041  25138017.82145  25138013.95048
  -9003350.17808  -7015584.39408  22900507.18308  22900509.76008         0.00001
  -6852997.40448  -5339980.59845         0.00041  23982360.79245  23982357.19848
 -16661065.36648 -12982630.04246         0.00041  22344148.00646  22344147.07148
 -20679330.01548 -16113740.43047         0.00041  21618269.43147  21618268.62448
 94 02 20 01 00 30.0000000  0  7 02 07 09 13 19 26 27
 -11760354.73749  -9163894.62648         0.00041  20993820.89348  20993819.92549
 -26138265.97149 -20367434.02948         0.00041  20351632.24748  20351631.78749
  -1183730.57048   -922386.21045         0.00041  25119202.32945  25119196.46348
  -9110809.01008  -7099318.46308  22880058.38308  22880060.93708         0.00001
  -6758725.50148  -5266522.00345         0.00041  24000297.08245  24000296.40748
 -16665501.53948 -12986086.78846         0.00041  22343303.35346  22343302.89348
 -20602671.19048 -16054006.29047         0.00041  21632857.12547  21632856.40548
 94 02 20 01 01 00.0000000  0  7 02 07 09 13 19 26 27
 -11746300.62749  -9152943.36548         0.00041  20996495.31548  20996494.33949
 -26149329.38749 -20376054.85448         0.00041  20349527.04848  20349526.56749
  -1282658.33048   -999472.63445         0.00041  25100372.95445  25100371.00648
  -9217980.20708  -7182828.39408  22859664.30408  22859666.83608         0.00001
  -6664227.51348  -5192887.26345         0.00041  24018279.37045  24018278.90848
 -16669394.36648 -12989120.14746         0.00041  22342562.67946  22342562.13748
 -20525627.10248 -15993971.94547         0.00041  21647517.78447  21647517.28448
 94 02 20 01 01 30.0000000  0  7 02 07 09 13 19 26 27
 -11732087.06049  -9141867.85048         0.00041  20999199.99948  20999199.13849
 -26159891.79349 -20384285.28048         0.00041  20347517.03948  20347516.56849
  -1381615.07448  -1076581.68645         0.00041  25081542.42645  25081540.11948
  -9324871.38908  -7266120.12208  22839323.50808  22839326.11008         0.00001
  -6569540.55948  -5119105.24245         0.00041  24036301.27445  24036297.39248
 -16672769.36848 -12991750.00546         0.00041  22341920.42846  22341919.99548
 -20448209.77748 -15933646.77447         0.00041  21662250.16447  21662249.34248
 94 02 20 01 02 00.0000000  0  7 02 07 09 13 19 26 27
 -11717741.42749  -9130689.42948         0.00041  21001929.95748  21001929.04249
 -26169974.15749 -20392141.65148         0.00041  20345598.45848  20345598.00049
  -1480618.38348  -1153726.99445         0.00041  25062702.05345  25062700.39548
  -9431503.20708  -7349209.74308  22819032.04808  22819034.56608         0.00001
  -6474719.88548  -5045219.01245         0.00041  24054345.78945  24054340.84848
 -16675668.59348 -12994009.12346         0.00041  22341369.19146  22341368.33048
 -20370471.81548 -15873071.74747         0.00041  21677043.22747  21677042.39048
 94 02 20 01 02 30.0000000  0  7 02 07 09 13 19 26 27
 -11703204.31749  -9119361.80548         0.00041  21004696.24448  21004695.31049
 -26179512.71049 -20399574.26748         0.00041  20343783.28148  20343782.85049
  -1579615.11448  -1230867.17045         0.00041  25043865.37245  25043861.88248
  -9537817.00708  -7432051.55408  22798801.13208  22798803.65208         0.00001
  -6379721.53748  -4971194.38045         0.00041  24072423.14045  24072418.64648
 -16678040.29048 -12995857.18146         0.00041  22340917.68446  22340916.86948
 -20292375.59748 -15812217.56447         0.00041  21691904.69947  21691903.61548
 94 02 20 01 03 00.0000000  0  7 02 07 09 13 19 26 27
 -11688478.25149  -9107886.94348         0.00041  21007498.62248  21007497.59949
 -26188522.45049 -20406594.82348         0.00041  20342068.75048  20342068.22749
  -1678606.95648  -1308003.58545         0.00041  25025029.69045  25025023.96148
  -9643815.03408  -7514647.30608  22778630.27508  22778632.74908         0.00001
  -6284554.50848  -4897038.28245         0.00041  24090531.37145  24090528.47248
 -16679877.89148 -12997289.06546         0.00041  22340567.75746  22340567.19548
 -20213907.29748 -15751073.44747         0.00041  21706836.22747  21706835.57348
 94 02 20 01 03 30.0000000  0  7 02 07 09 13 19 26 27
 -11673562.29149  -9096264.11248         0.00041  21010336.87648  21010336.03949
 -26197039.12249 -20413231.17048         0.00041  20340447.85248  20340447.42049
  -1777613.71748  -1385151.58845         0.00041  25006187.27445  25006183.55648
  -9749506.55208  -7597004.21808  22758517.79808  22758520.24908         0.00001
  -6189229.39948  -4822759.03345         0.00041  24108671.47345  24108667.89448
 -16681169.31848 -12998295.35646         0.00041  22340321.77346  22340321.40348
 -20135071.72948 -15689643.14747         0.00041  21721838.17347  21721837.50648
 94 02 20 01 04 00.0000000  0  7 02 07 09 13 19 26 27
 -11658433.37049  -9084475.33948         0.00041  21013215.80248  21013214.87049
 -26205048.82349 -20419472.47248         0.00041  20338923.73548  20338923.23449
  -1876623.78548  -1462302.16545         0.00041  24987344.01445  24987342.29548
  -9854871.96208  -7679107.02208  22738467.28108  22738469.73308         0.00001
  -6093703.71748  -4748323.45145         0.00041  24126848.89245  24126846.22948
 -16681894.10848 -12998860.10946         0.00041  22340183.91346  22340183.57748
 -20055841.18148 -15627905.07047         0.00041  21736915.40947  21736914.57048
 94 02 20 01 04 30.0000000  0  7 02 07 09 13 19 26 27
 -11643144.19749  -9072561.69348         0.00041  21016125.13848  21016124.37749
 -26212595.36949 -20425352.87648         0.00041  20337487.74448  20337487.14149
  -1975672.57448  -1539482.91245         0.00041  24968497.53445  24968493.65748
  -9959948.82408  -7760984.97808  22718471.75708  22718474.11908         0.00001
  -5998011.44948  -4673758.06745         0.00041  24145058.74845  24145055.75248
 -16682074.50748 -12999000.66646         0.00041  22340149.56546  22340149.25548
 -19976234.36248 -15565873.79746         0.00041  21752064.19246  21752063.25348
 94 02 20 01 05 00.0000000  0  7 02 07 09 13 19 26 27
 -11627694.98549  -9060523.34348         0.00041  21019064.95148  21019064.22949
 -26219663.74949 -20430860.68248         0.00041  20336142.57048  20336142.09649
  -2074742.56948  -1616680.23445         0.00041  24949644.08245  24949641.32648
 -10064719.04408  -7842623.99708  22698534.55908  22698536.96908         0.00001
  -5902139.70548  -4599052.85245         0.00041  24163303.83345  24163299.70848
 -16681691.11548 -12998701.90146         0.00041  22340222.99946  22340222.16548
 -19896232.44648 -15503534.66246         0.00041  21767288.03946  21767287.07448
 94 02 20 01 05 30.0000000  0  7 02 07 09 13 19 26 27
 -11612092.73649  -9048365.74248         0.00041  21022033.97548  21022033.17849
 -26226240.01949 -20435985.02648         0.00041  20334891.23748  20334890.73049
  -2173834.66448  -1693894.69345         0.00041  24930785.98445  24930784.51948
 -10169183.81308  -7924025.00208  22678655.48308  22678657.86908         0.00001
  -5806096.40648  -4524213.94145         0.00041  24181578.06045  24181576.33648
 -16680760.93748 -12997977.07146         0.00041  22340399.74246  22340399.04748
 -19815856.86648 -15440904.35946         0.00041  21782582.89246  21782582.11748
 94 02 20 01 06 00.0000000  0  7 02 07 09 13 19 26 27
 -11596352.71449  -9036100.78848         0.00041  21025029.37048  21025028.55449
 -26232310.95849 -20440715.60748         0.00041  20333735.91748  20333735.42649
  -2272943.19448  -1771121.99745         0.00041  24911928.41545  24911924.83548
 -10273343.71508  -8005188.45108  22658834.41008  22658836.69508         0.00001
  -5709879.59648  -4449239.85945         0.00041  24199887.23445  24199885.59648
 -16679300.30948 -12996838.90646         0.00041  22340677.18046  22340676.98348
 -19735122.25548 -15377994.29846         0.00041  21797946.55446  21797945.51648
 94 02 20 01 06 30.0000000  0  7 02 07 09 13 19 26 27
 -11580461.35149  -9023717.90148         0.00041  21028053.34948  21028052.52849
 -26237851.05349 -20445032.54548         0.00041  20332681.57448  20332681.17849
  -2372043.74548  -1848343.05645         0.00041  24893068.76345  24893066.47548
 -10377174.65908  -8086095.57608  22639075.99908  22639078.26408         0.00001
  -5613473.16648  -4374118.00745         0.00041  24218236.20345  24218231.29448
 -16677285.77048 -12995269.11846         0.00041  22341060.77146  22341060.37248
 -19654021.49748 -15314798.92546         0.00041  21813379.14646  21813378.46448
 94 02 20 01 07 00.0000000  0  7 02 07 09 13 19 26 27
 -11564429.04549  -9011225.19248         0.00041  21031104.16948  21031103.37449
 -26242877.81249 -20448949.48248         0.00041  20331725.04348  20331724.50949
  -2471155.02248  -1925572.47645         0.00041  24874209.09645  24874206.00448
 -10480686.83008  -8166754.31108  22619378.22108  22619380.50708         0.00001
  -5516877.48948  -4298848.68445         0.00041  24236613.97345  24236612.87248
 -16674743.31448 -12993287.97646         0.00041  22341544.62746  22341544.23348
 -19572574.57648 -15251333.81246         0.00041  21828878.44246  21828877.42248
 94 02 20 01 07 30.0000000  0  7 02 07 09 13 19 26 27
 -11548238.63949  -8998609.28948         0.00041  21034185.12048  21034184.24749
 -26247387.12249 -20452463.21448         0.00041  20330866.90948  20330866.39549
  -2570253.96048  -2002792.28545         0.00041  24855350.75445  24855348.15948
 -10583859.47508  -8247148.49008  22599745.07608  22599747.28308         0.00001
  -5420072.07048  -4223415.95445         0.00041  24255036.50345  24255034.16348
 -16671649.85048 -12990877.47146         0.00041  22342133.30746  22342132.87048
 -19490761.78348 -15187583.60946         0.00041  21844446.60946  21844445.94248
 94 02 20 01 08 00.0000000  0  7 02 07 09 13 19 26 27
 -11531914.14449  -8985888.90648         0.00041  21037291.52648  21037290.68849
 -26251417.35749 -20455603.64948         0.00041  20330100.01548  20330099.53149
  -2669357.32548  -2080015.57746         0.00041  24836490.58146  24836489.46248
 -10686717.51308  -8327297.53308  22580171.73608  22580173.94608         0.00001
  -5323091.20048  -4147846.45745         0.00041  24273492.67545  24273489.31048
 -16668022.06048 -12988050.61846         0.00041  22342823.75146  22342823.16048
 -19408610.55248 -15123569.69846         0.00041  21860079.93746  21860078.69148
 94 02 20 01 08 30.0000000  0  7 02 07 09 13 19 26 27
 -11515466.01449  -8973072.18448         0.00041  21040421.66148  21040420.76849
 -26255003.02649 -20458397.67248         0.00041  20329417.60648  20329417.17949
  -2768486.43448  -2157258.96045         0.00041  24817627.29545  24817625.65848
 -10789276.02408  -8407213.18908  22560655.41208  22560657.66808         0.00001
  -5225959.34548  -4072159.39545         0.00041  24291974.63845  24291973.02348
 -16663887.50548 -12984828.89546         0.00041  22343610.41346  22343609.95648
 -19326134.52748 -15059302.69846         0.00041  21875773.88146  21875773.31648
 94 02 20 01 09 00.0000000  0  7 02 07 09 13 19 26 27
 -11498851.78749  -8960126.03548         0.00041  21043582.99048  21043582.21149
 -26258127.30749 -20460832.17148         0.00041  20328823.20548  20328822.72449
  -2867613.12348  -2234500.45045         0.00041  24798763.55145  24798762.31048
 -10891502.53308  -8486870.14408  22541202.30408  22541204.52508         0.00001
  -5128650.78848  -3996334.60645         0.00041  24310492.89745  24310490.01948
 -16659217.39448 -12981189.84246         0.00041  22344499.43446  22344498.70948
 -19243306.99948 -14994761.79346         0.00041  21891535.49346  21891535.02148
 94 02 20 01 09 30.0000000  0  7 02 07 09 13 19 26 27
 -11482056.50549  -8947038.80548         0.00041  21046779.13248  21046778.26749
 -26260784.53449 -20462902.73448         0.00041  20328317.46148  20328316.95549
  -2966736.64848  -2311739.45345         0.00041  24779901.75845  24779899.66748
 -10993394.71608  -8566266.58808  22521812.83908  22521815.04608         0.00001
  -5031178.24348  -3920382.00445         0.00041  24329040.99345  24329038.60048
 -16654013.27248 -12977134.68346         0.00041  22345489.19246  22345488.88048
 -19160124.78348 -14929944.51346         0.00041  21907364.96946  21907364.08348
 94 02 20 01 10 00.0000000  0  7 02 07 09 13 19 26 27
 -11465079.53349  -8933809.99948         0.00041  21050009.74448  21050008.81849
 -26262973.98049 -20464608.79348         0.00041  20327900.77548  20327900.45849
  -3065882.25448  -2388995.73745         0.00041  24761036.19645  24761032.89448
 -11094965.82908  -8645412.85508  22502484.43208  22502486.57908         0.00001
  -4933560.23848  -3844316.07445         0.00041  24347617.45545  24347614.33648
 -16648301.74948 -12972684.14746         0.00041  22346576.05746  22346575.85548
 -19076602.83048 -14864862.51046         0.00041  21923258.56746  21923257.80948
 94 02 20 01 10 30.0000000  0  7 02 07 09 13 19 26 27
 -11447918.02349  -8920437.39648         0.00041  21053275.40548  21053274.56849
 -26264682.23449 -20465939.89748         0.00041  20327575.82848  20327575.35449
  -3165059.50248  -2466276.61745         0.00041  24742163.59645  24742160.08248
 -11196206.87108  -8724301.92808  22483218.89208  22483221.03308         0.00001
  -4835790.72248  -3768132.12545         0.00041  24366223.15045  24366219.31148
 -16642077.02548 -12967833.69746         0.00041  22347760.90646  22347760.32848
 -18992729.20948 -14799506.47946         0.00041  21939219.62846  21939218.47348
 94 02 20 01 11 00.0000000  0  7 02 07 09 13 19 26 27
 -11430554.32949  -8906907.24148         0.00041  21056579.50948  21056578.73449
 -26265883.93849 -20466876.28648         0.00041  20327347.12148  20327346.66549
  -3264238.08648  -2543558.58745         0.00041  24723290.04045  24723287.11548
 -11297096.08508  -8802916.85008  22464020.29308  22464022.32608         0.00001
  -4737860.49848  -3691822.88845         0.00041  24384858.46045  24384855.22248
 -16635310.59248 -12962561.14946         0.00041  22349048.50346  22349047.94848
 -18908478.83448 -14733856.86646         0.00041  21955251.56446  21955250.86548
 94 02 20 01 11 30.0000000  0  7 02 07 09 13 19 26 27
 -11413028.52349  -8893250.77048         0.00041  21059914.70548  21059913.85949
 -26266599.62749 -20467433.95948         0.00041  20327210.75648  20327210.30249
  -3363435.81848  -2620855.43445         0.00041  24704411.27145  24704410.48348
 -11397661.31108  -8881279.31108  22444883.29908  22444885.44008         0.00001
  -4639805.10048  -3615416.19245         0.00041  24403517.22945  24403514.43348
 -16628043.11748 -12956898.17946         0.00041  22350430.99946  22350430.87948
 -18823879.76248 -14667935.54446         0.00041  21971350.46446  21971349.46048
 94 02 20 01 12 00.0000000  0  7 02 07 09 13 19 26 27
 -11395342.89249  -8879469.75348         0.00041  21063280.20348  21063279.25949
 -26266823.55249 -20467608.43748         0.00041  20327167.95448  20327167.57549
  -3462629.63948  -2698149.23345         0.00041  24685537.99045  24685534.35348
 -11497888.12008  -8959378.06708  22425810.75408  22425812.81308         0.00001
  -4541608.03548  -3538899.05845         0.00041  24422203.47445  24422200.27848
 -16620265.40748 -12950837.61546         0.00041  22351911.51146  22351910.93048
 -18738940.37448 -14601749.03846         0.00041  21987513.75546  21987512.85048
 94 02 20 01 12 30.0000000  0  7 02 07 09 13 19 26 27
 -11377490.16149  -8865558.53448         0.00041  21066677.50548  21066676.60249
 -26266544.36349 -20467390.87548         0.00041  20327221.26648  20327220.72249
  -3561782.87548  -2775411.41445         0.00041  24666669.82245  24666665.80448
 -11597750.11108  -9037192.54808  22406807.57508  22406809.69508         0.00001
  -4443242.83548  -3462250.91045         0.00041  24440923.86745  24440918.94548
 -16611959.69848 -12944365.62946         0.00041  22353491.85946  22353491.31448
 -18653643.83048 -14535284.22946         0.00041  22003745.30646  22003744.32948
 94 02 20 01 13 00.0000000  0  7 02 07 09 13 19 26 27
 -11359472.45949  -8851518.76548         0.00041  21070106.20348  21070105.25549
 -26265763.76649 -20466782.60848         0.00041  20327369.81048  20327369.37449
  -3660874.41948  -2852625.48345         0.00041  24647812.63145  24647809.22948
 -11697239.22808  -9114716.47408  22387875.39808  22387877.46008         0.00001
  -4344701.91848  -3385465.86245         0.00041  24459670.83445  24459671.09948
 -16603125.95848 -12937482.18646         0.00041  22355173.63146  22355172.34648
 -18567991.74548 -14468542.39446         0.00041  22020044.29846  22020043.32148
 94 02 20 01 13 30.0000000  0  7 02 07 09 13 19 26 27
 -11341310.36349  -8837366.48248         0.00041  21073562.11348  21073561.34949
 -26264492.14749 -20465791.72548         0.00041  20327611.86548  20327611.34149
  -3759944.22348  -2929822.65646         0.00041  24628958.62546  24628956.82848
 -11796375.98008  -9191965.83108  22369010.20708  22369012.26308         0.00001
  -4246002.73648  -3308557.43445         0.00041  24478456.83045  24478452.69448
 -16593783.67048 -12930202.47946         0.00041  22356950.71946  22356950.09048
 -18482018.63948 -14401550.39746         0.00041  22036404.52946  22036403.45648
 94 02 20 01 14 00.0000000  0  7 02 07 09 13 19 26 27
 -11323006.85349  -8823104.00648         0.00041  21077045.11048  21077044.42249
 -26262735.44849 -20464422.85748         0.00041  20327945.99748  20327945.61049
  -3858998.35048  -3007007.57145         0.00041  24610109.45245  24610107.59648
 -11895154.69808  -9268936.20008  22350213.22208  22350215.24408         0.00001
  -4147142.14048  -3231523.30345         0.00041  24497267.61745  24497265.14448
 -16583913.08448 -12922511.11546         0.00041  22358828.89346  22358828.39148
 -18395708.23348 -14334295.57146         0.00041  22052829.17746  22052827.87148
 94 02 20 01 14 30.0000000  0  7 02 07 09 13 19 26 27
 -11304579.51449  -8808745.04248         0.00041  21080551.90548  21080551.07249
 -26260511.37949 -20462689.80448         0.00041  20328369.10548  20328368.70949
  -3958053.27148  -3084193.13545         0.00041  24591260.99145  24591258.08848
 -11993589.79408  -9345638.81108  22331481.58208  22331483.64408         0.00001
  -4048137.78748  -3154377.06145         0.00041  24516108.56745  24516105.20448
 -16573525.51248 -12914416.90746         0.00041  22360805.61946  22360804.95348
 -18309058.26048 -14266776.14646         0.00041  22069317.41046  22069316.75348
 94 02 20 01 15 00.0000000  0  7 02 07 09 13 19 26 27
 -11285991.42249  -8794260.82248         0.00041  21084089.11648  21084088.29249
 -26257790.05649 -20460569.28348         0.00041  20328887.05148  20328886.56949
  -4057087.11448  -3161362.28446         0.00041  24572413.93946  24572412.49848
 -12091649.88608  -9422049.21308  22312821.35908  22312823.33808         0.00001
  -3948961.37248  -3077096.83645         0.00041  24534982.51645  24534977.90048
 -16562588.94748 -12905894.92146         0.00041  22362887.11546  22362886.23048
 -18222037.27548 -14198967.61346         0.00041  22085876.87946  22085876.31948
 94 02 20 01 15 30.0000000  0  7 02 07 09 13 19 26 27
 -11267235.69849  -8779645.97848         0.00041  21087658.12548  21087657.31549
 -26254575.28149 -20458064.25448         0.00041  20329498.88248  20329498.38149
  -4156103.58348  -3238517.89245         0.00041  24553571.57345  24553569.99248
 -12189331.21708  -9498164.47308  22294233.13908  22294235.08708         0.00001
  -3849616.48548  -2999685.30545         0.00041  24553887.26445  24553882.90748
 -16551103.31348 -12896945.08346         0.00041  22365072.37346  22365071.78648
 -18134651.31748 -14130874.68846         0.00041  22102506.56546  22102505.35148
 94 02 20 01 16 00.0000000  0  7 02 07 09 13 19 26 27
 -11248359.06949  -8764936.92548         0.00041  21091250.22848  21091249.49849
 -26250935.40349 -20455227.97748         0.00041  20330191.42048  20330190.96949
  -4255126.42848  -3315678.47445         0.00041  24534729.80445  24534726.58148
 -12286676.48608  -9574017.86608  22275708.89008  22275710.90908         0.00001
  -3750142.32448  -2922173.04545         0.00041  24572815.97145  24572812.27948
 -16539127.59148 -12887613.35246         0.00041  22367351.20446  22367350.60048
 -18046947.56948 -14062534.14046         0.00041  22119196.09246  22119194.77148
 94 02 20 01 16 30.0000000  0  7 02 07 09 13 19 26 27
 -11229330.53349  -8750109.49848         0.00041  21094871.26648  21094870.49949
 -26246843.39049 -20452039.38948         0.00041  20330970.26648  20330969.79549
  -4354131.52648  -3392825.23045         0.00041  24515890.12545  24515886.61148
 -12383665.78208  -9649593.87608  22257252.38708  22257254.37208         0.00001
  -3650533.56848  -2844555.89145         0.00041  24591769.45545  24591766.94048
 -16526662.40248 -12877900.22946         0.00041  22369723.81646  22369722.86248
 -17958937.68948 -13993955.04346         0.00041  22135943.35746  22135942.48548
 94 02 20 01 17 00.0000000  0  7 02 07 09 13 19 26 27
 -11210115.17649  -8735136.49848         0.00041  21098527.83448  21098527.04349
 -26242280.86849 -20448484.17348         0.00041  20331838.44548  20331838.05249
  -4453103.57348  -3469946.24845         0.00041  24497056.05545  24497052.86048
 -12480276.18408  -9724874.64708  22238867.96608  22238869.91008         0.00001
  -3550783.97848  -2766828.98845         0.00041  24610751.28945  24610748.26848
 -16513680.26448 -12867784.29446         0.00041  22372193.88946  22372193.34848
 -17870610.65848 -13925128.81846         0.00041  22152751.83946  22152750.68948
 94 02 20 01 17 30.0000000  0  7 02 07 09 13 19 26 27
 -11190722.19849  -8720025.09248         0.00041  21102218.18448  21102217.44349
 -26237250.16149 -20444564.13648         0.00041  20332795.70148  20332795.31749
  -4552030.99548  -3547032.48845         0.00041  24478229.09345  24478227.48548
 -12576504.36208  -9799857.58708  22220556.34308  22220558.29808         0.00001
  -3450890.15448  -2688989.67845         0.00041  24629763.03245  24629757.33448
 -16500179.98048 -12857264.59846         0.00041  22374763.14346  22374762.41348
 -17781969.09848 -13856057.49946         0.00041  22169619.30346  22169618.65848
 94 02 20 01 18 00.0000000  0  7 02 07 09 13 19 26 27
 -11171169.43149  -8704789.17948         0.00041  21105938.88248  21105938.25849
 -26231753.24549 -20440280.82048         0.00041  20333841.60248  20333841.19549
  -4650927.73348  -3624094.81045         0.00041  24459410.13745  24459407.89948
 -12672365.94508  -9874554.86808  22202314.45108  22202316.35908         0.00001
  -3350866.29748  -2611049.04645         0.00041  24648794.48945  24648791.99348
 -16486183.65448 -12846358.38146         0.00041  22377426.12746  22377425.77848
 -17693024.11748 -13786749.75746         0.00041  22186545.11346  22186544.40848
 94 02 20 01 18 30.0000000  0  7 02 07 09 13 19 26 27
 -11151427.45949  -8689405.83448         0.00041  21109695.76548  21109695.04149
 -26225758.73849 -20435609.77048         0.00041  20334982.37448  20334982.02449
  -4749786.92948  -3701127.89545         0.00041  24440598.34245  24440595.34448
 -12767835.65508  -9948946.79608  22184147.11508  22184148.99908         0.00001
  -3250703.59848  -2533000.22445         0.00041  24667854.91145  24667852.63148
 -16471665.77648 -12835045.75246         0.00041  22380188.59646  22380188.22948
 -17603750.60648 -13717186.01846         0.00041  22203533.72846  22203532.53548
 94 02 20 01 19 00.0000000  0  7 02 07 09 13 19 26 27
 -11131527.41749  -8673899.31148         0.00041  21113482.71548  21113481.88849
 -26219299.04849 -20430576.23948         0.00041  20336211.80648  20336211.31149
  -4848636.92348  -3778153.76645         0.00041  24421786.62645  24421784.80248
 -12862940.01808 -10023054.03908  22166049.36808  22166051.18908         0.00001
  -3150415.74248  -2454853.87145         0.00041  24686938.60845  24686936.52948
 -16456646.93848 -12823342.76746         0.00041  22383047.03946  22383046.37248
 -17514161.01048 -13647375.97446         0.00041  22220582.36746  22220580.97948
 94 02 20 01 19 30.0000000  0  7 02 07 09 13 19 26 27
 -11111457.12149  -8658260.12348         0.00041  21117301.97548  21117301.15249
 -26212353.94049 -20425164.46148         0.00041  20337533.28948  20337532.82749
  -4947457.57348  -3855156.79046         0.00041  24402981.68146  24402980.02648
 -12957663.23708 -10096864.28808  22148024.06308  22148025.89008         0.00001
  -3049989.24548  -2376599.49745         0.00041  24706049.15545  24706046.50748
 -16441128.87748 -12811250.78346         0.00041  22385999.70946  22385999.42448
 -17424252.60148 -13577317.51146         0.00041  22237690.98846  22237690.05548
 94 02 20 01 20 00.0000000  0  7 02 07 09 13 19 26 27
 -11091211.75349  -8642484.51748         0.00041  21121154.42248  21121153.66149
 -26204936.00549 -20419384.24748         0.00041  20338945.02448  20338944.49649
  -5046260.57248  -3932146.04645         0.00041  24384178.65045  24384178.33348
 -13052013.99108 -10170384.30308  22130069.68208  22130071.58408         0.00001
  -2949462.13448  -2298266.70345         0.00041  24725179.64945  24725175.84548
 -16425123.09448 -12798778.74846         0.00041  22389045.60146  22389045.18348
 -17334039.98648 -13507021.99846         0.00041  22254857.88146  22254856.92148
 94 02 20 01 20 30.0000000  0  7 02 07 09 13 19 26 27
 -11070772.13149  -8626557.54548         0.00041  21125043.91948  21125043.11349
 -26197043.44349 -20413234.19548         0.00041  20340446.78848  20340446.28449
  -5145020.84648  -4009101.99945         0.00041  24365386.45545  24365384.72048
 -13145966.08108 -10243593.66908  22112191.15708  22112193.02008         0.00001
  -2848817.16548  -2219842.06845         0.00041  24744331.60345  24744328.04648
 -16408590.53748 -12785896.24546         0.00041  22392191.68946  22392191.28048
 -17243504.28748 -13436474.73146         0.00041  22272086.08546  22272085.34448
 94 02 20 01 21 00.0000000  0  7 02 07 09 13 19 26 27
 -11050143.27149  -8610483.11448         0.00041  21128969.58348  21128968.71849
 -26188666.76449 -20406706.90848         0.00041  20342040.77748  20342040.32149
  -5243711.65148  -4086003.82145         0.00041  24346606.26045  24346604.64848
 -13239506.00208 -10316481.86508  22094391.06908  22094392.88308         0.00001
  -2748035.71648  -2141311.10645         0.00041  24763508.71145  24763506.66248
 -16391519.60248 -12772594.22246         0.00041  22395440.51346  22395439.86648
 -17152641.34748 -13365672.47146         0.00041  22289376.60246  22289375.85448
 94 02 20 01 21 30.0000000  0  6 02 07 09 13 19 27
 -11029344.33449  -8594276.15348         0.00041  21132927.40248  21132926.57349
 -26179820.25249 -20399813.51648         0.00041  20343724.26548  20343723.75649
  -5342339.35048  -4162856.47245         0.00041  24327837.61445  24327836.29448
 -13332638.06008 -10389052.24708  22076668.60208  22076670.42208         0.00001
  -2647125.08648  -2062679.47645         0.00041  24782711.75745  24782709.52948
 -17061460.66148 -13294622.60946         0.00041  22306727.87246  22306727.03948
 94 02 20 01 22 00.0000000  0  7 02 07 09 12 13 19 27
 -11008406.28949  -8577960.79248         0.00041  21136911.78148  21136910.90249
 -26170521.33949 -20392567.60748         0.00041  20345493.73148  20345493.27349
  -5440922.72848  -4239674.58546         0.00041  24309077.54346  24309076.39248
        -0.17317        -0.61916  25163785.90217  25163790.84816         0.00011
 -13425372.66008 -10461312.91908  22059021.72308  22059023.48308         0.00001
  -2546077.06448  -1983940.74445         0.00041  24801941.15645  24801938.64048
 -16969962.24848 -13223325.18346         0.00041  22324140.23046  22324138.75648
 94 02 20 01 22 30.0000000  0  7 02 07 09 12 13 19 27
 -10987271.11249  -8561491.82448         0.00041  21140933.62648  21140932.78949
 -26160706.02549 -20384919.30648         0.00041  20347361.61348  20347361.09149
  -5539411.38948  -4316418.88445         0.00041  24290337.35745  24290334.59648
    -87206.23807    -67953.23806  25147191.01407  25147195.61006         0.00001
 -13517651.19908 -10533218.21708  22041461.64608  22041463.42408         0.00001
  -2444810.06048  -1905031.40345         0.00041  24821214.21845  24821209.32548
 -16878089.96248 -13151736.42146         0.00041  22341622.37446  22341621.29948
 94 02 20 01 23 00.0000000  0  7 02 07 09 12 13 19 27
 -10966026.34949  -8544937.46648         0.00041  21144976.51248  21144975.55349
 -26150457.09449 -20376933.12148         0.00041  20349311.92548  20349311.42249
  -5637898.51248  -4393162.01545         0.00041  24271594.70845  24271593.08248
   -174535.17207   -136001.62606  25130572.61807  25130577.24206         0.00001
 -13609567.97508 -10604841.62208  22023970.43608  22023972.20908         0.00001
  -2343421.45448  -1826027.29945         0.00041  24840505.79845  24840502.35848
 -16785937.08748 -13079929.01146         0.00041  22359158.76646  22359157.43748
 94 02 20 01 23 30.0000000  0  7 02 07 09 12 13 19 27
 -10944677.96249  -8528302.35948         0.00041  21149038.86348  21149038.04949
 -26139796.01149 -20368625.78048         0.00041  20351340.68848  20351340.05849
  -5736415.03948  -4469928.05145         0.00041  24252846.01945  24252846.00248
   -262006.16907   -204160.75407  25113927.48007  25113932.06007         0.00001
 -13701140.75808 -10676196.98008  22006544.65308  22006546.45208         0.00001
  -2241937.60648  -1746949.00245         0.00041  24859816.98045  24859813.30048
 -16693515.03148 -13007911.88546         0.00041  22376745.98446  22376744.70348
 94 02 20 01 24 00.0000000  0  7 02 07 09 12 13 19 27
 -10923135.91349  -8511516.35148         0.00041  21153138.07148  21153137.38949
 -26128642.77049 -20359934.94248         0.00041  20353462.91548  20353462.33949
  -5834881.65848  -4546655.21445         0.00041  24234108.55545  24234108.33248
   -349543.94607   -272371.94707  25097269.58707  25097274.13607         0.00001
 -13792292.64508 -10747224.36608  21989198.97008  21989200.74908         0.00001
  -2140300.99648  -1667751.66145         0.00041  24879156.50545  24879153.87348
 -16600754.21048 -12935630.74246         0.00041  22394397.76046  22394396.62848
 94 02 20 01 24 30.0000000  0  7 02 07 09 12 13 19 27
 -10901418.48649  -8494593.68448         0.00041  21157270.89948  21157270.07349
 -26117031.35949 -20350887.08848         0.00041  20355672.64148  20355672.06049
  -5933318.22848  -4623358.99245         0.00041  24215378.12645  24215376.46148
   -437178.37208   -340658.47007  25080593.30408  25080598.00807         0.00001
 -13883051.93208 -10817945.83108  21971928.03908  21971929.74308         0.00001
  -2038564.55948  -1588476.54245         0.00041  24898516.66445  24898514.23348
 -16507696.14748 -12863118.00546         0.00041  22412105.67446  22412104.98748
 94 02 20 01 25 00.0000000  0  7 02 07 09 12 13 19 27
 -10879537.45449  -8477543.53448         0.00041  21161434.70448  21161433.96449
 -26104967.05649 -20341486.33048         0.00041  20357968.35148  20357967.82349
  -6031710.86848  -4700028.47846         0.00041  24196653.49146  24196652.92748
   -524901.59907   -409014.19807  25063900.07807  25063904.73707         0.00001
 -13973409.28808 -10888354.10308  21954733.47108  21954735.26808         0.00001
  -1936733.36448  -1509127.56645         0.00041  24917893.70545  24917892.80348
 -16414339.05548 -12790372.27046         0.00041  22429871.81346  22429870.39448
 94 02 20 01 25 30.0000000  0  7 02 07 09 12 13 19 27
 -10857461.56549  -8460341.54748         0.00041  21165635.76548  21165634.88849
 -26092417.83949 -20331707.71548         0.00041  20360356.24248  20360355.77049
  -6130010.81148  -4776625.74545         0.00041  24177949.84145  24177946.73648
   -612671.83708   -477406.54907  25047197.91808  25047202.48007         0.00001
 -14063321.37608 -10958415.41408  21937623.74908  21937625.51208         0.00001
  -1834771.62348  -1429676.82545         0.00041  24937299.72545  24937295.89448
 -16320648.48548 -12717366.66646         0.00041  22447700.47746  22447699.07348
 94 02 20 01 26 00.0000000  0  7 02 07 09 12 13 19 27
 -10835257.52549  -8443039.69748         0.00041  21169860.96848  21169860.15949
 -26079438.57449 -20321593.99848         0.00041  20362826.22948  20362825.73149
  -6228255.18148  -4853179.70445         0.00041  24159251.87545  24159251.31548
   -700540.75208   -545875.77407  25030476.99908  25030481.53307         0.00001
 -14152838.34708 -11028168.84308  21920589.21808  21920590.95708         0.00001
  -1732735.67748  -1350168.27945         0.00041  24956715.18345  24956712.92148
 -16226687.97048 -12644150.70546         0.00041  22465580.64646  22465579.11748
 94 02 20 01 26 30.0000000  0  7 02 07 09 12 13 19 27
 -10812893.68849  -8425613.34148         0.00041  21174116.64648  21174115.84749
 -26065995.02349 -20311118.49848         0.00041  20365384.43448  20365384.04849
  -6326408.78048  -4929662.93746         0.00041  24140575.82046  24140573.24648
   -788468.56308   -614390.88707  25013744.77408  25013749.31907         0.00001
 -14241918.97508 -11097582.26608  21903637.73408  21903639.42708         0.00001
  -1630588.14548  -1270572.77645         0.00041  24976152.46445  24976150.87048
 -16132417.96248 -12570693.60846         0.00041  22483519.53146  22483518.08248
 94 02 20 01 27 00.0000000  0  7 02 07 09 12 13 19 27
 -10790350.48149  -8408047.20948         0.00041  21178406.54048  21178405.72649
 -26052080.70049 -20300276.16548         0.00041  20368032.20448  20368031.76949
  -6424461.18548  -5006067.31646         0.00041  24121915.93746  24121914.60848
   -876438.74108   -682938.98207  24997004.56208  24997009.13407         0.00001
 -14330545.53708 -11166641.87308  21886772.60408  21886774.27008         0.00001
  -1528308.83548  -1190874.61445         0.00041  24995616.66745  24995613.64748
 -16037817.04748 -12496978.65046         0.00041  22501521.69846  22501520.07348
 94 02 20 01 27 30.0000000  0  7 02 07 09 12 13 19 27
 -10767642.80649  -8390352.92148         0.00041  21182727.65848  21182726.82549
 -26037719.94249 -20289085.95748         0.00041  20370765.06348  20370764.52249
  -6522435.68348  -5082410.97745         0.00041  24103271.31045  24103270.78348
   -964476.56108   -751539.77907  24980251.48208  24980255.88507         0.00001
 -14418741.51908 -11235365.96508  21869989.40308  21869991.12008         0.00001
  -1425925.98748  -1111095.72745         0.00041  25015099.49145  25015096.10948
 -15942902.55348 -12423019.32446         0.00041  22519583.10446  22519581.80348
 94 02 20 01 28 00.0000000  0  7 02 07 09 12 13 19 27
 -10744769.93349  -8372529.90648         0.00041  21187080.14848  21187079.30249
 -26022922.34449 -20277555.35748         0.00041  20373580.72848  20373580.34449
  -6620350.33148  -5158708.01246         0.00041  24084640.45246  24084638.13048
  -1052585.26408   -820195.81007  24963485.02008  24963489.34107         0.00001
 -14506508.96408 -11303756.13408  21853287.79508  21853289.52408         0.00001
  -1323445.43348  -1031240.73545         0.00041  25034600.77545  25034597.05148
 -15847677.12248 -12348817.71346         0.00041  22537704.44646  22537702.77648
 94 02 20 01 28 30.0000000  0  7 02 07 09 12 13 19 27
 -10721710.37149  -8354561.41748         0.00041  21191468.10448  21191467.38049
 -26007687.71149 -20265684.21048         0.00041  20376479.93848  20376479.43349
  -6718210.65148  -5234962.69946         0.00041  24066016.56946  24066015.72048
  -1140763.85508   -888906.29307  24946704.95908  24946709.42407         0.00001
 -14593845.66908 -11371810.66208  21836668.13208  21836669.80208         0.00001
  -1220858.00448   -951302.47645         0.00041  25054123.10445  25054118.33148
 -15752143.27348 -12274375.78046         0.00041  22555883.42746  22555882.25348
 94 02 20 01 29 00.0000000  0  7 02 07 09 12 13 19 27
 -10698471.06549  -8336452.87048         0.00041  21195890.67348  21195889.67749
 -25992030.89649 -20253484.09048         0.00041  20379459.38548  20379458.87749
  -6816010.36648  -5311170.17046         0.00041  24047407.30446  24047405.11048
  -1229016.19408   -957674.23007  24929910.98308  24929915.46607         0.00001
 -14680753.81808 -11439531.25108  21820130.02008  21820131.70608         0.00001
  -1118158.25648   -871276.65945         0.00041  25073665.67045  25073661.46848
 -15656312.88348 -12199702.78246         0.00041  22574119.40246  22574118.06848
 94 02 20 01 29 30.0000000  0  7 02 07 09 12 13 19 27
 -10675064.84749  -8318214.25948         0.00041  21200344.74048  21200343.71849
 -25975960.40849 -20240961.63048         0.00041  20382517.43848  20382516.97649
  -6913750.99148  -5387331.58146         0.00041  24028806.67146  24028805.66048
  -1317348.98008  -1026504.84607  24913101.72608  24913106.23507         0.00001
 -14767238.99708 -11506922.25608  21803672.40908  21803674.05208         0.00001
  -1015358.09248   -791172.66445         0.00041  25093226.04245  25093223.55748
 -15560199.09948 -12124808.96446         0.00041  22592409.26046  22592408.02848
 94 02 20 01 30 00.0000000  0  7 02 07 09 12 13 19 27
 -10651463.16649  -8299823.34148         0.00041  21204835.75848  21204834.95549
 -25959441.93349 -20228090.09048         0.00041  20385660.73648  20385660.26949
  -7011412.97248  -5463431.73746         0.00041  24010221.00246  24010221.06148
  -1405737.63108  -1095378.99207  24896281.78008  24896286.22407         0.00001
 -14853275.50408 -11573963.64708  21787300.18808  21787301.80008         0.00001
   -912424.51348   -710964.65745         0.00041  25112815.85845  25112811.51448
 -15463793.21448 -12049687.51646         0.00041  22610754.62846  22610753.37648
 94 02 20 01 30 30.0000000  0  7 02 07 09 12 13 19 27
 -10627687.08249  -8281296.52048         0.00041  21209360.17448  21209359.38949
 -25942480.52849 -20214873.41148         0.00041  20388888.51748  20388888.04149
  -7109000.29048  -5539473.73746         0.00041  23991654.02046  23991650.61148
  -1494198.87908  -1164309.71007  24879448.13708  24879452.60007         0.00001
 -14938878.60508 -11640667.32408  21771010.42208  21771012.04408         0.00001
   -809363.10348   -630657.03845         0.00041  25132425.90745  25132423.70248
 -15367116.82148 -11974355.31046         0.00041  22629152.06746  22629150.53148
 94 02 20 01 31 00.0000000  0  7 02 07 09 12 13 19 27
 -10603771.99149  -8262661.38848         0.00041  21213911.19148  21213910.36049
 -25925082.09549 -20201316.18748         0.00041  20392199.22148  20392198.80249
  -7206509.30948  -5615454.69046         0.00041  23973097.49646  23973095.22748
  -1582736.82808  -1233300.20607  24862599.94408  24862604.24407         0.00001
 -15024051.10908 -11707035.47008  21754802.62908  21754804.16508         0.00001
   -706196.42148   -550267.39045         0.00041  25152058.13445  25152055.88648
 -15270166.43348 -11898809.58446         0.00041  22647600.66446  22647599.61748
 94 02 20 01 31 30.0000000  0  7 02 07 09 12 13 19 27
 -10579724.73249  -8243923.26648         0.00041  21218487.02448  21218486.34549
 -25907233.95449 -20187408.54548         0.00041  20395595.39448  20395595.03849
  -7303951.76648  -5691383.79746         0.00041  23954552.06746  23954552.56448
  -1671357.32408  -1302355.01907  24845736.07708  24845740.20507         0.00001
 -15108797.68408 -11773071.72408  21738675.86208  21738677.45308         0.00001
   -602939.85148   -469807.69045         0.00041  25171710.02245  25171705.33448
 -15172946.46348 -11823053.79946         0.00041  22666101.05246  22666099.95848
 94 02 20 01 32 00.0000000  0  7 02 07 09 12 13 19 27
 -10555535.41549  -8225074.45148         0.00041  21223090.12548  21223089.39849
 -25888917.58249 -20173136.04648         0.00041  20399080.98848  20399080.64649
  -7401316.38248  -5767252.26546         0.00041  23936025.63146  23936024.56248
  -1760049.05608  -1371465.34107  24828858.40308  24828862.61907         0.00001
 -15193106.13608 -11838766.58508  21722632.44908  21722634.00908         0.00001
   -499595.07048   -389279.27745         0.00041  25191376.22245  25191371.57748
 -15075448.09548 -11747081.06046         0.00041  22684654.42246  22684653.20748
 94 02 20 01 32 30.0000000  0  7 02 07 09 12 13 19 27
 -10531202.05849  -8206113.39548         0.00041  21227720.73648  21227719.95849
 -25870154.85449 -20158515.74048         0.00041  20402651.57448  20402651.16049
  -7498591.79148  -5843051.19946         0.00041  23917515.63246  23917513.70648
  -1848808.83808  -1440628.69807  24811968.07508  24811972.10807         0.00001
 -15276971.74608 -11904116.37308  21706673.35108  21706674.85308         0.00001
   -396175.83348   -308692.82445         0.00041  25211054.04745  25211051.72048
 -14977675.90348 -11670894.96846         0.00041  22703259.69546  22703258.59548
 94 02 20 01 33 00.0000000  0  7 02 07 09 12 13 19 27
 -10506696.71249  -8187018.31748         0.00041  21232383.99148  21232383.12249
 -25850943.86249 -20143546.13848         0.00041  20406307.23948  20406306.84749
  -7595771.32948  -5918775.45546         0.00041  23899021.54446  23899021.00848
  -1937620.31408  -1509832.34507  24795067.66808  24795071.62507         0.00001
 -15360377.19708 -11969107.59408  21690801.79308  21690803.31108         0.00001
   -292674.90548   -228042.69845         0.00041  25230750.97045  25230747.50048
 -14879623.69948 -11594490.69546         0.00041  22721918.81746  22721917.33848
 94 02 20 01 33 30.0000000  0  7 02 07 09 12 13 19 27
 -10481986.59649  -8167763.67848         0.00041  21237086.17448  21237085.28349
 -25831277.38049 -20128221.60648         0.00041  20410049.69048  20410049.31549
  -7692857.83348  -5994427.20946         0.00041  23880549.22646  23880545.97448
  -2026477.77508  -1579071.84807  24778158.65008  24778162.51307         0.00001
 -15443315.84508 -12033735.07708  21675019.03808  21675020.57908         0.00001
   -189078.60548   -147318.28745         0.00041  25250467.26645  25250460.87748
 -14781293.84548 -11517870.06146         0.00041  22740630.29446  22740628.94748
 94 02 20 01 34 00.0000000  0  7 02 07 09 12 13 19 27
 -10457079.46349  -8148355.52248         0.00041  21241825.79748  21241824.98749
 -25811187.46749 -20112567.12748         0.00041  20413872.73148  20413872.27449
  -7789856.58448  -6070010.61346         0.00041  23862089.87046  23862087.75148
  -2115390.57208  -1648354.47307  24761239.00208  24761242.82207         0.00001
 -15525795.79908 -12098005.13908  21659323.60808  21659325.09808         0.00001
    -85388.11448    -66520.45344         0.00041  25270196.09844  25270192.46248
 -14682704.52448 -11441047.23946         0.00041  22759391.59846  22759389.96648
 94 02 20 01 34 30.0000000  0  7 02 07 09 12 13 19 27
 -10431964.26149  -8128785.23548         0.00041  21246604.97648  21246604.20249
 -25790669.18549 -20096578.85648         0.00041  20417777.32748  20417776.76649
  -7886753.43448  -6145514.58246         0.00041  23843650.86146  23843648.84548
  -2204345.63608  -1717670.05707  24744311.41108  24744315.20107         0.00001
 -15607803.02808 -12161906.84408  21643718.11508  21643719.64908         0.00001
     18429.42748     14376.40245         0.00041  25289949.93845  25289948.12948
 -14583842.61448 -11364012.02146         0.00041  22778203.67046  22778202.68448
 94 02 20 01 35 00.0000000  0  7 02 07 09 12 13 19 27
 -10406678.01149  -8109081.66148         0.00041  21251416.83648  21251416.11949
 -25769736.90249 -20080267.98448         0.00041  20421760.58148  20421760.08349
  -7983568.75348  -6220955.03946         0.00041  23825226.79146  23825225.39148
  -2293370.02008  -1787039.66307  24727370.58808  24727374.30107         0.00001
 -15689363.64708 -12225460.54308  21628197.61808  21628199.15908         0.00001
    122343.80948     95348.68945         0.00041  25309726.37245  25309722.46548
 -14484715.46848 -11286770.12646         0.00041  22797067.69146  22797066.10248
 94 02 20 01 35 30.0000000  0  7 02 07 09 12 13 19 27
 -10381214.44149  -8089239.91848         0.00041  21256262.47848  21256261.63049
 -25748382.70149 -20063628.35248         0.00041  20425824.12248  20425823.56149
  -8080282.83948  -6296316.61946         0.00041  23806823.65846  23806821.28348
  -2382453.12708  -1856455.03007  24710418.51108  24710422.24407         0.00001
 -15770465.87808 -12288657.05908  21612764.33208  21612765.89008         0.00001
    226350.44348    176392.83044         0.00041  25329515.87344  25329514.59348
 -14385301.88248 -11209305.02446         0.00041  22815985.30046  22815983.63448
 94 02 20 01 36 00.0000000  0  7 02 07 09 12 13 19 27
 -10355581.61449  -8069266.28948         0.00041  21261140.18448  21261139.40449
 -25726621.05649 -20046671.22548         0.00041  20429965.06748  20429964.64749
  -8176896.96648  -6371600.29446         0.00041  23788439.14946  23788436.18648
  -2471604.18808  -1925923.33407  24693453.48208  24693457.35707         0.00001
 -15851118.26308 -12351503.04408  21597416.67808  21597418.22708         0.00001
    330435.25848    257497.85044         0.00041  25349325.59344  25349320.55348
 -14285611.21448 -11131624.02346         0.00041  22834956.00546  22834954.17748
 94 02 20 01 36 30.0000000  0  7 02 07 09 12 13 19 27
 -10329767.89249  -8049151.69848         0.00041  21266052.38248  21266051.62049
 -25704437.49149 -20029385.33048         0.00041  20434186.62848  20434186.01649
  -8273408.93348  -6446804.38446         0.00041  23770072.70046  23770070.53848
  -2560818.20308  -1995440.68507  24676476.61208  24676480.52607         0.00001
 -15931314.77308 -12413993.80108  21582155.79208  21582157.29508         0.00001
    434587.64048    338655.56144         0.00041  25369137.16244  25369140.22748
 -14185631.14748 -11053717.50346         0.00041  22853980.76746  22853979.82048
 94 02 20 01 37 00.0000000  0  7 02 07 09 12 13 19 27
 -10303773.41849  -8028896.26448         0.00041  21270998.83348  21270998.18449
 -25681822.26949 -20011763.07848         0.00041  20438490.18548  20438489.52549
  -8369816.26148  -6521926.93546         0.00041  23751726.90946  23751724.72348
  -2650089.73608  -2065002.83107  24659488.80908  24659492.55807         0.00001
 -16011049.21608 -12476124.50908  21566982.83908  21566984.29908         0.00001
    538789.11648    419851.57444         0.00041  25388969.58344  25388969.15648
 -14085362.88448 -10975586.42446         0.00041  22873062.29946  22873060.29248
 94 02 20 01 37 30.0000000  0  7 02 07 09 12 13 19 27
 -10277611.84949  -8008510.61648         0.00041  21275977.34548  21275976.44349
 -25658786.31949 -19993812.98748         0.00041  20442873.66648  20442873.11449
  -8466137.39548  -6596982.27546         0.00041  23733396.33846  23733395.31148
  -2739428.64808  -2134617.45407  24642488.03908  24642491.81707         0.00001
 -16090330.18508 -12537901.85908  21551896.14708  21551897.58308         0.00001
    643046.59748    501091.19844         0.00041  25408811.31944  25408808.43048
 -13984837.75348 -10897255.17946         0.00041  22892190.66646  22892189.55048
 94 02 20 01 38 00.0000000  0  7 02 07 09 12 13 19 27
 -10251283.58149  -7987995.07948         0.00041  21280987.36048  21280986.60349
 -25635315.20049 -19975523.80348         0.00041  20447340.10748  20447339.52749
  -8562363.15548  -6671963.34646         0.00041  23715085.47146  23715084.31848
  -2828821.82808  -2204274.36007  24625477.05008  24625480.80407         0.00001
 -16169144.09408 -12599315.26408  21536898.31708  21536899.70908         0.00001
    747382.07747    582391.68144         0.00041  25428664.68744  25428662.53747
 -13884064.48448 -10818730.58546         0.00041  22911367.97246  22911366.32148
 94 02 20 01 38 30.0000000  0  7 02 07 09 12 13 19 27
 -10224799.67449  -7967358.26748         0.00041  21286027.01448  21286026.31249
 -25611395.30449 -19956884.92248         0.00041  20451892.05848  20451891.38549
  -8658469.97848  -6746851.72246         0.00041  23696798.15446  23696795.78848
  -2918248.80508  -2273957.59707  24608459.60908  24608463.25207         0.00001
 -16247469.71208 -12660348.18408  21521993.40208  21521994.82708         0.00001
    851807.54247    663762.10344         0.00041  25448536.28144  25448534.27347
 -13783038.91948 -10740009.39846         0.00041  22930591.90946  22930590.56748
 94 02 20 01 39 00.0000000  0  7 02 07 09 12 13 19 27
 -10198170.69549  -7946608.40948         0.00041  21291094.56448  21291093.58749
 -25587045.61949 -19937911.14248         0.00041  20456525.40748  20456524.87049
  -8754449.89148  -6821641.19646         0.00041  23678534.07946  23678531.12248
  -3007714.69008  -2343671.15807  24591434.59308  24591438.12907         0.00001
 -16325311.28808 -12721003.92508  21507180.61108  21507182.04908         0.00001
    956327.98547    745206.65044         0.00041  25468418.91144  25468424.19647
 -13681779.22648 -10661105.77746         0.00041  22949861.32746  22949859.83848
 94 02 20 01 39 30.0000000  0  7 02 07 09 12 13 19 27
 -10171368.94349  -7925723.92548         0.00041  21296194.70748  21296193.79349
 -25562272.27249 -19918607.23448         0.00041  20461239.57948  20461239.08449
  -8850292.68148  -6896323.79646         0.00041  23660294.75546  23660292.96448
  -3097213.51308  -2413410.38307  24574403.49108  24574407.03607         0.00001
 -16402662.01708 -12781277.19008  21492461.22008  21492462.62908         0.00001
   1060956.42947    826735.34044         0.00041  25488330.73344  25488335.35547
 -13580279.03648 -10582014.75546         0.00041  22969176.54346  22969174.89448
 94 02 20 01 40 00.0000000  0  6 02 07 09 12 13 27
 -10144393.13949  -7904703.81148         0.00041  21301327.80148  21301327.02249
 -25537094.44749 -19898988.15148         0.00041  20466030.94648  20466030.34649
  -8946004.03148  -6970904.02046         0.00041  23642081.20546  23642079.72548
  -3186750.84708  -2483179.62307  24557364.95808  24557368.46307         0.00001
 -16479526.88108 -12841171.85708  21477834.28608  21477835.74808         0.00001
 -13478537.81348 -10502735.90446         0.00041  22988536.83646  22988535.43048
 94 02 20 01 40 30.0000000  0  6 02 07 09 12 13 27
 -10117249.57249  -7883552.97348         0.00041  21306493.29248  21306492.39949
 -25511537.08549 -19879073.32748         0.00041  20470894.28948  20470893.79749
  -9041601.28948  -7045395.32146         0.00041  23623889.34146  23623887.85748
  -3276347.79608  -2552995.31107  24540314.99408  24540318.83807         0.00001
 -16555926.26808 -12900703.81508  21463295.94608  21463297.36408         0.00001
 -13376556.94148 -10423270.33246         0.00041  23007943.39446  23007941.84148
 94 02 20 01 41 00.0000000  0  7 02 07 09 12 13 26 27
 -10089841.13949  -7862195.75048         0.00041  21311709.03748  21311707.98949
 -25485525.48749 -19858804.54948         0.00041  20475843.95748  20475843.52249
  -9137023.16648  -7119749.95646         0.00041  23605730.79046  23605729.67948
  -3365934.89708  -2622803.31107  24523266.99008  24523270.82907         0.00001
 -16631789.90708 -12959818.30908  21448859.56608  21448860.99308         0.00001
        -0.84258        -0.73556         0.00051  22602238.18556  22602237.57158
 -13274250.35848 -10343550.95346         0.00041  23027411.87146  23027410.14248
 94 02 20 01 41 30.0000000  0  7 02 07 09 12 13 26 27
 -10062253.01849  -7840698.51348         0.00041  21316958.76448  21316957.82349
 -25459140.07749 -19838244.49148         0.00041  20480865.11748  20480864.59649
  -9232366.12848  -7194043.09246         0.00041  23587588.03946  23587586.53848
  -3455591.78408  -2692665.68407  24506205.84308  24506209.60707         0.00001
 -16707197.16708 -13018577.18208  21434510.00308  21434511.44908         0.00001
     36749.25048     28635.70446         0.00041  22609232.18846  22609230.89548
 -13171692.21548 -10263635.54146         0.00041  23046927.72346  23046926.26748
 94 02 20 01 42 00.0000000  0  7 02 07 09 12 13 26 27
 -10034495.62649  -7819069.36948         0.00041  21322240.98048  21322239.98249
 -25432358.30549 -19817375.58048         0.00041  20485961.54548  20485961.07649
  -9327608.58748  -7268257.91646         0.00041  23569463.60046  23569462.44748
  -3545301.47908  -2762569.20808  24489134.49708  24489138.26408         0.00001
 -16782130.10608 -13076966.45208  21420250.72808  21420252.14808         0.00001
     73939.99348     57615.49846         0.00041  22616308.40446  22616307.89848
 -13068869.76848 -10183514.17846         0.00041  23066495.19246  23066492.86648
 94 02 20 01 42 30.0000000  0  7 02 07 09 12 13 26 27
 -10006578.68949  -7797315.90948         0.00041  21327553.18648  21327552.34849
 -25405177.71849 -19796195.90848         0.00041  20491133.74248  20491133.43549
  -9422747.29548  -7342391.90446         0.00041  23551358.91846  23551358.01448
  -3635063.95208  -2832513.86008  24472053.24208  24472057.02508         0.00001
 -16856588.30908 -13134985.79908  21406081.75208  21406083.12808         0.00001
    111567.85848     86935.91946         0.00041  22623468.96346  22623468.23548
 -12965797.92048 -10103198.48446         0.00041  23086109.00646  23086106.88348
 94 02 20 01 43 00.0000000  0  7 02 07 09 12 13 26 27
  -9978524.35849  -7775455.38348         0.00041  21332891.86648  21332890.95849
 -25377608.77549 -19774713.61648         0.00041  20496380.00148  20496379.58249
  -9517790.71148  -7416451.64046         0.00041  23533274.07446  23533271.97848
  -3724885.67608  -2902504.69008  24454960.65008  24454964.39108         0.00001
 -16930577.63608 -13192639.78708  21392002.04108  21392003.42908         0.00001
    149613.64048    116581.98146         0.00041  22630708.30346  22630707.97348
 -12862498.15948 -10022705.18846         0.00041  23105765.38946  23105763.99548
 94 02 20 01 43 30.0000000  0  7 02 07 09 12 13 26 27
  -9950338.30249  -7753492.22448         0.00041  21338255.28448  21338254.50149
 -25349640.37549 -19752920.05348         0.00041  20501702.14148  20501701.69549
  -9612715.72548  -7490419.10846         0.00041  23515209.23546  23515208.28148
  -3814751.95508  -2972530.25007  24437859.62708  24437863.14407         0.00001
 -17004082.89308 -13249916.57608  21378014.42508  21378015.83208         0.00001
    188091.21648    146564.50046         0.00041  22638031.06446  22638030.02848
 -12758967.69948  -9942032.12046         0.00041  23125466.48646  23125465.25348
 94 02 20 01 44 00.0000000  0  7 02 07 09 12 13 26 27
  -9921985.30949  -7731398.97048         0.00041  21343650.75948  21343649.82949
 -25321242.19349 -19730791.60148         0.00041  20507106.16948  20507105.72749
  -9707487.44048  -7564267.12346         0.00041  23497174.58146  23497173.66748
  -3904633.94208  -3042568.04907  24420755.49708  24420759.05207         0.00001
 -17077074.75208 -13306793.31808  21364124.48108  21364125.90408         0.00001
    227029.41348    176905.95446         0.00041  22645440.75646  22645439.77148
 -12655190.40148  -9861166.71746         0.00041  23145214.51946  23145213.40248
 94 02 20 01 44 30.0000000  0  7 02 07 09 12 13 26 27
  -9893469.57749  -7709178.91148         0.00041  21349076.93848  21349076.21249
 -25292451.10349 -19708356.98648         0.00041  20512584.93748  20512584.47949
  -9802133.25148  -7638017.05946         0.00041  23479164.06746  23479163.11148
  -3994562.33107  -3112642.00107  24403642.61307  24403646.24707         0.00001
 -17149583.55908 -13363293.65508  21350326.46908  21350327.90308         0.00001
    266382.02948    207570.32046         0.00041  22652928.75846  22652928.43248
 -12551191.66648  -9780128.76346         0.00041  23165005.65446  23165003.73548
 94 02 20 01 45 00.0000000  0  7 02 07 09 12 13 26 27
  -9864756.12349  -7686804.78548         0.00041  21354541.21848  21354540.28849
 -25263248.55149 -19685601.74748         0.00041  20518141.88848  20518141.52149
  -9896630.59248  -7711651.29946         0.00041  23461181.72046  23461180.83248
  -4084519.91308  -3182738.70708  24386524.28008  24386527.81008         0.00001
 -17221591.39508 -13419403.62508  21336623.79608  21336625.23608         0.00001
    306163.90348    238569.17846         0.00041  22660499.47846  22660498.71548
 -12446936.73248  -9698891.18846         0.00041  23184844.13746  23184842.75548
 94 02 20 01 45 30.0000000  0  7 02 07 09 12 13 26 27
  -9835819.11649  -7664256.46448         0.00041  21360047.66848  21360046.83949
 -25233632.00549 -19662523.91648         0.00041  20523777.92548  20523777.39849
  -9990963.86848  -7785157.68646         0.00041  23443231.40446  23443229.82048
  -4174496.72208  -3252850.40808  24369402.17808  24369405.68608         0.00001
 -17293088.41508 -13475115.55808  21323018.36708  21323019.77708         0.00001
    346383.30748    269908.96246         0.00041  22668153.02846  22668152.16348
 -12342423.17948  -9617452.09146         0.00041  23204733.21446  23204731.19048
 94 02 20 01 46 00.0000000  0  7 02 07 09 12 13 26 27
  -9806688.83449  -7641557.53848         0.00041  21365591.16448  21365590.11449
 -25203653.84849 -19639164.30748         0.00041  20529482.62048  20529482.09749
 -10085181.93948  -7858574.31246         0.00041  23425302.10646  23425300.62648
  -4264536.11308  -3323010.87508  24352268.20908  24352271.70608         0.00001
 -17364117.30708 -13530462.71608  21309502.00408  21309503.42608         0.00001
    386998.39248    301557.07546         0.00041  22675880.97346  22675880.88948
 -12237698.50048  -9535848.46746         0.00041  23224661.57546  23224659.66948
 94 02 20 01 46 30.0000000  0  7 02 07 09 12 13 26 27
  -9777382.29249  -7618721.26648         0.00041  21371167.64248  21371166.90049
 -25173307.49449 -19615517.79448         0.00041  20535257.26148  20535256.76249
 -10179286.35848  -7931902.39146         0.00041  23407394.28846  23407393.36748
  -4354639.56108  -3393221.26608  24335122.09108  24335125.54508         0.00001
 -17434679.27908 -13585446.04108  21296074.52108  21296075.88508         0.00001
    427995.22048    333502.64346         0.00041  22683682.97146  22683682.27048
 -12132770.37848  -9454086.32246         0.00041  23244628.78446  23244626.66448
 94 02 20 01 47 00.0000000  0  7 02 07 09 12 13 26 27
  -9747888.22749  -7595738.87448         0.00041  21376780.28548  21376779.52549
 -25142554.96249 -19591554.77948         0.00041  20541109.18548  20541108.66949
 -10273232.80448  -8005107.37446         0.00041  23389515.77746  23389515.74548
  -4444759.12808  -3463444.22108  24317972.94208  24317976.25308         0.00001
 -17504726.12808 -13640027.97308  21282745.03308  21282746.39808         0.00001
    469426.60948    365786.84046         0.00041  22691567.19846  22691566.47948
 -12027618.66948  -9372149.96346         0.00041  23264637.83646  23264636.68548
 94 02 20 01 47 30.0000000  0  7 02 07 09 12 13 26 27
  -9718230.48949  -7572628.94148         0.00041  21382424.02048  21382423.17949
 -25111404.43449 -19567281.63548         0.00041  20547036.84848  20547036.31549
 -10367017.86348  -8078186.59346         0.00041  23371670.29246  23371669.00948
  -4534894.62008  -3533679.59308  24300820.56208  24300824.01208         0.00001
 -17574257.35208 -13694208.12108  21269513.65008  21269515.00708         0.00001
    511297.56448    398413.55046         0.00041  22699535.30046  22699534.31848
 -11922261.38548  -9290053.40846         0.00041  23284687.18646  23284685.45948
 94 02 20 01 48 00.0000000  0  6 02 07 09 12 13 27
  -9688426.12149  -7549404.75048         0.00041  21388095.55548  21388094.80849
 -25079847.59349 -19542691.88648         0.00041  20553042.09148  20553041.56549
 -10460642.03448  -8151140.45146         0.00041  23353853.37146  23353853.08248
  -4625044.71408  -3603926.35708  24283665.63108  24283668.88808         0.00001
 -17643271.49408 -13747985.34708  21256380.66408  21256382.05108         0.00001
 -11816694.89048  -9207793.84146         0.00041  23304775.70046  23304773.99448
 94 02 20 01 48 30.0000000  0  6 02 07 09 12 13 27
  -9658486.40849  -7526075.09648         0.00041  21393792.88948  21393792.06249
 -25047890.11149 -19517789.94848         0.00041  20559123.30248  20559122.81349
 -10554091.69848  -8223958.33246         0.00041  23336071.99946  23336070.02448
  -4715212.99108  -3674187.28008  24266507.21808  24266510.45008         0.00001
 -17711771.97708 -13801362.32008  21243345.42608  21243346.77808         0.00001
 -11710923.08648  -9125374.28046         0.00041  23324903.26746  23324901.81348
 94 02 20 01 49 00.0000000  0  7 02 07 09 12 13 24 27
  -9628368.72749  -7502606.76748         0.00041  21399524.18748  21399523.31849
 -25015538.01049 -19492580.51348         0.00041  20565279.77848  20565279.24349
 -10647335.73348  -8296615.98246         0.00041  23318327.35446  23318326.18648
  -4805378.39908  -3744445.97908  24249349.25008  24249352.39608         0.00001
 -17779737.47508 -13854322.42208  21230411.97908  21230413.34008         0.00001
        -0.96657        -0.21854         0.00051  25251160.92454  25251153.67457
 -11604905.50148  -9042763.20046         0.00041  23345077.80846  23345076.34848
 94 02 20 01 49 30.0000000  0  7 02 07 09 12 13 24 27
  -9598057.00049  -7478987.22948         0.00041  21405292.30648  21405291.39049
 -24982814.03249 -19467081.30848         0.00041  20571507.00848  20571506.42449
 -10740404.54348  -8369137.09446         0.00041  23300616.38846  23300615.57348
  -4895564.52808  -3814720.80808  24232187.37808  24232190.50308         0.00001
 -17847191.64908 -13906884.09408  21217575.89408  21217577.23608         0.00001
   -104196.70347    -81191.59744         0.00041  25231330.81644  25231325.77047
 -11498646.36548  -8959963.91846         0.00041  23365297.20946  23365296.65948
 94 02 20 01 50 00.0000000  0  7 02 07 09 12 13 24 27
  -9567515.99149  -7455189.03048         0.00041  21411103.84148  21411103.14549
 -24949713.65249 -19441288.79848         0.00041  20577805.75348  20577805.17949
 -10833304.86048  -8441526.90446         0.00041  23282937.75846  23282937.25248
  -4985761.95408  -3885004.43908  24215023.41708  24215026.35908         0.00001
 -17914124.71008 -13959039.70308  21204838.89808  21204840.29608         0.00001
   -208493.53347   -162461.73744         0.00041  25211483.77944  25211478.63447
 -11392149.14448  -8876979.10546         0.00041  23385562.26846  23385562.39148
 94 02 20 01 50 30.0000000  0  7 02 07 09 12 13 24 27
  -9536767.30149  -7431229.00248         0.00041  21416955.09248  21416954.38349
 -24916279.13249 -19415235.92248         0.00041  20584168.13848  20584167.51049
 -10926066.91948  -8513808.97746         0.00041  23265285.90246  23265285.14648
  -5076000.71008  -3955320.27708  24197851.33308  24197854.41708         0.00001
 -17980566.93408 -14010812.84208  21192195.37708  21192196.73308         0.00001
   -312929.19847   -243840.06144         0.00041  25191611.45244  25191605.39947
 -11285450.96848  -8793837.68746         0.00041  23405867.24746  23405866.39148
 94 02 20 01 51 00.0000000  0  7 02 07 09 12 13 24 27
  -9505801.74749  -7407099.98948         0.00041  21422847.86248  21422846.96549
 -24882496.46249 -19388911.76048         0.00041  20590596.74448  20590596.12149
 -11018701.50448  -8585991.73146         0.00041  23247658.47546  23247657.31348
  -5166268.24908  -4025658.53008  24180673.93708  24180676.98708         0.00001
 -18046505.52908 -14062193.54408  21179647.68908  21179649.01708         0.00001
   -417507.89747   -325329.85744         0.00041  25171711.91544  25171704.58747
 -11178547.98648  -8710536.68846         0.00041  23426211.83946  23426209.39948
 94 02 20 01 51 30.0000000  0  7 02 07 09 12 13 24 27
  -9474639.48549  -7382817.69648         0.00041  21428777.71348  21428776.95849
 -24848345.15549 -19362300.34848         0.00041  20597095.33448  20597094.87749
 -11111225.17448  -8658088.03546         0.00041  23230051.49746  23230050.63348
  -5256562.35108  -4096017.47608  24163491.56008  24163494.55808         0.00001
 -18111938.29308 -14113180.09108  21167196.22108  21167197.57008         0.00001
   -522221.18647   -406924.43944         0.00041  25151780.28744  25151778.26447
 -11071466.25948  -8627096.42546         0.00041  23446588.54946  23446586.51748
 94 02 20 01 52 00.0000000  0  7 02 07 09 12 13 24 27
  -9443276.13949  -7358378.71447         0.00041  21434745.94747  21434745.11749
 -24813782.07649 -19335368.07748         0.00041  20603672.53948  20603672.11749
 -11203577.25748  -8730050.65446         0.00041  23212477.04646  23212476.37148
  -5346837.47908  -4166361.63408  24146312.56608  24146315.66508         0.00001
 -18176819.87108 -14163737.14508  21154849.67008  21154850.95508         0.00001
   -627009.79247   -488577.84044         0.00041  25131842.23544  25131838.06347
 -10964167.18848  -8543486.76846         0.00041  23467007.02146  23467004.63548
 94 02 20 01 52 30.0000000  0  7 02 07 09 12 13 24 27
  -9411766.84649  -7333826.01047         0.00041  21440741.88847  21440741.27449
 -24778833.34049 -19308135.29248         0.00041  20610323.19648  20610322.65049
 -11295759.45448  -8801880.88746         0.00041  23194935.17346  23194934.89148
  -5437123.58808  -4236714.35308  24129131.66808  24129134.66008         0.00001
 -18241180.06508 -14213887.92608  21142602.31308  21142603.61808         0.00001
   -731882.50448   -570296.64344         0.00041  25111884.76744  25111880.83948
 -10856658.66848  -8459713.91946         0.00041  23487463.13846  23487462.81548
 94 02 20 01 53 00.0000000  0  7 02 07 09 12 13 24 27
  -9380113.67949  -7309161.19547         0.00041  21446765.26547  21446764.61349
 -24743502.98949 -19280605.14548         0.00041  20617046.16148  20617045.78449
 -11387769.77048  -8873577.18946         0.00041  23177426.06746  23177425.69148
  -5527426.01508  -4307079.78408  24111947.64108  24111950.62108         0.00001
 -18305024.60108 -14263636.89408  21130453.07508  21130454.38508         0.00001
   -836838.85947   -652080.65544         0.00041  25091913.76144  25091908.26647
 -10748947.55548  -8375783.21946         0.00041  23507962.17346  23507959.98148
 94 02 20 01 53 30.0000000  0  7 02 07 09 12 13 24 27
  -9348286.93549  -7284361.12147         0.00041  21452821.63747  21452820.94949
 -24707778.37349 -19252767.77748         0.00041  20623844.44148  20623844.01149
 -11479562.26448  -8945103.74746         0.00041  23159958.41546  23159958.03248
  -5617725.79808  -4377443.16108  24094764.12908  24094767.07608         0.00001
 -18368334.57208 -14312969.32108  21118405.55508  21118406.89608         0.00001
   -941860.25247   -733915.27144         0.00041  25071925.71444  25071923.11847
 -10641014.34948  -8291679.42646         0.00041  23528500.70646  23528498.93348
 94 02 20 01 54 00.0000000  0  7 02 07 09 12 13 24 27
  -9316312.11149  -7259445.66347         0.00041  21458906.14047  21458905.58949
 -24671705.93549 -19224659.38048         0.00041  20630708.74648  20630708.29049
 -11571146.83648  -9016468.27946         0.00041  23142530.42846  23142530.16048
  -5708060.98608  -4447834.12608  24077573.72808  24077576.78008         0.00001
 -18431148.07008 -14361914.88508  21106452.54408  21106453.83508         0.00001
  -1047001.37748   -815843.21744         0.00041  25051913.08644  25051915.29348
 -10532886.71248  -8207424.14646         0.00041  23549074.95846  23549074.60648
 94 02 20 01 54 30.0000000  0  7 02 07 09 12 13 24 27
  -9284162.05649  -7234393.66047         0.00041  21465024.21147  21465023.60249
 -24635293.15349 -19196285.78348         0.00041  20637637.84448  20637637.29749
 -11662540.32748  -9087683.93746         0.00041  23125140.19846  23125138.44648
  -5798433.63608  -4518254.28708  24060376.27808  24060379.28708         0.00001
 -18493467.30208 -14410475.30808  21094593.57508  21094594.89508         0.00001
  -1152288.52648   -897884.82844         0.00041  25031878.22944  25031879.66048
 -10424588.00948  -8123035.57246         0.00041  23569684.51946  23569683.17148
 94 02 20 01 55 00.0000000  0  7 02 07 09 12 13 24 27
  -9251793.26849  -7209171.21647         0.00041  21471183.93047  21471183.11649
 -24598518.84449 -19167630.47548         0.00041  20644635.70048  20644635.13049
 -11753740.48048  -9158748.93646         0.00041  23107784.35946  23107783.67048
  -5888811.31708  -4588678.37208  24043177.90508  24043180.87008         0.00001
 -18555260.18108 -14458625.58408  21082834.78208  21082836.06508         0.00001
  -1257709.15848   -980030.52444         0.00041  25011824.95744  25011818.70848
 -10316109.02848  -8038506.50646         0.00041  23590327.09246  23590326.00048
 94 02 20 01 55 30.0000000  0  7 02 07 09 12 13 24 27
  -9219192.20949  -7183767.78247         0.00041  21477387.62147  21477386.80849
 -24561370.41149 -19138683.64048         0.00041  20651704.77248  20651704.38849
 -11844729.42548  -9229649.35846         0.00041  23090469.18646  23090468.92748
  -5979169.36108  -4659087.15508  24025983.31908  24025986.24908         0.00001
 -18616502.34608 -14506346.73208  21071180.76008  21071182.01008         0.00001
  -1363236.19748  -1062259.16044         0.00041  24991739.16344  24991737.12848
 -10207426.74648  -7953819.05245         0.00041  23611010.59745  23611007.81248
 94 02 20 01 56 00.0000000  0  7 02 07 09 12 13 24 27
  -9186385.38349  -7158204.01547         0.00041  21483630.62147  21483629.74449
 -24523866.55649 -19109459.85348         0.00041  20658841.56848  20658841.07649
 -11935539.56448  -9300410.44946         0.00041  23073189.37146  23073188.42248
  -6069518.50808  -4729489.01208  24008790.35608  24008793.28608         0.00001
 -18677204.87808 -14553647.38908  21059629.40308  21059630.68908         0.00001
  -1468862.77648  -1144565.32844         0.00041  24971641.44544  24971637.09848
 -10098557.81048  -7868986.12245         0.00041  23631725.82745  23631724.78248
 94 02 20 01 56 30.0000000  0  7 02 07 09 12 13 24 27
  -9153365.49949  -7132474.22447         0.00041  21489914.09847  21489913.31049
 -24485998.47249 -19079952.25248         0.00041  20666047.44148  20666046.88449
 -12026163.77848  -9371026.66546         0.00041  23055943.38346  23055942.83148
  -6159840.05408  -4799869.35708  23991602.67108  23991605.64308         0.00001
 -18737349.29208 -14600513.14608  21048184.30808  21048185.59308         0.00001
  -1574556.43148  -1226923.81245         0.00041  24951528.58345  24951523.95648
  -9989487.59648  -7783996.36345         0.00041  23652482.20145  23652480.29148
 94 02 20 01 57 00.0000000  0  7 02 07 09 12 13 24 27
  -9120192.63249  -7106625.22847         0.00041  21496226.82147  21496225.85149
 -24447800.31249 -19050187.44948         0.00041  20673316.41048  20673315.86249
 -12116621.14948  -9441512.85746         0.00041  23038730.17546  23038729.49748
  -6250173.94608  -4870259.32608  23974412.64708  23974415.49708         0.00001
 -18796975.83708 -14646975.37008  21036837.71208  21036839.00108         0.00001
  -1680342.37948  -1309354.25644         0.00041  24931393.99044  24931393.56948
  -9880239.54948  -7698868.04945         0.00041  23673270.25145  23673269.53048
 94 02 20 01 57 30.0000000  0  7 02 07 09 12 13 24 27
  -9086857.90049  -7080650.10247         0.00041  21502570.06347  21502569.23149
 -24409243.20549 -19020142.94548         0.00041  20680653.70648  20680653.05049
 -12206863.66948  -9511831.66146         0.00041  23021558.15646  23021556.76148
  -6340499.55208  -4940642.84208  23957224.15208  23957227.05808         0.00001
 -18856064.43808 -14693018.41708  21025593.51608  21025594.81808         0.00001
  -1786181.83348  -1391826.33045         0.00041  24911255.74645  24911252.77548
  -9770787.33948  -7613580.62745         0.00041  23694100.23945  23694097.55148
 94 02 20 01 58 00.0000000  0  7 02 07 09 12 13 24 27
  -9053347.44449  -7054538.05247         0.00041  21508946.69547  21508945.97849
 -24370314.29849 -18989808.72748         0.00041  20688061.47048  20688060.88649
 -12296879.09248  -9581973.49246         0.00041  23004428.46846  23004427.60348
  -6430807.69008  -5011012.74008  23940038.99708  23940041.88008         0.00001
 -18914606.24208 -14738635.38708  21014453.36108  21014454.67908         0.00001
  -1892066.38848  -1474333.63944         0.00041  24891108.77144  24891103.23848
  -9661136.65848  -7528138.56245         0.00041  23714963.82645  23714963.53848
 94 02 20 01 58 30.0000000  0  7 02 07 09 12 13 24 27
  -9019669.30949  -7028295.33947         0.00041  21515355.53047  21515354.73849
 -24331035.81149 -18959202.10848         0.00041  20695535.88048  20695535.37249
 -12386687.11048  -9651953.72046         0.00041  22987338.31646  22987337.54348
  -6521121.64308  -5081387.16708  23922852.68508  23922855.63908         0.00001
 -18972625.22908 -14783844.96908  21003412.68608  21003414.00308         0.00001
  -1998020.38648  -1556895.06044         0.00041  24870942.68144  24870940.86848
  -9551315.71248  -7442563.80145         0.00041  23735864.02045  23735862.00448
 94 02 20 01 59 00.0000000  0  7 02 07 09 12 13 24 27
  -8985791.72449  -7001897.21247         0.00041  21521802.32147  21521801.48649
 -24291384.20949 -18928304.75048         0.00041  20703081.39648  20703080.83749
 -12476282.61948  -9721768.34746         0.00041  22970289.38046  22970288.07348
  -6611421.18208  -5151750.38008  23905669.34808  23905672.14508         0.00001
 -19030101.40208 -14828631.58008  20992475.34108  20992476.64508         0.00001
  -2104025.20348  -1639496.06045         0.00041  24850772.38345  24850768.67148
  -9441310.33848  -7356845.37145         0.00041  23756794.57945  23756795.14748
 94 02 20 01 59 30.0000000  0  7 02 07 09 12 13 24 27
  -8951722.81349  -6975350.00247         0.00041  21528285.44247  21528284.57049
 -24251398.67549 -18897147.18548         0.00041  20710690.40048  20710689.81249
 -12565710.67448  -9791452.50646         0.00041  22953271.56846  22953270.36048
  -6701730.67108  -5222121.33808  23888483.87108  23888486.61708         0.00001
 -19087059.71008 -14873014.65808  20981636.50108  20981637.79208         0.00001
  -2210100.46048  -1722151.96445         0.00041  24830585.08045  24830583.07548
  -9331154.23448  -7271009.45945         0.00041  23777759.60645  23777757.13548
 94 02 20 02 00 00.0000000  0  7 02 07 09 12 13 24 27
  -8917440.20749  -6948636.27647         0.00041  21534809.13147  21534808.36549
 -24211085.68649 -18865734.46048         0.00041  20718361.71048  20718361.16649
 -12654982.21548  -9861014.70046         0.00041  22936283.13146  22936282.60548
  -6792043.53708  -5292494.92408  23871297.83008  23871300.63308         0.00001
 -19143494.36408 -14916989.69308  20970897.36108  20970898.59508         0.00001
  -2316262.04348  -1804875.09545         0.00041  24810384.05145  24810381.17148
  -9220853.06248  -7185060.52345         0.00041  23798747.89345  23798746.76348
 94 02 20 02 00 30.0000000  0  7 02 07 09 12 13 24 27
  -8882919.18449  -6921736.77247         0.00041  21541377.97147  21541377.49249
 -24170413.45949 -18834041.80648         0.00041  20726101.40348  20726100.87449
 -12744060.76448  -9930426.51946         0.00041  22919332.37846  22919331.39048
  -6882329.05308  -5362847.20408  23854116.97508  23854119.89608         0.00001
 -19199374.93108 -14960532.97308  20960263.62208  20960264.86008         0.00001
  -2422485.73248  -1887646.70945         0.00041  24790170.21245  24790167.32348
  -9110364.72248  -7098965.71445         0.00041  23819774.43745  23819772.03448
 94 02 20 02 01 00.0000000  0  7 02 07 09 12 13 24 27
  -8848176.81749  -6894664.79147         0.00041  21547989.41347  21547988.69949
 -24129385.41549 -18802071.89548         0.00041  20733908.74048  20733908.20749
 -12832927.74748  -9999673.47646         0.00041  22902421.48946  22902420.52548
  -6972586.63408  -5433177.72508  23836941.46008  23836944.30108         0.00001
 -19254701.75108 -15003644.76208  20949735.27408  20949736.50708         0.00001
  -2528778.79648  -1970472.31245         0.00041  24769943.29845  24769940.31648
  -8999691.46248  -7012726.85045         0.00041  23840835.66545  23840832.59448
 94 02 20 02 01 30.0000000  0  7 02 07 09 12 13 24 27
  -8813257.10749  -6867454.62047         0.00041  21554634.30547  21554633.71649
 -24088054.11049 -18769865.67448         0.00041  20741773.89148  20741773.33249
 -12921596.80648 -10068766.20946         0.00041  22885548.12946  22885547.43148
  -7062848.11408  -5503511.28508  23819765.18308  23819768.05808         0.00001
 -19309507.16608 -15046350.26108  20939306.15108  20939307.35208         0.00001
  -2635180.75448  -2053382.81445         0.00041  24749694.57645  24749692.41648
  -8888878.08648  -6926378.78745         0.00041  23861918.84245  23861919.71148
 94 02 20 02 02 00.0000000  0  7 02 07 09 12 13 24 27
  -8778160.63749  -6840106.71447         0.00041  21561313.02947  21561312.31049
 -24046402.30949 -18737409.71648         0.00041  20749699.81748  20749699.37149
 -13010042.68448 -10137685.04246         0.00041  22868717.39446  22868716.59048
  -7153095.92508  -5573834.19208  23802591.51708  23802594.44608         0.00001
 -19363774.49308 -15088636.47108  20928979.39608  20928980.62608         0.00001
  -2741681.21148  -2136370.08745         0.00041  24729428.20245  24729426.18948
  -8777912.30148  -6839911.97045         0.00041  23883037.41845  23883035.81248
 94 02 20 02 02 30.0000000  0  7 02 07 09 12 13 24 27
  -8742860.85249  -6812600.38247         0.00041  21568030.17247  21568029.60749
 -24004387.91249 -18704671.21748         0.00041  20757694.81748  20757694.37049
 -13098221.17348 -10206395.51746         0.00041  22851937.86046  22851936.84548
  -7243290.87408  -5644115.90908  23785428.02308  23785430.80608         0.00001
 -19417465.02608 -15130473.23308  20918762.43108  20918763.60808         0.00001
  -2848214.23648  -2219382.73845         0.00041  24709157.27845  24709153.43748
  -8666741.90248  -6753285.70245         0.00041  23904190.06345  23904190.63248
 94 02 20 02 03 00.0000000  0  7 02 07 09 12 13 24 27
  -8707374.01949  -6784948.29847         0.00041  21574783.47347  21574782.65849
 -23962033.19249 -18671667.53048         0.00041  20765754.69048  20765754.20149
 -13186168.19248 -10274925.63146         0.00041  22835202.06946  22835201.06948
  -7333455.71908  -5714374.17108  23768270.05008  23768272.98908         0.00001
 -19470602.58608 -15171879.10708  20908650.66908  20908651.86308         0.00001
  -2954800.86248  -2302437.13945         0.00041  24688870.70845  24688870.57748
  -8555392.15548  -6666519.65245         0.00041  23925382.66845  23925379.82248
 94 02 20 02 03 30.0000000  0  7 02 07 09 12 13 24 27
  -8671700.63249  -6757150.84447         0.00041  21581571.65247  21581571.04449
 -23919344.22749 -18638403.39148         0.00041  20773878.00048  20773877.65649
 -13273913.67248 -10343298.70546         0.00041  22818503.83246  22818503.48348
  -7423599.29008  -5784615.86108  23751116.25108  23751119.15108         0.00001
 -19523196.63508 -15212861.46608  20898642.33308  20898643.53208         0.00001
  -3061448.79648  -2385539.30345         0.00041  24668579.69245  24668576.10048
  -8443872.65248  -6579621.37145         0.00041  23946603.09745  23946601.31048
 94 02 20 02 04 00.0000000  0  7 02 07 09 12 13 24 27
  -8635829.16349  -6729199.03847         0.00041  21588397.96747  21588397.12849
 -23876283.65149 -18604849.68748         0.00041  20782072.23648  20782071.80049
 -13361444.68948 -10411504.65646         0.00041  22801848.02746  22801847.13248
  -7513707.96908  -5854830.36608  23733969.08008  23733971.96108         0.00001
 -19575234.54609 -15253410.46908  20888739.85909  20888741.03708         0.00001
  -3168130.32648  -2468667.62645         0.00041  24648277.25345  24648275.26848
  -8332159.36248  -6492572.09845         0.00041  23967863.66145  23967859.58348
 94 02 20 02 04 30.0000000  0  7 02 07 09 12 13 24 27
  -8599763.40649  -6701095.84047         0.00041  21595260.97947  21595260.17449
 -23832862.69449 -18571015.16548         0.00041  20790334.93548  20790334.52249
 -13448754.69448 -10479538.39646         0.00041  22785232.94346  22785232.45248
  -7603784.84708  -5925020.08508  23716828.02108  23716830.87508         0.00001
 -19626719.94609 -15293528.94508  20878942.49709  20878943.70508         0.00001
  -3274842.62248  -2551819.92145         0.00041  24627969.88745  24627968.44748
  -8220263.06948  -6405380.18745         0.00041  23989153.89345  23989152.76448
 94 02 20 02 05 00.0000000  0  7 02 07 09 12 13 24 27
  -8563528.83349  -6672861.09847         0.00041  21602155.94947  21602155.35249
 -23789123.40649 -18536932.59248         0.00041  20798658.21148  20798657.80649
 -13535854.15248 -10547408.06446         0.00041  22768658.80946  22768658.19248
  -7693849.43608  -5995200.22508  23699689.19108  23699692.16208         0.00001
 -19677673.54709 -15333233.03008  20869246.31909  20869247.53208         0.00001
  -3381612.88648  -2635017.39945         0.00041  24607655.21545  24607650.56548
  -8108230.94048  -6318082.45745         0.00041  24010473.46445  24010472.06448
 94 02 20 02 05 30.0000000  0  8 02 05 07 09 12 13 24 27
  -8527097.34649  -6644472.91447         0.00041  21609088.51747  21609088.03449
        -1.06457        -0.08054         0.00051  25374363.47654  25374359.34357
 -23745055.61249 -18502594.04048         0.00041  20807044.00748  20807043.52349
 -13622685.94248 -10615069.17246         0.00041  22752135.48946  22752134.43948
  -7783864.67908  -6065341.91708  23682559.96308  23682562.77608         0.00001
 -19728059.05609 -15372494.44808  20859658.25009  20859659.47208         0.00001
  -3488389.65948  -2718219.94444         0.00041  24587334.33644  24587331.53248
  -7996051.68848  -6230670.07045         0.00041  24031822.04545  24031818.93648
 94 02 20 02 06 00.0000000  0  8 02 05 07 09 12 13 24 27
  -8490486.77949  -6615945.18847         0.00041  21616055.34047  21616054.73849
    -76684.25247    -59753.17344         0.00041  25359772.06744  25359766.97847
 -23700692.02649 -18468025.00048         0.00041  20815486.16548  20815485.70849
 -13709254.00148 -10682524.75946         0.00041  22735661.92146  22735661.09548
  -7873847.04208  -6135457.98708  23665436.76508  23665439.59408         0.00001
 -19777894.24709 -15411327.04508  20850174.91509  20850176.11308         0.00001
  -3595180.83848  -2801433.58044         0.00041  24567012.48644  24567009.76548
  -7883749.52248  -6143161.89845         0.00041  24053190.18845  24053189.49448
 94 02 20 02 06 30.0000000  0  8 02 05 07 09 12 13 24 27
  -8453694.77649  -6587276.08547         0.00041  21623056.71547  21623056.02649
   -153433.39247   -119557.48544         0.00041  25345156.41744  25345162.11147
 -23656054.65049 -18433242.61848         0.00041  20823980.25948  20823979.79849
 -13795570.60548 -10749784.41846         0.00041  22719236.10446  22719235.36048
  -7963806.32408  -6205556.06608  23648318.13808  23648320.82308         0.00001
 -19827189.73109 -15449739.09108  20840794.27009  20840795.47408         0.00001
  -3701996.22847  -2884666.25444         0.00041  24546687.88344  24546683.23147
  -7771342.52348  -6055572.08545         0.00041  24074580.98845  24074579.75248
 94 02 20 02 07 00.0000000  0  8 02 05 07 09 12 13 24 27
  -8416726.76149  -6558469.82647         0.00041  21630091.70047  21630090.79649
   -230260.28548   -179423.35344         0.00041  25330551.02944  25330542.28948
 -23611149.83949 -18398251.84548         0.00041  20832525.63348  20832525.04449
 -13881653.46848 -10816861.93046         0.00041  22702854.70946  22702854.40348
  -8053756.48708  -6275647.04208  23631201.28108  23631203.90608         0.00001
 -19875960.49509 -15487742.26508  20831513.49209  20831514.69108         0.00001
  -3808860.78347  -2967937.15744         0.00041  24526347.12444  24526347.51347
  -7658852.87448  -5967917.83645         0.00041  24095988.81345  24095985.62448
 94 02 20 02 07 30.0000000  0  8 02 05 07 09 12 13 24 27
  -8379521.78949  -6529478.93147         0.00041  21637171.31547  21637170.64949
   -307091.72848   -239292.09544         0.00041  25315922.25144  25315922.04348
 -23565899.56049 -18362991.87248         0.00041  20841136.31148  20841135.83849
 -13967455.74848 -10883720.81446         0.00041  22686527.83046  22686526.81348
  -8143640.81508  -6345686.70908  23614096.72708  23614099.36708         0.00001
 -19924151.10509 -15525293.37108  20822343.09809  20822344.30408         0.00001
  -3915722.12147  -3051205.57644         0.00041  24506009.37044  24506012.52147
  -7546211.94148  -5880145.68645         0.00041  24117420.55645  24117420.56148
 94 02 20 02 08 00.0000000  0  7 02 05 07 09 12 13 27
  -8342115.01149  -6500330.78347         0.00041  21644289.48247  21644288.89549
   -383940.56248   -299174.21845         0.00041  25301299.85545  25301298.08848
 -23520315.33449 -18327471.68548         0.00041  20849810.68948  20849810.20049
 -14053011.03748 -10950387.23446         0.00041  22670246.73646  22670246.42548
  -8233487.87408  -6415697.33208  23596999.40008  23597001.97908         0.00001
 -19971791.03009 -15562415.37208  20813277.52409  20813278.70708         0.00001
  -7433426.00848  -5792260.57045         0.00041  24138885.70345  24138882.93448
 94 02 20 02 08 30.0000000  0  7 02 05 07 09 12 13 27
  -8304524.74849  -6471039.65847         0.00041  21651442.64647  21651442.01049
   -460817.44348   -359078.18444         0.00041  25286669.04944  25286668.91748
 -23474407.02649 -18291698.96648         0.00041  20858546.61648  20858546.16249
 -14138308.97648 -11016853.12246         0.00041  22654015.28046  22654014.64948
  -8323303.33308  -6485683.33708  23579908.14008  23579910.46908         0.00001
 -20018887.18409 -15599113.65208  20804315.41109  20804316.59008         0.00001
  -7320499.03648  -5704265.54245         0.00041  24160374.27045  24160372.47148
 94 02 20 02 09 00.0000000  0  7 02 05 07 09 12 13 27
  -8266734.55549  -6441592.74447         0.00041  21658633.84947  21658633.32449
   -537696.94848   -418984.19845         0.00041  25272042.45145  25272039.18648
 -23428154.99949 -18255658.41748         0.00041  20867348.04548  20867347.66749
 -14223309.90948 -11083087.57446         0.00041  22637839.72946  22637839.59348
  -8413053.50308  -6555618.45808  23562829.17408  23562831.60208         0.00001
 -20065407.25109 -15635363.03508  20795462.91809  20795464.06708         0.00001
  -7207386.88748  -5616126.18845         0.00041  24181898.08145  24181897.20948
 94 02 20 02 09 30.0000000  0  7 02 05 07 09 12 13 27
  -8228793.86449  -6412028.56047         0.00041  21665853.87147  21665853.22749
   -614633.35948   -478934.59745         0.00041  25257400.13545  25257398.78448
 -23381616.17049 -18219394.38448         0.00041  20876204.02348  20876203.77149
 -14308063.27448 -11149129.11746         0.00041  22621712.08546  22621711.40748
  -8502789.90508  -6625542.84508  23545752.86608  23545755.29508         0.00001
 -20111403.74809 -15671204.44208  20786710.06309  20786711.21108         0.00001
  -7094119.98048  -5527866.30945         0.00041  24203451.08245  24203450.90248
 94 02 20 02 10 00.0000000  0  7 02 05 07 09 12 13 27
  -8190657.45849  -6382311.87247         0.00041  21673110.92847  21673110.27249
   -691600.42948   -538908.90345         0.00041  25242757.02445  25242752.41248
 -23334777.49449 -18182896.70548         0.00041  20885117.24148  20885116.87249
 -14392534.79848 -11214951.04246         0.00041  22605637.20946  22605637.03848
  -8592480.23908  -6695431.33408  23528685.21808  23528687.70108         0.00001
 -20156845.69009 -15706613.73008  20778062.73909  20778063.90608         0.00001
  -6980670.48248  -5439464.11845         0.00041  24225043.25845  24225039.71848
 94 02 20 02 10 30.0000000  0  7 02 05 07 09 12 13 27
  -8152307.93949  -6352429.11747         0.00041  21680408.54947  21680408.02049
   -768609.17848   -598915.65244         0.00041  25228101.05944  25228098.00648
 -23287645.37849 -18146170.37148         0.00041  20894086.20348  20894085.78849
 -14476741.72348 -11280566.77746         0.00041  22589613.42246  22589612.82048
  -8682121.13608  -6765281.30208  23511627.12708  23511629.50808         0.00001
 -20201731.02009 -15741589.29108  20769521.31509  20769522.50608         0.00001
  -6867055.06348  -5350932.63045         0.00041  24246661.21245  24246659.95548
 94 02 20 02 11 00.0000000  0  8 02 05 07 09 12 13 24 27
  -8113721.21749  -6322361.53147         0.00041  21687751.09847  21687750.77749
   -845660.14848   -658955.35345         0.00041  25213436.75245  25213435.52948
 -23240205.24949 -18109204.02948         0.00041  20903113.75248  20903113.29649
 -14560709.04848 -11345995.82246         0.00041  22573634.96146  22573634.41048
  -8771700.49608  -6835083.31408  23494580.61508  23494583.02908         0.00001
 -20246049.06609 -15776122.81408  20761087.87009  20761089.03108         0.00001
        -0.49458        -0.44654         0.00051  24363405.35954  24363401.31458
  -6753283.25448  -5262279.29245         0.00041  24268311.11745  24268310.05248
 94 02 20 02 11 30.0000000  0  8 02 05 07 09 12 13 24 27
  -8074942.32549  -6292144.20247         0.00041  21695130.84047  21695130.17449
   -922793.38948   -719059.16045         0.00041  25198759.40845  25198757.43348
 -23192505.85249 -18072035.65748         0.00041  20912190.66248  20912190.13449
 -14644495.79348 -11411284.14946         0.00041  22557691.37246  22557690.35648
  -8861271.34108  -6904878.69008  23477535.76508  23477538.21608         0.00001
 -20289854.00909 -15810256.51608  20752752.06709  20752753.25208         0.00001
   -107118.82948    -83469.17744         0.00041  24343020.91544  24343017.02548
  -6639436.06848  -5173567.24845         0.00041  24289977.59545  24289974.23448
 94 02 20 02 12 00.0000000  0  8 02 05 07 09 12 13 24 27
  -8035941.54649  -6261753.97547         0.00041  21702552.13047  21702551.73249
   -999962.38248   -779190.83945         0.00041  25184077.26845  25184072.66448
 -23144501.63949 -18034629.76948         0.00041  20921325.33648  20921324.98849
 -14728058.02748 -11476397.53646         0.00041  22541789.50946  22541789.02448
  -8950782.86308  -6974627.84508  23460502.23408  23460504.65908         0.00001
 -20333096.68609 -15843952.08908  20744523.24309  20744524.39908         0.00001
   -214207.95248   -166915.15744         0.00041  24322644.47744  24322638.71448
  -6525490.24048  -5084778.28645         0.00041  24311662.00945  24311657.25048
 94 02 20 02 12 30.0000000  0  8 02 05 07 09 12 13 24 27
  -7996705.11049  -6231180.11547         0.00041  21710018.66947  21710018.03149
  -1077141.99548   -839330.70545         0.00041  25169387.51045  25169385.63148
 -23096148.77249 -17996952.20248         0.00041  20930526.59448  20930526.20249
 -14811350.47348 -11541300.70446         0.00041  22525939.41046  22525938.85048
  -9040195.64408  -7044300.05508  23443487.49808  23443489.89808         0.00001
 -20375738.89409 -15877179.76408  20736408.69109  20736409.78308         0.00001
   -321237.77248   -250314.86044         0.00041  24302272.90544  24302271.50348
  -6411422.08948  -4995894.08545         0.00041  24333366.60345  24333363.86548
 94 02 20 02 13 00.0000000  0  8 02 05 07 09 12 13 24 27
  -7957270.14449  -6200451.55947         0.00041  21717523.21147  21717522.32949
  -1154367.68948   -899506.55145         0.00041  25154691.81745  25154690.18048
 -23047481.45649 -17959029.60948         0.00041  20939787.69648  20939787.34349
 -14894383.10848 -11606001.41146         0.00041  22510138.85246  22510138.13548
  -9129547.27908  -7113924.62008  23426484.37308  23426486.68808         0.00001
 -20417819.79809 -15909970.05908  20728400.95509  20728402.03108         0.00001
   -428280.87948   -333724.96144         0.00041  24281904.75844  24281901.80948
  -6297269.97948  -4906944.37945         0.00041  24355087.29545  24355086.55348
 94 02 20 02 13 30.0000000  0  8 02 05 07 09 12 13 24 27
  -7917662.50749  -6169588.45847         0.00041  21725060.40047  21725059.38049
  -1231652.41148   -959728.37345         0.00041  25139986.21645  25139983.47148
 -22998521.03849 -17920878.62648         0.00041  20949104.61348  20949104.22249
 -14977148.28348 -11670493.71546         0.00041  22494389.55246  22494388.59948
  -9218857.23808  -7183516.71008  23409489.18508  23409491.56108         0.00001
 -20459360.43709 -15942339.36808  20720496.04009  20720497.13208         0.00001
   -535384.02548   -417181.92944         0.00041  24261522.49744  24261520.68048
  -6183038.20148  -4817932.61745         0.00041  24376825.49745  24376823.96348
 94 02 20 02 14 00.0000000  0  8 02 05 07 09 12 13 24 27
  -7877856.26149  -6138570.59447         0.00041  21732634.93847  21732634.13849
  -1308992.99048  -1019993.71245         0.00041  25125268.39345  25125265.93348
 -22949259.03849 -17882492.64448         0.00041  20958478.99048  20958478.56449
 -15059624.12548 -11734760.55546         0.00041  22478694.52546  22478693.80648
  -9308102.49208  -7253058.38208  23392506.26708  23392508.56108         0.00001
 -20500339.27809 -15974270.91308  20712697.99709  20712699.08308         0.00001
   -642516.71748   -500661.83244         0.00041  24241134.32044  24241133.81448
  -6068702.06748  -4728839.56145         0.00041  24398584.46745  24398581.53048
 94 02 20 02 14 30.0000000  0  8 02 05 07 09 12 13 24 27
  -7837813.66249  -6107368.55947         0.00041  21740254.81047  21740254.06849
  -1386365.29548  -1080283.75045         0.00041  25110545.83245  25110542.67748
 -22899689.74549 -17843867.21348         0.00041  20967911.73448  20967911.19949
 -15141779.47648 -11798777.66746         0.00041  22463060.78346  22463060.21548
  -9397260.82208  -7322532.32308  23375539.95008  23375542.26208         0.00001
 -20540735.43809 -16005748.42108  20705010.83309  20705011.95208         0.00001
   -749638.47348   -584133.24844         0.00041  24220751.63944  24220748.83448
  -5954229.90648  -4639640.49945         0.00041  24420367.21845  24420365.19848
 94 02 20 02 15 00.0000000  0  8 02 05 07 09 12 13 24 27
  -7797535.49549  -6075982.96447         0.00041  21747919.31747  21747918.76649
  -1463753.24848  -1140585.99845         0.00041  25095819.20945  25095816.12548
 -22849834.42449 -17805018.90348         0.00041  20977398.68448  20977398.19749
 -15223627.59948 -11862555.38346         0.00041  22447485.43246  22447484.98948
  -9486339.30208  -7391944.04208  23358588.79708  23358591.14308         0.00001
 -20580558.06409 -16036779.01808  20697432.83909  20697433.94908         0.00001
   -856740.14548   -667589.03944         0.00041  24200367.20944  24200368.41248
  -5839615.87048  -4550330.87645         0.00041  24442179.18645  24442175.44048
 94 02 20 02 15 30.0000000  0  8 02 05 07 09 12 13 24 27
  -7757068.40349  -6044450.15947         0.00041  21755620.05347  21755619.41849
  -1541174.55948  -1200914.21545         0.00041  25081086.67445  25081083.18148
 -22799745.36649 -17765988.46148         0.00041  20986930.22548  20986929.83949
 -15305214.32548 -11926129.41046         0.00041  22431959.74446  22431959.36848
  -9575369.37108  -7461318.03908  23341646.86708  23341649.16508         0.00001
 -20619839.90809 -16067388.22808  20689957.73309  20689958.84708         0.00001
   -963837.54648   -751041.48944         0.00041  24179995.04444  24179988.35848
  -5724901.08848  -4460942.77845         0.00041  24464005.06945  24464004.81548
 94 02 20 02 16 00.0000000  0  8 02 05 07 09 12 13 24 27
  -7716381.43249  -6012746.02047         0.00041  21763362.40447  21763361.83049
  -1618589.73348  -1261237.64445         0.00041  25066354.88045  25066351.62048
 -22749397.31049 -17726756.20448         0.00041  20996511.40048  20996510.92949
 -15386510.24148 -11989476.83546         0.00041  22416489.87646  22416489.29248
  -9664315.29508  -7530626.47208  23324720.98408  23324723.23208         0.00001
 -20658546.97609 -16097549.55908  20682592.01209  20682593.12108         0.00001
  -1070886.22848   -834456.00145         0.00041  24159619.00545  24159617.71448
  -5610064.17348  -4371459.45945         0.00041  24485859.05445  24485857.55848
 94 02 20 02 16 30.0000000  0  8 02 05 07 09 12 13 24 27
  -7675488.60249  -5980881.47147         0.00041  21771144.27547  21771143.59149
  -1695987.55848  -1321547.55645         0.00041  25051627.81245  25051623.03648
 -22698780.97849 -17687314.89948         0.00041  21006143.07948  21006142.81949
 -15467516.56448 -12052598.60446         0.00041  22401075.38846  22401074.32648
  -9753180.91308  -7599872.33208  23307810.31508  23307812.61608         0.00001
 -20696684.96209 -16127267.44908  20675334.56009  20675335.66708         0.00001
  -1177894.20348   -917838.74045         0.00041  24139258.57145  24139254.68548
  -5495111.63448  -4281886.06145         0.00041  24507734.25445  24507732.24348
 94 02 20 02 17 00.0000000  0  8 02 05 07 09 12 13 24 27
  -7634414.75449  -5948875.87147         0.00041  21778960.53947  21778959.68749
  -1773400.79348  -1381869.42346         0.00041  25036896.00746  25036891.86348
 -22647902.68449 -17647669.47148         0.00041  21015825.14648  21015824.69149
 -15548264.51948 -12115519.05046         0.00041  22385708.77546  22385708.63448
  -9841993.01408  -7669076.48408  23290909.84508  23290912.21008         0.00001
 -20734282.24009 -16156564.00808  20668180.02609  20668181.10008         0.00001
  -1284904.52548  -1001223.36245         0.00041  24118891.78545  24118891.18648
  -5380090.64448  -4192259.39845         0.00041  24529621.59045  24529619.92948
 94 02 20 02 17 30.0000000  0  8 02 05 07 09 12 13 24 27
  -7593147.41849  -5916719.50247         0.00041  21786813.54047  21786812.61349
  -1850855.60848  -1442223.73945         0.00041  25022155.48445  25022152.63348
 -22596740.53849 -17607802.85648         0.00041  21025560.95548  21025560.51249
 -15628728.05648 -12178217.87046         0.00041  22370397.32046  22370396.76048
  -9930739.72808  -7738229.68908  23274021.91508  23274024.09308         0.00001
 -20771328.81509 -16185431.44908  20661130.27509  20661131.37808         0.00001
  -1391915.62848  -1084608.59245         0.00041  24098526.53445  24098527.39648
  -5265001.25248  -4102579.35245         0.00041  24551522.97545  24551520.78948
 94 02 20 02 18 00.0000000  0  8 02 05 07 09 12 13 24 27
  -7551674.60449  -5884403.02147         0.00041  21794705.46847  21794704.58849
  -1928364.47048  -1502620.13446         0.00041  25007404.81046  25007403.24748
 -22545270.37349 -17567696.22748         0.00041  21035355.30448  21035354.94449
 -15708889.94448 -12240681.64346         0.00041  22355142.68946  22355142.39448
 -10019408.23408  -7807321.95908  23257148.74508  23257151.01108         0.00001
 -20807813.66809 -16213861.18408  20654187.42809  20654188.50308         0.00001
  -1498916.92748  -1167986.11645         0.00041  24078169.50045  24078165.77848
  -5149834.13348  -4012838.75445         0.00041  24573436.42645  24573436.48348
 94 02 20 02 18 30.0000000  0  8 02 05 07 09 12 13 24 27
  -7509961.01049  -5851898.92047         0.00041  21802643.36447  21802642.42149
  -2005910.09748  -1563045.20945         0.00041  24992649.57445  24992646.63548
 -22493464.68449 -17527328.15048         0.00041  21045213.76948  21045213.23249
 -15788726.00748 -12302891.52146         0.00041  22339950.53846  22339949.97848
 -10107969.65908  -7876330.78008  23240295.99008  23240298.29108         0.00001
 -20843709.73009 -16241832.12008  20647356.61709  20647357.71508         0.00001
  -1605881.57748  -1251335.14045         0.00041  24057813.19845  24057810.95348
  -5034560.95248  -3923015.54945         0.00041  24595372.41645  24595372.14748
 94 02 20 02 19 00.0000000  0  8 02 05 07 09 12 13 24 27
  -7468054.61549  -5819244.58347         0.00041  21810617.79447  21810616.88449
  -2083548.40548  -1623542.47746         0.00041  24977877.03846  24977872.40648
 -22441382.45249 -17486744.58748         0.00041  21055124.67348  21055124.19049
 -15868269.69548 -12364873.57846         0.00041  22324814.13046  22324813.26648
 -10196464.86108  -7945288.00608  23223455.88708  23223458.07608         0.00001
 -20879059.77609 -16269377.59108  20640629.70509  20640630.80308         0.00001
  -1712851.35248  -1334688.13945         0.00041  24037455.53445  24037455.31748
  -4919220.79148  -3833140.09945         0.00041  24617322.13945  24617320.84748
 94 02 20 02 19 30.0000000  0  8 02 05 07 09 12 13 24 27
  -7425948.76749  -5786434.83247         0.00041  21818630.13847  21818629.30449
  -2161253.55148  -1684091.84546         0.00041  24963089.19846  24963085.42848
 -22389031.67549 -17445951.76748         0.00041  21065086.61948  21065086.14749
 -15947500.75048 -12426612.02646         0.00041  22309736.59146  22309736.15548
 -10284876.06708  -8014179.78108  23206631.67708  23206634.02908         0.00001
 -20913848.08609 -16296485.34608  20634009.70409  20634010.78508         0.00001
  -1819800.28248  -1418024.89845         0.00041  24017106.34845  24017103.49648
  -4803786.10348  -3743190.97545         0.00041  24639289.91245  24639287.29248
 94 02 20 02 20 00.0000000  0  8 02 05 07 09 12 13 24 27
  -7383619.61749  -5753451.07747         0.00041  21826685.09947  21826684.31449
  -2238979.97048  -1744657.78646         0.00041  24948298.94046  24948294.66148
 -22336406.78049 -17404945.34748         0.00041  21075100.76848  21075100.23649
 -16026409.21248 -12488099.10646         0.00041  22294720.88746  22294720.33048
 -10373181.38708  -8082989.04608  23189827.70908  23189829.97508         0.00001
 -20948054.63609 -16323139.78108  20627500.37609  20627501.47208         0.00001
  -1926707.95148  -1501329.47645         0.00041  23996764.07145  23996759.45548
  -4688234.34048  -3653150.68345         0.00041  24661276.75545  24661276.21648
 94 02 20 02 20 30.0000000  0  8 02 05 07 09 12 13 24 27
  -7341061.66949  -5720289.04047         0.00041  21834783.42247  21834782.92549
  -2316716.25348  -1805231.42946         0.00041  24933506.00446  24933501.56848
 -22283509.75349 -17363726.87748         0.00041  21085166.61848  21085166.24949
 -16104982.97948 -12549325.38746         0.00041  22279768.92246  22279768.23148
 -10461378.65008  -8151714.11808  23173044.23608  23173046.49808         0.00001
 -20981679.14609 -16349340.67808  20621101.82609  20621102.90908         0.00001
  -2033572.75448  -1584600.65645         0.00041  23976426.05545  23976423.71848
  -4572544.70848  -3563002.96945         0.00041  24683291.97045  24683291.35248
 94 02 20 02 21 00.0000000  0  8 02 05 07 09 12 13 24 27
  -7298304.22649  -5686971.54947         0.00041  21842920.16047  21842919.31049
  -2394475.11248  -1865822.66146         0.00041  24918707.69846  24918704.56548
 -22230363.74849 -17322314.39548         0.00041  21095280.20248  21095279.58949
 -16183232.54048 -12610299.04446         0.00041  22264877.94946  22264877.90648
 -10549487.90008  -8220370.60408  23156277.55108  23156279.78208         0.00001
 -21014743.74309 -16375105.28008  20614809.84809  20614810.90908         0.00001
  -2140415.45048  -1667854.64645         0.00041  23956095.27845  23956092.03748
  -4456746.92148  -3472770.94045         0.00041  24705329.38445  24705326.65348
 94 02 20 02 21 30.0000000  0  8 02 05 07 09 12 13 24 27
  -7255341.50849  -5653494.10647         0.00041  21851095.50647  21851094.87349
  -2472255.50648  -1926430.73446         0.00041  24903904.16746  24903903.34848
 -22176965.42349 -17280705.30048         0.00041  21105441.37848  21105441.02049
 -16261170.53848 -12671029.90946         0.00041  22250047.54646  22250046.63848
 -10637509.23908  -8288958.59508  23139527.62408  23139529.88808         0.00001
 -21047250.62509 -16400435.29908  20608623.97509  20608625.02608         0.00001
  -2247230.46948  -1751087.02045         0.00041  23935771.76245  23935765.77448
  -4340856.15948  -3382466.47345         0.00041  24727382.09645  24727380.20648
 94 02 20 02 22 00.0000000  0  8 02 05 07 09 12 13 24 27
  -7212162.54549  -5619848.15647         0.00041  21859311.93147  21859311.58349
  -2550057.19048  -1987055.22945         0.00041  24889101.49545  24889098.02248
 -22123294.47349 -17238883.77348         0.00041  21115654.58648  21115654.25249
 -16338789.26648 -12731512.00947         0.00041  22235276.69947  22235276.27848
 -10725434.44908  -8357471.67608  23122795.89308  23122798.13508         0.00001
 -21079193.60509 -16425325.91208  20602545.41509  20602546.44608         0.00001
  -2353998.76848  -1834283.04545         0.00041  23915451.62545  23915448.25748
  -4224875.74948  -3292092.14245         0.00041  24749454.27145  24749450.55948
 94 02 20 02 22 30.0000000  0  8 02 05 07 09 12 13 24 27
  -7168787.97749  -5586049.79047         0.00041  21867566.12247  21867565.55049
  -2627898.98448  -2047711.05846         0.00041  24874288.48446  24874285.19248
 -22069367.98449 -17196863.12448         0.00041  21125916.61348  21125916.11949
 -16416096.73348 -12791751.56247         0.00041  22220565.43047  22220564.94048
 -10813280.58608  -8425923.14208  23106079.28808  23106081.52808         0.00001
 -21110591.93009 -16449792.11808  20596570.50809  20596571.53008         0.00001
  -2460718.32148  -1917441.07645         0.00041  23895146.12645  23895140.36948
  -4108832.90948  -3201669.19545         0.00041  24771535.37645  24771532.62048
 94 02 20 02 23 00.0000000  0  8 02 05 07 09 12 13 24 27
  -7125204.31449  -5552088.48847         0.00041  21875859.61747  21875859.19049
  -2705774.18548  -2108392.92746         0.00041  24859469.37846  24859465.91048
 -22015180.79449 -17154639.33048         0.00041  21136228.13748  21136227.51649
 -16493084.56748 -12851742.05447         0.00041  22205915.11347  22205914.73448
 -10901032.98308  -8494301.56808  23089380.55808  23089382.65708         0.00001
 -21141433.09509 -16473824.17408  20590701.59609  20590702.66708         0.00001
  -2567361.54648  -2000539.60345         0.00041  23874850.38945  23874846.81948
  -3992744.34748  -3111210.63745         0.00041  24793625.88245  24793623.47748
 94 02 20 02 23 30.0000000  0  8 02 05 07 09 12 13 24 27
  -7081412.69149  -5517965.14447         0.00041  21884193.09847  21884192.34149
  -2783696.76848  -2169111.68046         0.00041  24844641.00846  24844637.71948
 -21960737.04249 -17112215.61648         0.00041  21146588.06148  21146587.72249
 -16569751.10548 -12911482.18347         0.00041  22191326.06847  22191325.64248
 -10988693.47308  -8562608.37708  23072699.18408  23072701.37708         0.00001
 -21171721.14009 -16497425.22808  20584937.95809  20584939.02508         0.00001
  -2673922.31948  -2083573.91845         0.00041  23854571.10445  23854568.84448
  -3876607.48548  -3020714.35045         0.00041  24815725.31645  24815723.45548
 94 02 20 02 24 00.0000000  0  8 02 05 07 09 12 13 24 27
  -7037415.74348  -5483681.79947         0.00041  21892565.22447  21892564.62148
  -2861658.13948  -2229860.68346         0.00041  24829805.69046  24829802.14848
 -21906042.54349 -17069596.52048         0.00041  21156996.37948  21156995.86349
 -16646088.99748 -12970966.22447         0.00041  22176799.16947  22176798.93448
 -11076258.88908  -8630841.10408  23056036.07408  23056038.12308         0.00001
 -21201455.09109 -16520594.52208  20579279.76409  20579280.81208         0.00001
  -2780407.53348  -2166549.36145         0.00041  23834308.89045  23834305.33248
  -3760408.10048  -2930169.41545         0.00041  24837838.75545  24837835.45348
 94 02 20 02 24 30.0000000  0  8 02 05 07 09 12 13 24 27
  -6993198.94648  -5449227.15047         0.00041  21900979.55947  21900978.77448
  -2939643.56848  -2290628.42646         0.00041  24814964.88346  24814961.68748
 -21851080.55249 -17026768.98648         0.00041  21167455.21148  21167454.77549
 -16722072.79348 -13030174.35147         0.00041  22162339.81447  22162339.66848
 -11163699.62808  -8698976.68608  23039396.58208  23039398.64708         0.00001
 -21230607.50309 -16543310.66808  20573732.21909  20573733.28808         0.00001
  -2886814.62748  -2249463.89345         0.00041  23814058.96245  23814056.69848
  -3644120.93848  -2839556.05245         0.00041  24859964.36645  24859964.18548
 94 02 20 02 25 00.0000000  0  8 02 05 07 09 12 13 24 27
  -6948823.73548  -5414649.05447         0.00041  21909423.60247  21909423.02848
  -3017718.84748  -2351466.20746         0.00041  24800107.22746  24800104.46448
 -21795898.36349 -16983769.87348         0.00041  21177956.21148  21177955.66749
 -16797766.07348 -13089156.09347         0.00041  22147936.06947  22147935.85948
 -11251066.98408  -8767055.08008  23022771.11108  23022773.14208         0.00001
 -21259232.04809 -16565615.49108  20568285.15409  20568286.18908         0.00001
  -2993211.39148  -2332370.41845         0.00041  23793813.34645  23793809.87848
  -3527812.31948  -2748925.94545         0.00041  24882100.78045  24882097.04848
 94 02 20 02 25 30.0000000  0  8 02 05 07 09 12 13 24 27
  -6904251.88048  -5379917.73047         0.00041  21917905.60347  21917904.93048
  -3095836.70848  -2412337.09246         0.00041  24785242.01146  24785238.94848
 -21740457.54649 -16940569.23148         0.00041  21188506.16348  21188505.58849
 -16873134.82248 -13147884.95247         0.00041  22133593.90547  22133593.50248
 -11338314.29508  -8835039.93608  23006168.47908  23006170.42708         0.00001
 -21287284.46909 -16587474.50308  20562946.94109  20562947.96808         0.00001
  -3099565.53148  -2415243.67646         0.00041  23773574.35646  23773571.45948
  -3411427.67548  -2658236.67445         0.00041  24904248.87545  24904244.18148
 94 02 20 02 26 00.0000000  0  8 02 05 07 09 12 13 24 27
  -6859439.31348  -5344998.84247         0.00041  21926432.98847  21926432.35648
  -3173958.99848  -2473211.49546         0.00041  24770375.77946  24770372.59348
 -21684732.24649 -16897146.91448         0.00041  21199110.09248  21199109.67949
 -16948151.75448 -13206339.67347         0.00041  22119318.75247  22119318.24948
 -11425401.74008  -8902900.22608  22989596.24208  22989598.16908         0.00001
 -21314727.39309 -16608858.58108  20557724.73309  20557725.72808         0.00001
  -3205835.74348  -2498051.58245         0.00041  23753351.45145  23753348.83948
  -3294937.64648  -2567465.20745         0.00041  24926414.05445  24926411.48748
 94 02 20 02 26 30.0000000  0  8 02 05 07 09 12 13 24 27
  -6814403.97348  -5309906.36647         0.00041  21935002.95147  21935002.34648
  -3252122.52048  -2534118.01246         0.00041  24755500.93146  24755498.49648
 -21628751.91749 -16853525.87448         0.00041  21209763.00048  21209762.50449
 -17022827.84248 -13264528.79847         0.00041  22105107.76647  22105107.86548
 -11512353.90308  -8970655.10108  22973049.77708  22973051.66308         0.00001
 -21341587.68109 -16629788.65708  20552613.36509  20552614.36108         0.00001
  -3312026.57848  -2580797.61645         0.00041  23733145.30045  23733141.29548
  -3178380.02248  -2476641.15044         0.00041  24948596.63444  24948591.97648
 94 02 20 02 27 00.0000000  0  8 02 05 07 09 12 13 24 27
  -6769127.02448  -5274625.61847         0.00041  21943618.80847  21943618.34648
  -3330309.33948  -2595042.71446         0.00041  24740623.22346  24740619.90948
 -21572526.69149 -16809714.00648         0.00041  21220462.13748  21220461.76649
 -17097160.00648 -13322449.92847         0.00041  22090963.00247  22090962.69748
 -11599168.54508  -9038302.82008  22956529.42408  22956531.32008         0.00001
 -21367865.43409 -16650264.81108  20547612.84609  20547613.89808         0.00001
  -3418108.31248  -2663458.63846         0.00041  23712955.12546  23712954.47748
  -3061747.05848  -2385758.32744         0.00041  24970789.43644  24970786.27148
 94 02 20 02 27 30.0000000  0  8 02 05 07 09 12 13 24 27
  -6723615.65748  -5239162.21747         0.00041  21952279.39947  21952278.71048
  -3408537.58748  -2655999.67246         0.00041  24725736.54346  24725733.37448
 -21516092.03749 -16765738.94648         0.00041  21231201.17148  21231200.86049
 -17171154.28648 -13380107.76747         0.00041  22076882.25847  22076882.10348
 -11685867.66408  -9105860.51908  22940031.18308  22940033.02908         0.00001
 -21393585.05809 -16670306.05808  20542718.54609  20542719.61908         0.00001
  -3524096.17048  -2746046.51046         0.00041  23692786.06746  23692785.67948
  -2945044.94248  -2294821.64245         0.00041  24992995.77245  24992993.89848
 94 02 20 02 28 00.0000000  0  8 02 05 07 09 12 13 24 27
  -6677870.68348  -5203516.77847         0.00041  21960984.39747  21960983.81848
  -3486812.25048  -2716992.81646         0.00041  24710839.90746  24710838.13248
 -21459442.52049 -16721596.46348         0.00041  21241981.36548  21241981.08849
 -17244799.04048 -13437493.24647         0.00041  22062867.71747  22062867.77148
 -11772457.55308  -9173333.10408  22923553.50708  22923555.48008         0.00001
 -21418755.48909 -16689919.36408  20537928.76409  20537929.79108         0.00001
  -3629988.66548  -2828560.06646         0.00041  23672637.40646  23672634.98948
  -2828286.77248  -2203841.26544         0.00041  25015214.29544  25015212.41248
 94 02 20 02 28 30.0000000  0  8 02 05 07 09 12 13 24 27
  -6631873.31448  -5167674.67347         0.00041  21969737.75447  21969736.79848
  -3565100.39648  -2777996.47546         0.00041  24695943.25346  24695940.38948
 -21402540.97149 -16677257.59048         0.00041  21252809.17448  21252809.03049
 -17318062.51048 -13494581.62947         0.00041  22048926.31047  22048926.24348
 -11858911.04208  -9240699.40508  22907101.99108  22907103.80808         0.00001
 -21443352.06209 -16709085.50708  20533248.15909  20533249.20708         0.00001
  -3735770.99448  -2910987.79546         0.00041  23652507.05046  23652505.24848
  -2711458.72748  -2112806.45044         0.00041  25037445.19244  25037444.06848
 94 02 20 02 29 00.0000000  0  8 02 05 07 09 12 13 24 27
  -6585642.35448  -5131650.54947         0.00041  21978534.43847  21978534.22448
  -3643412.39348  -2839018.72145         0.00041  24681039.56345  24681038.29748
 -21345395.97549 -16632729.01948         0.00041  21263683.54748  21263683.34649
 -17390970.25748 -13551392.81347         0.00041  22035052.68347  22035052.43748
 -11945244.66808  -9307972.30408  22890673.18808  22890675.03508         0.00001
 -21467394.03109 -16727819.49008  20528673.13009  20528674.18808         0.00001
  -3841475.62248  -2993354.97346         0.00041  23632392.00246  23632390.41648
  -2594586.31848  -2021737.01245         0.00041  25059685.46845  25059684.33548
 94 02 20 02 29 30.0000000  0  8 02 05 07 09 12 13 24 27
  -6539228.11048  -5095483.60847         0.00041  21987367.28447  21987366.68048
  -3721787.35248  -2900090.05346         0.00041  24666126.41346  24666123.94148
 -21288035.35749 -16588032.42648         0.00041  21274599.13448  21274598.68549
 -17463561.24948 -13607957.17747         0.00041  22021238.89147  22021238.82948
 -12031496.52008  -9375181.48208  22874259.98008  22874261.81708         0.00001
 -21490921.81609 -16746152.81108  20524195.92509  20524196.94508         0.00001
  -3947152.09448  -3075700.22346         0.00041  23612283.85046  23612280.69848
  -2477725.56548  -1930676.67844         0.00041  25081929.59044  25081922.25548
 94 02 20 02 30 00.0000000  0  8 02 05 07 09 12 13 24 27
  -6492585.73848  -5059138.90247         0.00041  21996243.17647  21996242.29648
  -3800155.82748  -2961156.30945         0.00041  24651215.26445  24651210.80348
 -21230408.39749 -16543128.29748         0.00041  21285565.19648  21285564.75249
 -17535799.77048 -13664246.88947         0.00041  22007492.30747  22007492.18448
 -12117607.89908  -9442281.20008  22857873.48008  22857875.28808         0.00001
 -21513879.55609 -16764041.93908  20519827.20009  20519828.21608         0.00001
  -4052737.82648  -3157974.74546         0.00041  23592191.63146  23592188.46248
  -2360834.40248  -1839592.71644         0.00041  25104168.03544  25104165.80548
 94 02 20 02 30 30.0000000  0  8 02 05 07 09 12 13 24 27
  -6445713.05648  -5022614.73947         0.00041  22005162.35447  22005161.90848
  -3878525.73148  -3022223.71345         0.00041  24636299.27645  24636297.51348
 -21172538.13649 -16498034.57847         0.00041  21296577.58347  21296577.12949
 -17607692.65548 -13720267.27547         0.00041  21993811.85647  21993811.45348
 -12203580.75408  -9509272.97308  22841513.26208  22841515.16008         0.00001
 -21536271.69409 -16781490.33908  20515566.11209  20515567.10208         0.00001
  -4158243.08948  -3240186.58746         0.00041  23572113.45146  23572111.37748
  -2243913.67348  -1748485.67744         0.00041  25126417.15744  25126415.35448
 94 02 20 02 31 00.0000000  0  8 02 05 07 09 12 13 24 27
  -6398622.07148  -4985920.46946         0.00041  22014123.86446  22014123.03948
  -3956905.89548  -3083299.11946         0.00041  24621384.28146  24621382.30048
 -21114438.41049 -16452762.05647         0.00041  21307633.26647  21307633.03449
 -17679249.94548 -13776026.16047         0.00041  21980194.60847  21980194.48948
 -12289419.03808  -9576159.88508  22825178.77208  22825180.56308         0.00001
 -21558104.87309 -16798503.18708  20511411.34709  20511412.34908         0.00001
  -4263661.60748  -3322330.81946         0.00041  23552052.19646  23552050.94448
  -2126955.56248  -1657349.46144         0.00041  25148674.44944  25148672.07548
 94 02 20 02 31 30.0000000  0  8 02 05 07 09 12 13 24 27
  -6351322.20448  -4949063.43446         0.00041  22023124.15546  22023123.99048
  -4035300.02348  -3144385.39046         0.00041  24606466.79546  24606464.37948
 -21056121.20049 -16407320.06347         0.00041  21318730.59747  21318730.27349
 -17750467.42948 -13831520.26447         0.00041  21966642.80847  21966642.28948
 -12375115.91508  -9642936.61008  22808871.10808  22808872.95708         0.00001
 -21579375.07709 -16815077.35208  20507363.76209  20507364.77608         0.00001
  -4368977.37448  -3404394.99746         0.00041  23532012.74846  23532009.91848
  -2009950.42548  -1566176.62944         0.00041  25170941.30144  25170937.32148
 94 02 20 02 32 00.0000000  0  8 02 05 07 09 12 13 24 27
  -6303800.57248  -4912033.59646         0.00041  22032168.00246  22032166.98648
  -4113709.78348  -3205483.86746         0.00041  24591545.20746  24591543.53048
 -20997583.87049 -16361706.54947         0.00041  21329869.98947  21329869.67349
 -17821319.24448 -13886729.42747         0.00041  21953159.94747  21953159.53248
 -12460661.68108  -9709595.58408  22792592.23008  22792594.11408         0.00001
 -21600075.24509 -16831207.33408  20503424.63509  20503425.63808         0.00001
  -4474184.15948  -3486374.26346         0.00041  23511991.69846  23511989.72548
  -1892880.68848  -1474953.43244         0.00041  25193211.43244  25193214.56348
 94 02 20 02 32 30.0000000  0  8 02 05 07 09 12 13 24 27
  -6256059.22148  -4874832.54746         0.00041  22041252.53946  22041251.81048
  -4192166.01948  -3266618.53846         0.00041  24576615.06246  24576614.02748
 -20938825.88949 -16315921.09647         0.00041  21341051.31247  21341050.90249
 -17891785.77148 -13941638.36947         0.00041  21939750.42847  21939750.11548
 -12546061.07808  -9776140.50308  22776341.23908  22776343.04508         0.00001
 -21620212.99609 -16846899.06808  20499592.54009  20499593.53708         0.00001
  -4579289.40848  -3568274.40146         0.00041  23491989.75846  23491988.72148
  -1775751.45548  -1383683.88244         0.00041  25215509.64444  25215503.55748
 94 02 20 02 33 00.0000000  0  8 02 05 07 09 12 13 24 27
  -6208139.40648  -4837492.43646         0.00041  22050371.58246  22050370.80648
  -4270697.26948  -3327811.66346         0.00041  24561671.14746  24561669.94248
 -20879870.30449 -16269981.66647         0.00041  21352270.01447  21352269.77849
 -17961894.23248 -13996268.30247         0.00041  21926409.29047  21926409.02848
 -12631341.91408  -9842593.03808  22760112.75408  22760114.67108         0.00001
 -21639818.98509 -16862176.44208  20495861.61309  20495862.63708         0.00001
  -4684308.50948  -3650107.42146         0.00041  23472004.67646  23472004.31048
  -1658604.39747  -1292400.44544         0.00041  25237801.95844  25237796.39047
 94 02 20 02 33 30.0000000  0  8 02 05 07 09 12 13 24 27
  -6160001.36348  -4799982.27646         0.00041  22059532.07746  22059531.17748
  -4349284.30748  -3389048.24546         0.00041  24546717.40846  24546715.32248
 -20820695.21849 -16223871.19947         0.00041  21363530.84547  21363530.44549
 -18031606.60948 -14050589.59247         0.00041  21913143.20947  21913143.17248
 -12716477.86808  -9908932.67608  22743911.90208  22743913.72908         0.00001
 -21658869.68309 -16877021.12308  20492236.38609  20492237.37108         0.00001
  -4789220.60848  -3731857.07846         0.00041  23452041.71846  23452040.11348
  -1541420.12047  -1201088.12944         0.00041  25260091.08544  25260095.67847
 94 02 20 02 34 00.0000000  0  8 02 05 07 09 12 13 24 27
  -6111612.99848  -4762277.05846         0.00041  22068739.71446  22068739.13548
  -4427905.40048  -3450311.37846         0.00041  24531755.41646  24531754.13648
 -20761274.14949 -16177569.05547         0.00041  21374838.18147  21374837.98249
 -18100895.86048 -14104581.18447         0.00041  21899958.05647  21899957.85248
 -12801448.88108  -9975143.79208  22727742.33908  22727744.29608         0.00001
 -21677347.87609 -16891419.69608  20488720.08009  20488721.07308         0.00001
  -4894009.81248  -3813510.94546         0.00041  23432101.94046  23432099.29948
  -1424185.08947  -1109736.11544         0.00041  25282404.65344  25282404.61547
 94 02 20 02 34 30.0000000  0  8 02 05 07 09 12 13 24 27
  -6063030.41148  -4724420.50246         0.00041  22077984.71246  22077983.98148
  -4506603.78148  -3511634.72646         0.00041  24516779.97746  24516778.20948
 -20701660.82749 -16131117.10347         0.00041  21386182.24147  21386181.99249
 -18169824.64148 -14158291.88747         0.00041  21886841.26347  21886841.11648
 -12886300.82408 -10041262.12508  22711595.55908  22711597.40208         0.00001
 -21695302.36809 -16905410.19108  20485303.43309  20485304.44808         0.00001
  -4998716.11648  -3895100.23046         0.00041  23412175.37546  23412174.33048
  -1306954.65847  -1018387.70644         0.00041  25304704.57144  25304712.70147
 94 02 20 02 35 00.0000000  0  8 02 05 07 09 12 13 24 27
  -6014233.57848  -4686397.00046         0.00041  22087270.05046  22087269.80348
  -4585333.67048  -3572982.62446         0.00041  24501798.30446  24501796.20348
 -20641829.20749 -16084495.05047         0.00041  21397567.85947  21397567.66049
 -18238372.21248 -14211705.54547         0.00041  21873796.87047  21873796.73748
 -12970998.47308 -10107260.23308  22695478.06708  22695480.03108         0.00001
 -21712701.16809 -16918967.68008  20481992.53409  20481993.52208         0.00001
  -5103309.99948  -3976601.91746         0.00041  23392272.42046  23392270.73248
  -1189695.05547   -927016.53744         0.00041  25327023.49444  25327026.08347
 94 02 20 02 35 30.0000000  0  8 02 05 07 09 12 13 24 27
  -5965223.21848  -4648207.11546         0.00041  22096596.83246  22096596.18048
  -4664101.98748  -3634360.45346         0.00041  24486811.24546  24486807.07048
 -20581786.54349 -16037708.55147         0.00041  21408993.52447  21408993.32549
 -18306539.56148 -14264822.92447         0.00041  21860825.43147  21860825.07148
 -13055544.69608 -10173140.34608  22679389.44208  22679391.28508         0.00001
 -21729549.54409 -16932096.26808  20478786.36509  20478787.33308         0.00001
  -5207793.36848  -4058017.49846         0.00041  23372390.58746  23372388.11948
  -1072408.68647   -835624.93044         0.00041  25349333.32944  25349345.37947
 94 02 20 02 36 00.0000000  0  7 02 05 07 09 12 13 24
  -5915989.55948  -4609843.22546         0.00041  22105965.72446  22105964.96848
  -4742875.54248  -3695742.36946         0.00041  24471819.93346  24471817.00748
 -20521518.26649 -15990746.24847         0.00041  21420462.27247  21420461.89449
 -18374307.22548 -14317628.86647         0.00041  21847929.50447  21847929.41148
 -13139912.25608 -10238881.24308  22663334.76908  22663336.63608         0.00001
 -21745823.47409 -16944777.23408  20475689.50909  20475690.49008         0.00001
  -5312134.49048  -4139322.22146         0.00041  23352534.24946  23352532.64848
 94 02 20 02 36 30.0000000  0  7 02 05 07 09 12 13 24
  -5866573.97948  -4571337.57846         0.00041  22115368.84246  22115368.46248
  -4821702.00048  -3757165.51146         0.00041  24456819.92346  24456816.77148
 -20461074.46749 -15943647.17547         0.00041  21431964.25347  21431964.05849
 -18441716.89448 -14370155.85047         0.00041  21835101.42647  21835101.68648
 -13224142.04708 -10304514.78908  22647306.33708  22647308.18808         0.00001
 -21761567.16809 -16957045.02908  20472693.58909  20472694.50108         0.00001
  -5416373.67748  -4220547.52946         0.00041  23332698.23446  23332696.55348
 94 02 20 02 37 00.0000000  0  7 02 05 07 09 12 13 24
  -5816595.50348  -4532393.30746         0.00041  22124880.15446  22124879.06048
  -4900215.37048  -3818344.68145         0.00041  24441878.80645  24441876.03248
 -20400086.15749 -15896123.80947         0.00041  21443569.67447  21443569.68649
 -18508397.41649 -14422114.66847         0.00041  21822412.91647  21822412.66749
 -13307858.96008 -10369748.69208  22631375.47308  22631377.33708         0.00001
 -21776408.34209 -16968609.56308  20469869.39309  20469870.31408         0.00001
  -5520133.03748  -4301398.94446         0.00041  23312952.81646  23312951.71448
 94 02 20 02 37 30.0000000  0  7 02 05 07 09 12 13 24
  -5766192.21348  -4493118.01846         0.00041  22134471.32846  22134470.56248
  -4978565.82748  -3879396.91446         0.00041  24426968.43546  24426966.44848
 -20338714.81649 -15848301.97647         0.00041  21455248.43347  21455248.29949
 -18574501.22549 -14473624.09847         0.00041  21809833.37647  21809833.63249
 -13391214.47008 -10434700.97908  22615513.41508  22615515.25508         0.00001
 -21790501.55809 -16979591.27308  20467187.53409  20467188.49508         0.00001
  -5623555.87348  -4381988.12246         0.00041  23293272.30846  23293271.04848
 94 02 20 02 38 00.0000000  0  7 02 05 07 09 12 13 24
  -5716315.61548  -4454253.14046         0.00041  22143962.60546  22143961.76948
  -5057701.99148  -3941061.38445         0.00041  24411912.66145  24411907.23748
 -20277916.03849 -15800926.29747         0.00041  21466818.13147  21466817.85449
 -18640985.35849 -14525429.88447         0.00041  21797181.97947  21797182.15449
 -13475160.26608 -10500113.23308  22599538.99808  22599540.81508         0.00001
 -21804801.81409 -16990734.31308  20464466.28209  20464467.22008         0.00001
  -5727604.00748  -4463064.55046         0.00041  23273473.12846  23273471.25348
 94 02 20 02 38 30.0000000  0  7 02 05 07 09 12 13 24
  -5666035.04748  -4415073.47646         0.00041  22153530.53846  22153529.82248
  -5136700.63448  -4002618.69246         0.00041  24396875.94646  24396874.19948
 -20216751.32449 -15753265.47147         0.00041  21478457.61647  21478457.18449
 -18706925.27249 -14576811.60847         0.00041  21784634.04547  21784634.07049
 -13558769.13208 -10565262.94208  22583628.74408  22583630.56308         0.00001
 -21818384.85609 -17001318.48308  20461881.49509  20461882.43308         0.00001
  -5831356.28348  -4543910.44046         0.00041  23253729.01246  23253727.85048
 94 02 20 02 39 00.0000000  0  7 02 05 07 09 12 13 24
  -5615490.99948  -4375688.49846         0.00041  22163148.85746  22163148.05148
  -5215683.90848  -4064164.01246         0.00041  24381846.93446  24381844.04948
 -20155359.29549 -15705427.52147         0.00041  21490139.92847  21490139.75049
 -18772458.10549 -14627876.12247         0.00041  21772163.68547  21772163.52949
 -13642172.64608 -10630252.63708  22567757.58308  22567759.36708         0.00001
 -21831385.29909 -17011448.68008  20459407.58509  20459408.53508         0.00001
  -5934946.49748  -4624630.05246         0.00041  23234017.86146  23234015.45848
 94 02 20 02 39 30.0000000  0  7 02 05 07 09 12 13 24
  -5564681.73748  -4336096.86546         0.00041  22172817.37146  22172816.76348
  -5294638.56848  -4125687.04445         0.00041  24366821.45345  24366819.47848
 -20093726.24749 -15657401.75947         0.00041  21501868.43247  21501868.03649
 -18837561.52049 -14678606.02847         0.00041  21759774.97847  21759774.74449
 -13725366.70408 -10695079.11808  22551926.24308  22551927.98108         0.00001
 -21843802.54009 -17021124.43508  20457044.64109  20457045.60008         0.00001
  -6038369.04048  -4705219.00646         0.00041  23214335.98246  23214334.71848
 94 02 20 02 40 00.0000000  0  7 02 05 07 09 12 13 24
  -5513658.85548  -4296338.76846         0.00041  22182526.88546  22182525.99748
  -5373620.63248  -4187231.45345         0.00041  24351792.47645  24351789.68448
 -20031891.29049 -15609218.66847         0.00041  21513635.06347  21513634.84549
 -18902269.55449 -14729027.84547         0.00041  21747461.12147  21747461.17449
 -13808394.26008 -10759775.85908  22536126.58008  22536128.34508         0.00001
 -21855682.56509 -17030381.57808  20454783.91309  20454784.86808         0.00001
  -6141669.58848  -4785712.89346         0.00041  23194679.47246  23194677.19548
 94 02 20 02 40 30.0000000  0  7 02 05 07 09 12 13 24
  -5462401.83948  -4256398.23546         0.00041  22192280.26246  22192279.99948
  -5452616.93848  -4248786.95546         0.00041  24336757.60946  24336757.14148
 -19969844.24149 -15560870.30847         0.00041  21525442.11647  21525441.96749
 -18966559.89249 -14779124.18247         0.00041  21735227.22847  21735227.05849
 -13891237.31208 -10824328.83008  22520362.02908  22520363.68408         0.00001
 -21867010.90809 -17039208.83908  20452628.18109  20452629.15208         0.00001
  -6244814.09448  -4866085.20446         0.00041  23175051.43346  23175049.43348
 94 02 20 02 41 00.0000000  0  7 02 05 07 09 12 13 24
  -5410917.35248  -4216280.45246         0.00041  22202077.78046  22202077.14748
  -5531636.07748  -4310360.22145         0.00041  24321721.80845  24321720.09848
 -19907603.82449 -15512371.27447         0.00041  21537286.17447  21537285.87849
 -19030435.38349 -14828897.26247         0.00041  21723071.64747  21723071.83549
 -13973902.04608 -10888742.85108  22504631.39108  22504633.07608         0.00001
 -21877796.71709 -17047613.34508  20450575.71309  20450576.62808         0.00001
  -6347792.35248  -4946327.96946         0.00041  23155454.55546  23155453.31548
 94 02 20 02 41 30.0000000  0  7 02 05 07 09 12 13 24
  -5359208.90248  -4175988.15246         0.00041  22211917.44946  22211917.03848
  -5610695.94148  -4371965.23345         0.00041  24306676.55045  24306675.35448
 -19845173.98649 -15463724.64147         0.00041  21549166.38247  21549166.01949
 -19093896.14949 -14878347.17847         0.00041  21710995.80847  21710995.75849
 -14056391.39208 -10953020.20708  22488934.15408  22488935.81108         0.00001
 -21888046.44809 -17055600.12708  20448625.21609  20448626.20208         0.00001
  -6450600.04648  -5026437.81446         0.00041  23135891.84446  23135889.52848
 94 02 20 02 42 00.0000000  0  7 02 05 07 09 12 13 24
  -5307261.94548  -4135510.00046         0.00041  22221802.53346  22221802.10848
  -5689789.87848  -4433596.80845         0.00041  24291628.04245  24291624.36748
 -19782556.33349 -15414931.65347         0.00041  21561082.25147  21561081.74849
 -19156929.49349 -14927464.03947         0.00041  21699001.00047  21699000.90449
 -14138685.79408 -11017145.65808  22473273.97308  22473275.57508         0.00001
 -21897743.81409 -17063156.49608  20446779.83209  20446780.80508         0.00001
  -6553223.94548  -5106404.45046         0.00041  23116361.29046  23116360.92548
 94 02 20 02 42 30.0000000  0  7 02 05 07 09 12 13 24
  -5255085.74348  -4094853.21546         0.00041  22231731.47046  22231730.98848
  -5768912.61048  -4495250.79945         0.00041  24276569.87245  24276567.60448
 -19719759.79549 -15365999.27747         0.00041  21573031.82447  21573031.48749
 -19219540.92049 -14976252.13347         0.00041  21687086.40147  21687086.43949
 -14220790.10408 -11081122.98608  22457650.01808  22457651.58208         0.00001
 -21906897.22609 -17070289.00508  20445038.00309  20445038.96208         0.00001
  -6655679.15448  -5186239.62646         0.00041  23096866.46846  23096864.28748
 94 02 20 02 43 00.0000000  0  7 02 05 07 09 12 13 24
  -5202688.38648  -4054024.10446         0.00041  22241702.18446  22241701.82948
  -5848070.69548  -4556932.31745         0.00041  24261506.90845  24261504.23848
 -19656786.86449 -15316929.45047         0.00041  21585015.48547  21585014.89349
 -19281722.12649 -15024704.98747         0.00041  21675253.57147  21675253.69849
 -14302702.74608 -11144950.96408  22442062.50808  22442064.04308         0.00001
 -21915508.35009 -17076998.95208  20443399.34009  20443400.26408         0.00001
  -6757971.69748  -5265948.05046         0.00041  23077399.50046  23077398.62648
 94 02 20 02 43 30.0000000  0  7 02 05 07 09 12 13 24
  -5150072.92248  -4013025.04046         0.00041  22251714.45246  22251714.19948
  -5927275.89848  -4618650.54545         0.00041  24246434.01345  24246431.83948
 -19593642.87849 -15267726.33647         0.00041  21597030.93147  21597030.63049
 -19343462.56549 -15072814.38947         0.00041  21663504.52047  21663504.69549
 -14384420.57908 -11208627.14208  22426512.09808  22426513.59108         0.00001
 -21923577.61409 -17083286.67008  20441863.79209  20441864.73008         0.00001
  -6860118.35248  -5345542.80346         0.00041  23057962.77346  23057960.77848
 94 02 20 02 44 00.0000000  0  7 02 05 07 09 12 13 24
  -5097235.02348  -3971852.65746         0.00041  22261769.37446  22261769.01048
  -6006511.89848  -4680392.78245         0.00041  24231355.76445  24231353.87348
 -19530322.98849 -15218386.15347         0.00041  21609080.24147  21609080.00249
 -19404752.21049 -15120572.52347         0.00041  21651841.71547  21651841.69149
 -14465936.68308 -11272146.12808  22410999.98208  22411001.57608         0.00001
 -21931101.39909 -17089149.33908  20440432.05009  20440432.98208         0.00001
  -6962121.00448  -5425025.35146         0.00041  23038550.54546  23038550.20048
 94 02 20 02 44 30.0000000  0  7 02 05 07 09 12 13 24
  -5044156.17848  -3930492.51446         0.00041  22271870.49546  22271869.53848
  -6085750.15648  -4742136.75345         0.00041  24216276.83445  24216275.13548
 -19466803.84149 -15168890.70247         0.00041  21621167.45447  21621167.17249
 -19465584.39449 -15167974.19247         0.00041  21640265.74047  21640265.76349
 -14547228.52008 -11335490.36508  22395530.70108  22395532.12508         0.00001
 -21938060.64409 -17094572.10508  20439107.76009  20439108.67408         0.00001
  -7063950.93048  -5504373.29446         0.00041  23019174.67946  23019172.60148
 94 02 20 02 45 00.0000000  0  7 02 05 07 09 12 13 24
  -4990832.32948  -3888941.46946         0.00041  22282017.50846  22282016.64848
  -6164991.63948  -4803883.26845         0.00041  24201197.69545  24201196.09748
 -19403082.87249 -15119237.99047         0.00041  21633293.32447  21633292.94449
 -19525960.22249 -15215020.25747         0.00041  21628776.39547  21628776.49349
 -14628287.22708 -11398652.94008  22380105.72308  22380107.12108         0.00001
 -21944450.31209 -17099551.04608  20437891.85509  20437892.75508         0.00001
  -7165585.38748  -5583568.92946         0.00041  22999833.37846  22999832.14848
 94 02 20 02 45 30.0000000  0  7 02 05 07 09 12 13 24
  -4937286.13248  -3847217.16446         0.00041  22292206.65846  22292206.19048
  -6244247.43548  -4865640.89345         0.00041  24186115.05045  24186114.08448
 -19339175.24049 -15069439.82447         0.00041  21645454.42347  21645454.15049
 -19585923.98249 -15261745.23347         0.00041  21617365.50047  21617365.73349
 -14709135.25308 -11461651.34908  22364720.77808  22364722.23008         0.00001
 -21950296.05409 -17104106.15008  20436779.43509  20436780.31808         0.00001
  -7267047.00848  -5662629.87646         0.00041  22980526.72246  22980524.68148
 94 02 20 02 46 00.0000000  0  7 02 05 07 09 12 13 24
  -4883502.18748  -3805307.60046         0.00041  22302441.50946  22302440.90948
  -6323499.72648  -4927395.80645         0.00041  24171034.87645  24171032.72348
 -19275070.86749 -15019488.35547         0.00041  21657653.05547  21657652.77149
 -19645481.01549 -15308153.27947         0.00041  21606032.29847  21606032.39849
 -14789763.47708 -11524478.48508  22349377.68508  22349379.11008         0.00001
 -21955592.56509 -17108233.28208  20435771.55109  20435772.40508         0.00001
  -7368316.12648  -5741540.82646         0.00041  22961255.41946  22961253.69048
 94 02 20 02 46 30.0000000  0  7 02 05 07 09 12 13 24
  -4829461.99548  -3763198.36846         0.00041  22312724.79646  22312724.28448
  -6402735.87748  -4989138.13846         0.00041  24155955.30746  24155954.44148
 -19210750.52549 -14969368.59747         0.00041  21669893.05947  21669892.57549
 -19704614.32349 -15354231.15047         0.00041  21594779.74747  21594779.77949
 -14870155.59808 -11587121.64308  22334079.53608  22334080.95808         0.00001
 -21960326.88009 -17111922.33908  20434870.62409  20434871.47008         0.00001
  -7469359.84948  -5820276.14346         0.00041  22942028.00646  22942025.70248
 94 02 20 02 47 00.0000000  0  7 02 05 07 09 12 13 24
  -4775171.56648  -3720894.14746         0.00041  22323056.47946  22323055.47048
  -6481971.98448  -5050880.43745         0.00041  24140877.58045  24140876.26548
 -19146218.64449 -14919084.00247         0.00041  21682172.83547  21682172.50949
 -19763321.76649 -15399977.18047         0.00041  21583607.94647  21583607.98449
 -14950327.02108 -11649592.83008  22318823.33808  22318824.77308         0.00001
 -21964518.36909 -17115188.41508  20434072.99309  20434073.85608         0.00001
  -7570194.72648  -5898848.72046         0.00041  22922839.41346  22922837.35748
 94 02 20 02 47 30.0000000  0  7 02 05 07 09 12 13 24
  -4720642.24748  -3678403.77246         0.00041  22333432.82146  22333432.03248
  -6561237.06048  -5112645.29146         0.00041  24125792.26946  24125792.49748
 -19081510.14849 -14868661.78747         0.00041  21694486.16347  21694486.16349
 -19821617.31649 -15445402.25447         0.00041  21572514.73847  21572514.81749
 -15030305.42508 -11711913.61608  22303603.94008  22303605.35508         0.00001
 -21968198.06209 -17118055.68908  20433372.75809  20433373.59308         0.00001
  -7670852.71348  -5977283.45646         0.00041  22903683.83346  22903682.71748
 94 02 20 02 48 00.0000000  0  7 02 05 07 09 12 13 24
  -4665871.35548  -3635725.16646         0.00041  22343855.23446  22343854.65248
  -6640534.37248  -5174435.28645         0.00041  24110703.93845  24110702.86448
 -19016640.94749 -14818114.34847         0.00041  21706830.38147  21706830.29949
 -19879476.73849 -15490487.48647         0.00041  21561504.26547  21561504.46949
 -15110089.17008 -11774082.71908  22288421.57208  22288422.94908         0.00001
 -21971367.98809 -17120525.74208  20432769.51409  20432770.35208         0.00001
  -7771325.72048  -6055574.06646         0.00041  22884565.27346  22884563.37348
 94 02 20 02 48 30.0000000  0  7 02 05 07 09 12 13 24
  -4610888.42548  -3592881.33046         0.00041  22354317.93246  22354317.47648
  -6719883.82448  -5236265.91846         0.00041  24095605.05046  24095602.79948
 -18951636.13049 -14767461.23247         0.00041  21719200.71047  21719200.39049
 -19936914.30849 -15535244.00647         0.00041  21550574.33147  21550574.42549
 -15189698.05208 -11836115.56808  22273272.46908  22273273.86308         0.00001
 -21974051.91809 -17122617.09808  20432258.75709  20432259.60008         0.00001
  -7871631.64648  -6133734.46646         0.00041  22865477.79946  22865475.69248
 94 02 20 02 49 00.0000000  0  7 02 05 07 09 12 13 24
  -4555688.71848  -3549868.58046         0.00041  22364822.78546  22364821.65948
  -6799292.76348  -5298142.89346         0.00041  24080492.13546  24080491.77048
 -18886509.69349 -14716713.35047         0.00041  21731593.76847  21731593.57149
 -19993931.05949 -15579672.61347         0.00041  21539724.24547  21539724.51149
 -15269120.85008 -11898003.41808  22258158.76808  22258160.16908         0.00001
 -21976242.09809 -17124323.71308  20431841.96709  20431842.81608         0.00001
  -7971774.20448  -6211767.58346         0.00041  22846420.58046  22846419.21648
 94 02 20 02 49 30.0000000  0  7 02 05 07 09 12 13 24
  -4500225.11448  -3506650.19246         0.00041  22375376.61746  22375375.92048
  -6878701.89048  -5360020.04146         0.00041  24065383.17046  24065380.82348
 -18821224.46949 -14665841.73347         0.00041  21744017.19947  21744016.89249
 -20050467.52749 -15623726.97747         0.00041  21528965.79747  21528965.91349
 -15348289.56308 -11959693.28008  22243093.43508  22243094.86908         0.00001
 -21977874.49909 -17125595.69508  20431531.31509  20431532.13508         0.00001
  -8071689.87248  -6289623.89146         0.00041  22827407.41946  22827405.83848
 94 02 20 02 50 00.0000000  0  7 02 05 07 09 12 13 24
  -4444524.26948  -3463246.93846         0.00041  22385976.58246  22385975.68348
  -6958110.80148  -5421897.01045         0.00041  24050271.36145  24050269.69948
 -18755778.73049 -14614845.04347         0.00041  21756470.99747  21756470.76249
 -20106539.70349 -15667419.55047         0.00041  21518295.60947  21518295.67249
 -15427204.85708 -12021185.67508  22228076.32308  22228077.71908         0.00001
 -21978953.26909 -17126436.27808  20431326.01009  20431326.86808         0.00001
  -8171385.36548  -6367308.63546         0.00041  22808436.01946  22808434.37048
 94 02 20 02 50 30.0000000  0  7 02 05 07 09 12 13 24
  -4388657.58748  -3419714.46446         0.00041  22396607.82446  22396606.74348
  -7037588.15948  -5483827.32846         0.00041  24035147.64446  24035145.60848
 -18690236.16449 -14563772.90347         0.00041  21768943.29947  21768943.15549
 -20162208.68549 -15710797.94747         0.00041  21507701.98947  21507702.22149
 -15505926.20108 -12082526.94108  22213096.13108  22213097.53108         0.00001
 -21979542.12309 -17126895.10508  20431213.93809  20431214.75708         0.00001
  -8270934.04348  -6444878.99446         0.00041  22789492.38546  22789490.81148
 94 02 20 02 51 00.0000000  0  7 02 05 07 09 12 13 24
  -4332563.18048  -3376004.54246         0.00041  22407281.61246  22407281.09948
  -7117069.92948  -5545761.08446         0.00041  24020022.21546  24020020.72148
 -18624533.83949 -14512576.27447         0.00041  21781445.90347  21781445.89749
 -20217400.37049 -15753804.42547         0.00041  21497199.34747  21497199.56449
 -15584386.87808 -12143665.09008  22198165.53808  22198166.89108         0.00001
 -21979577.76809 -17126922.86308  20431207.16809  20431207.97908         0.00001
  -8370275.83248  -6522288.12246         0.00041  22770588.27446  22770586.63548
 94 02 20 02 51 30.0000000  0  7 02 05 07 09 12 13 24
  -4276235.63148  -3332112.95546         0.00041  22418000.37146  22417999.77248
  -7196538.32148  -5607684.42646         0.00041  24004898.78246  24004898.31248
 -18558653.32649 -14461240.79647         0.00041  21793982.53147  21793982.44949
 -20272094.18449 -15796422.95147         0.00041  21486791.68947  21486791.68049
 -15662582.06808 -12204596.36608  22183285.47408  22183286.85008         0.00001
 -21979059.35309 -17126518.88808  20431305.80709  20431306.61008         0.00001
  -8469393.39148  -6599522.53446         0.00041  22751726.50146  22751725.27948
 94 02 20 02 52 00.0000000  0  7 02 05 07 09 12 13 24
  -4219689.29748  -3288050.88246         0.00041  22428761.02146  22428760.23848
  -7276016.82548  -5669615.63146         0.00041  23989775.50146  23989773.97948
 -18492608.20648 -14409777.05747         0.00041  21806550.75147  21806550.51848
 -20326304.02249 -15838664.35247         0.00041  21476475.68847  21476475.84049
 -15740534.39508 -12265338.39608  22168451.58708  22168452.96508         0.00001
 -21978013.19209 -17125703.67408  20431504.87409  20431505.66308         0.00001
  -8568304.43348  -6676596.02246         0.00041  22732904.80346  22732903.01248
 94 02 20 02 52 30.0000000  0  8 02 04 05 07 09 12 13 24
  -4162895.83348  -3243796.23746         0.00041  22439568.75746  22439567.74248
        -0.55259         0.14458         0.00051  21142085.68758  21142086.01959
  -7355501.38748  -5731551.57746         0.00041  23974650.14646  23974648.46048
 -18426388.01948 -14358176.89847         0.00041  21819151.74147  21819151.65048
 -20380013.43649 -15880515.81247         0.00041  21466254.81847  21466255.21749
 -15818232.01708 -12325881.95608  22153666.19808  22153667.56908         0.00001
 -21976431.55209 -17124471.20708  20431805.83309  20431806.64308         0.00001
  -8666983.63348  -6753488.85746         0.00041  22714126.46746  22714124.99748
 94 02 20 02 53 00.0000000  0  8 02 04 05 07 09 12 13 24
  -4105861.29148  -3199353.73846         0.00041  22450421.76746  22450421.08548
    -54152.36749    -42196.03947         0.00041  21131780.98647  21131781.32449
  -7435011.10148  -5793507.09746         0.00041  23959520.60946  23959518.32948
 -18360006.87348 -14306451.31647         0.00041  21831783.80647  21831783.55348
 -20433258.14349 -15922005.16347         0.00041  21456122.95447  21456123.05949
 -15895697.05808 -12386244.28008  22138925.06408  22138926.40508         0.00001
 -21974340.50109 -17122841.80108  20432203.71809  20432204.51208         0.00001
  -8765435.48148  -6830204.52846         0.00041  22695391.50546  22695390.23448
 94 02 20 02 53 30.0000000  0  8 02 04 05 07 09 12 13 24
  -4048548.39148  -3154694.33946         0.00041  22461327.88146  22461327.36848
   -107772.29249    -83977.76648         0.00041  21121577.28048  21121577.65749
  -7514524.08048  -5855465.18446         0.00041  23944388.84946  23944387.41848
 -18293441.60848 -14254582.26747         0.00041  21844450.86447  21844450.59248
 -20486026.00749 -15963122.95147         0.00041  21446081.79347  21446081.72549
 -15972903.08408 -12446404.77308  22124233.18108  22124234.53308         0.00001
 -21971717.39409 -17120797.80208  20432702.85109  20432703.64708         0.00001
  -8863638.56148  -6906726.36846         0.00041  22676704.11646  22676702.70748
 94 02 20 02 54 00.0000000  0  8 02 04 05 07 09 12 13 24
  -3990974.07648  -3109831.24146         0.00041  22472284.32446  22472283.28748
   -160881.08049   -125361.20048         0.00041  21111471.20448  21111471.45749
  -7594063.91848  -5917444.17946         0.00041  23929253.32846  23929251.39248
 -18226713.03048 -14202585.95647         0.00041  21857148.99447  21857148.63248
 -20538343.40349 -16003889.72047         0.00041  21436125.87647  21436125.94549
 -16049867.30308 -12506376.84208  22109587.34608  22109588.67308         0.00001
 -21968583.48009 -17118355.77208  20433299.19509  20433300.01108         0.00001
  -8961620.73048  -6983076.05846         0.00041  22658058.76046  22658057.37548
 94 02 20 02 54 30.0000000  0  8 02 04 05 07 09 12 13 24
  -3933145.92748  -3064770.34246         0.00041  22483289.01846  22483287.68448
   -213513.52949   -166373.46348         0.00041  21101455.55248  21101455.75249
  -7673640.39448  -5979451.73346         0.00041  23914110.19246  23914108.31748
 -18159843.04148 -14150479.45547         0.00041  21869873.89647  21869873.45348
 -20590232.73149 -16044322.93447         0.00041  21426251.53047  21426251.78949
 -16126604.73508 -12566172.19208  22094984.65308  22094985.99908         0.00001
 -21964957.71709 -17115530.48208  20433989.18809  20433989.93108         0.00001
  -9059391.33948  -7059260.89646         0.00041  22639453.67846  22639452.12448
 94 02 20 02 55 00.0000000  0  8 02 04 05 07 09 12 13 24
  -3875058.78948  -3019507.64646         0.00041  22494342.06546  22494341.34848
   -265643.96449   -206994.54548         0.00041  21091535.39848  21091535.64149
  -7753230.31648  -6041469.79246         0.00041  23898963.78246  23898962.78948
 -18092828.12548 -14098260.02347         0.00041  21882625.90647  21882625.86348
 -20641671.11149 -16084404.76047         0.00041  21416463.06247  21416463.36249
 -16203094.90108 -12625774.86808  22080429.00708  22080430.30708         0.00001
 -21960823.72909 -17112309.16808  20434775.79909  20434776.61008         0.00001
  -9156945.64948  -7135277.18546         0.00041  22620889.69946  22620888.08748
 94 02 20 02 55 30.0000000  0  8 02 04 05 07 09 12 13 24
  -3816726.59348  -2974053.98446         0.00041  22505442.20846  22505441.55448
   -317265.58049   -247219.14848         0.00041  21081711.97548  21081712.26849
  -7832822.28148  -6103489.42546         0.00041  23883816.78246  23883816.97048
 -18025675.01048 -14045932.90147         0.00041  21895404.87547  21895404.80348
 -20692649.78749 -16124128.37047         0.00041  21406762.21247  21406762.45449
 -16279331.68708 -12685180.10308  22065921.60008  22065922.92908         0.00001
 -21956179.38309 -17108690.17408  20435659.58309  20435660.36508         0.00001
  -9254298.33948  -7211136.36646         0.00041  22602364.27546  22602362.51948
 94 02 20 02 56 00.0000000  0  8 02 04 05 07 09 12 13 24
  -3758161.65048  -2928418.96946         0.00041  22516586.42546  22516585.93448
   -368373.72849   -287043.64748         0.00041  21071986.43948  21071986.75349
  -7912409.39048  -6165505.27546         0.00041  23868674.21246  23868671.79748
 -17958380.69648 -13993495.75547         0.00041  21908210.68547  21908210.52048
 -20743154.17749 -16163482.41147         0.00041  21397151.64247  21397151.69849
 -16355311.59008 -12744385.17008  22051463.07108  22051464.34308         0.00001
 -21951025.19009 -17104673.90108  20436640.35409  20436641.15408         0.00001
  -9351433.62248  -7286826.13946         0.00041  22583879.63746  22583878.17348
 94 02 20 02 56 30.0000000  0  8 02 04 05 07 09 12 13 24
  -3699377.85248  -2882613.42446         0.00041  22527772.50046  22527772.17648
   -418970.06349   -326469.32648         0.00041  21062358.11048  21062358.60649
  -7991988.91048  -6227515.23446         0.00041  23853529.46546  23853528.35348
 -17890959.58648 -13940959.80747         0.00041  21921040.55447  21921040.36048
 -20793195.73449 -16202475.80547         0.00041  21387628.76747  21387628.98449
 -16431036.47308 -12803391.52108  22037053.07908  22037054.31308         0.00001
 -21945367.08409 -17100264.96308  20437717.06909  20437717.81808         0.00001
  -9448353.55548  -7362348.10646         0.00041  22565436.30946  22565434.94348
 94 02 20 02 57 00.0000000  0  8 02 04 05 07 09 12 13 24
  -3640412.30148  -2836666.23846         0.00041  22538993.28446  22538992.95148
   -469054.57649   -365496.18548         0.00041  21052827.29148  21052827.82949
  -8071577.53648  -6289532.26946         0.00041  23838382.46746  23838383.15248
 -17823417.08048 -13888329.26747         0.00041  21933893.13247  21933893.21548
 -20842786.14549 -16241117.65447         0.00041  21378191.99147  21378192.12849
 -16506516.58908 -12862207.14608  22022689.64608  22022690.84008         0.00001
 -21939219.47209 -17095474.59408  20438886.87009  20438887.64508         0.00001
  -9545078.30148  -7437717.98546         0.00041  22547030.10846  22547028.86048
 94 02 20 02 57 30.0000000  0  8 02 04 05 07 09 12 13 24
  -3581228.96548  -2790549.35146         0.00041  22550256.15446  22550255.19648
   -518611.68849   -404112.08248         0.00041  21043397.02348  21043397.39249
  -8151153.48948  -6351539.44746         0.00041  23823240.96846  23823239.97148
 -17755719.06748 -13835577.54747         0.00041  21946775.82547  21946775.71948
 -20891893.57749 -16279383.15747         0.00041  21368847.09447  21368847.36649
 -16581717.92208 -12920805.53608  22008379.26408  22008380.51908         0.00001
 -21932552.37509 -17090279.43108  20440155.58509  20440156.30208         0.00001
  -9641555.21248  -7512894.73446         0.00041  22528670.83546  22528669.91048
 94 02 20 02 58 00.0000000  0  8 02 04 05 07 09 12 13 24
  -3521845.26948  -2744276.35846         0.00041  22561556.56246  22561555.55648
   -567676.55449   -442344.41148         0.00041  21034059.94048  21034060.51249
  -8230767.51148  -6413576.24746         0.00041  23808091.35946  23808089.94848
 -17687896.89248 -13782729.08347         0.00041  21959682.10247  21959681.88748
 -20940545.89949 -16317294.02847         0.00041  21359588.82147  21359589.12149
 -16656665.81708 -12979206.44508  21994117.11408  21994118.38808         0.00001
 -21925395.16509 -17084702.36308  20441517.53109  20441518.25508         0.00001
  -9737789.32748  -7587882.30246         0.00041  22510357.82146  22510357.03948
 94 02 20 02 58 30.0000000  0  8 02 04 05 07 09 12 13 24
  -3462228.10348  -2697821.42246         0.00041  22572900.98646  22572900.24848
   -616219.61149   -480170.13448         0.00041  21024822.58348  21024823.17549
  -8310401.69348  -6475628.75046         0.00041  23792936.85946  23792936.04548
 -17619928.95348 -13729767.03447         0.00041  21972615.66147  21972615.71148
 -20988719.74149 -16354832.05847         0.00041  21350421.75947  21350422.07049
 -16731325.60708 -13037382.85708  21979909.78608  21979911.01508         0.00001
 -21917717.36009 -17078719.63608  20442978.57609  20442979.26808         0.00001
  -9833748.59148  -7662655.69946         0.00041  22492097.13546  22492096.65148
 94 02 20 02 59 00.0000000  0  8 02 04 05 07 09 12 13 24
  -3402376.61248  -2651183.90646         0.00041  22584290.18446  22584289.62448
   -664249.41449   -517595.91648         0.00041  21015682.90048  21015683.34049
  -8390069.70448  -6537707.66246         0.00041  23777775.87146  23777775.59748
 -17551821.77448 -13676696.49147         0.00041  21985576.12547  21985576.13748
 -21036412.66249 -16391995.34547         0.00041  21341346.13647  21341346.37049
 -16805702.38608 -13095338.74308  21965756.32708  21965757.53808         0.00001
 -21909528.47609 -17072338.66608  20444536.84809  20444537.55908         0.00001
  -9929426.68448  -7737210.00046         0.00041  22473891.03546  22473889.65148
 94 02 20 02 59 30.0000000  0  8 02 04 05 07 09 12 13 24
  -3342262.32648  -2604341.61846         0.00041  22595729.71346  22595729.15048
   -711757.28749   -554615.00248         0.00041  21006642.40748  21006642.79949
  -8469761.22248  -6599804.84346         0.00041  23762611.31946  23762610.77248
 -17483567.74648 -13623511.51647         0.00041  21998564.30847  21998564.40448
 -21083617.76649 -16428778.51447         0.00041  21332363.34847  21332363.50849
 -16879783.05308 -13153063.89508  21951659.19908  21951660.41908         0.00001
 -21900819.33109 -17065552.29808  20446194.15309  20446194.83408         0.00001
 -10024809.50148  -7811534.21946         0.00041  22455739.94446  22455738.90848
 94 02 20 03 00 00.0000000  0  8 02 04 05 07 09 12 13 24
  -3281899.67448  -2557305.78946         0.00041  22607215.82346  22607215.70948
   -758738.30449   -591223.54948         0.00041  20997702.16548  20997702.62749
  -8549465.47748  -6661911.99646         0.00041  23747444.66846  23747443.35448
 -17415173.50848 -13570217.28747         0.00041  22011579.82347  22011579.33548
 -21130339.58049 -16465185.09747         0.00041  21323472.32447  21323472.59849
 -16953575.32708 -13210564.32808  21937616.97408  21937618.14308         0.00001
 -21891601.93609 -17058369.89108  20447948.14709  20447948.81208         0.00001
 -10119914.16248  -7885641.69346         0.00041  22437641.72746  22437641.02248
 94 02 20 03 00 30.0000000  0  8 02 04 05 07 09 12 13 24
  -3221287.62448  -2510075.64346         0.00041  22618750.61646  22618749.74548
   -805180.24249   -627412.03748         0.00041  20988864.57348  20988865.05049
  -8629139.10648  -6723995.23446         0.00041  23732283.32846  23732281.91848
 -17346630.61048 -13516807.22547         0.00041  22024622.66147  22024622.59948
 -21176555.65249 -16501197.59247         0.00041  21314677.57847  21314677.89349
 -17027067.71708 -13267831.08408  21923631.79208  21923632.98908         0.00001
 -21881869.10109 -17050785.84508  20449800.22009  20449800.92108         0.00001
 -10214736.08548  -7959528.84646         0.00041  22419597.78746  22419596.89648
 94 02 20 03 01 00.0000000  0  8 02 04 05 07 09 12 13 24
  -3160445.01548  -2462665.82946         0.00041  22630328.22746  22630327.82048
   -851120.37549   -663209.50448         0.00041  20980122.47348  20980122.90749
  -8708803.36348  -6786071.17846         0.00041  23717125.46946  23717122.23148
 -17277970.14648 -13463305.55247         0.00041  22037688.53847  22037688.26448
 -21222279.94349 -16536826.88047         0.00041  21305976.62047  21305976.81949
 -17100294.76508 -13324891.08408  21909697.13608  21909698.28108         0.00001
 -21871659.45109 -17042830.25708  20451743.02309  20451743.71008         0.00001
 -10309314.25548  -8033226.06546         0.00041  22401600.13146  22401599.35448
 94 02 20 03 01 30.0000000  0  8 02 04 05 07 09 12 13 24
  -3099355.03648  -2415063.26246         0.00041  22641953.68346  22641952.94748
   -896542.08149   -698603.00548         0.00041  20971478.90948  20971479.36949
  -8788446.47248  -6848130.66046         0.00041  23701968.17946  23701966.57948
 -17209180.44348 -13409703.16547         0.00041  22050778.54347  22050778.46748
 -21267485.89149 -16572052.26947         0.00041  21297374.08947  21297374.49349
 -17173238.19008 -13381730.07708  21895816.44808  21895817.49908         0.00001
 -21860959.04709 -17034492.26208  20453779.22009  20453779.96108         0.00001
 -10403640.17348  -8106726.72646         0.00041  22383650.97046  22383649.52048
 94 02 20 03 02 00.0000000  0  8 02 04 05 07 09 12 13 24
  -3038021.58148  -2367270.96146         0.00041  22653624.98646  22653624.32348
   -941450.16649   -733596.28448         0.00041  20962933.22348  20962933.69449
  -8868070.41748  -6910175.23146         0.00041  23686815.48446  23686814.56948
 -17140274.95648 -13356010.57347         0.00041  22063890.97047  22063890.79948
 -21312163.77049 -16606866.17547         0.00041  21288872.41947  21288872.54349
 -17245898.44808 -13438348.42208  21881989.65408  21881990.73508         0.00001
 -21849772.57009 -17025775.50908  20455907.90609  20455908.65508         0.00001
 -10497703.72148  -8180022.94846         0.00041  22365751.60046  22365749.81948
 94 02 20 03 02 30.0000000  0  8 02 04 05 07 09 12 13 24
  -2976481.04348  -2319317.29946         0.00041  22665335.90046  22665335.04548
   -985887.52749   -768222.76748         0.00041  20954477.13648  20954477.50849
  -8947736.70148  -6972252.78246         0.00041  23671656.20546  23671654.59648
 -17071292.22448 -13302257.77847         0.00041  22077017.53547  22077017.63248
 -21356359.03649 -16641304.01947         0.00041  21280462.09047  21280462.36349
 -17318314.30008 -13494776.32608  21868209.35308  21868210.39508         0.00001
 -21838142.95009 -17016713.44908  20458120.91709  20458121.66508         0.00001
 -10591551.15248  -8253150.76546         0.00041  22347891.97046  22347891.18948
 94 02 20 03 03 00.0000000  0  8 02 04 05 07 09 12 13 24
  -2914692.15248  -2271170.12846         0.00041  22677093.62546  22677093.15348
  -1029795.58649   -802436.80748         0.00041  20946121.45848  20946122.01649
  -9027427.21348  -7034349.20746         0.00041  23656491.39346  23656490.05848
 -17002189.08048 -13248411.16446         0.00041  22090167.60046  22090167.56948
 -21400038.49249 -16675339.93747         0.00041  21272150.11847  21272150.48449
 -17390440.36908 -13550978.42308  21854484.20508  21854485.23408         0.00001
 -21826029.40009 -17007274.30408  20460426.02709  20460426.78008         0.00001
 -10685142.35748  -8326078.92646         0.00041  22330082.65346  22330081.38248
 94 02 20 03 03 30.0000000  0  8 02 04 05 07 09 12 13 24
  -2852670.25748  -2222841.37046         0.00041  22688896.10646  22688895.67248
  -1073158.61449   -836226.15048         0.00041  20937869.81148  20937870.32449
  -9107146.21848  -7096467.82946         0.00041  23641321.40546  23641320.16348
 -16932972.59748 -13194476.22846         0.00041  22103339.33546  22103339.01548
 -21443230.32249 -16708995.88347         0.00041  21263931.02347  21263931.36349
 -17462269.56308 -13606949.19308  21840815.52608  21840816.55008         0.00001
 -21813429.00809 -16997455.79908  20462823.80109  20462824.51008         0.00001
 -10778460.55448  -8398794.35246         0.00041  22312324.27646  22312323.44648
 94 02 20 03 04 00.0000000  0  8 02 04 05 07 09 12 13 24
  -2790432.10248  -2174344.11846         0.00041  22700739.24646  22700739.20948
  -1115973.55749   -869588.40448         0.00041  20929722.40048  20929722.87649
  -9186898.41248  -7158612.32546         0.00041  23626144.01946  23626143.64148
 -16863649.08048 -13140457.88746         0.00041  22116531.04846  22116530.82548
 -21485947.66149 -16742282.10847         0.00041  21255802.16847  21255802.51049
 -17533805.10708 -13662691.14408  21827202.70508  21827203.75208         0.00001
 -21800349.31809 -16987263.81608  20465312.78509  20465313.49608         0.00001
 -10871514.71048  -8471304.03146         0.00041  22294617.01746  22294615.78548
 94 02 20 03 04 30.0000000  0  8 02 04 05 07 09 12 13 24
  -2727961.63148  -2125665.82146         0.00041  22712627.79346  22712626.88648
  -1158210.91749   -902500.60848         0.00041  20921684.92148  20921685.23849
  -9266661.95248  -7220765.63946         0.00041  23610967.08546  23610964.92848
 -16794196.20648 -13086338.75546         0.00041  22129747.81746  22129747.27348
 -21528176.90749 -16775187.97948         0.00041  21247766.16548  21247766.56549
 -17605022.80908 -13718185.42708  21813650.40708  21813651.47308         0.00001
 -21786770.42909 -16976682.84608  20467896.71409  20467897.44608         0.00001
 -10964287.30448  -8543594.31746         0.00041  22276962.92846  22276961.77148
 94 02 20 03 05 00.0000000  0  8 02 04 05 07 09 12 13 24
  -2665234.56848  -2076787.61046         0.00041  22724564.10946  22724563.51448
  -1199854.11449   -934949.82448         0.00041  20913760.25248  20913760.86949
  -9346411.80448  -7282908.28746         0.00041  23595790.38346  23595789.11748
 -16724603.64148 -13032110.77047         0.00041  22142990.29947  22142990.30848
 -21569894.36349 -16807695.06147         0.00041  21239827.74147  21239827.91949
 -17675900.03108 -13773414.40108  21800162.87708  21800163.95008         0.00001
 -21772674.19709 -16965698.75208  20470579.14809  20470579.85608         0.00001
 -11056732.22948  -8615629.27446         0.00041  22259370.89346  22259369.99748
 94 02 20 03 05 30.0000000  0  8 02 04 05 07 09 12 13 24
  -2602269.12548  -2027723.62746         0.00041  22736545.46146  22736545.14348
  -1240937.84149   -966963.08648         0.00041  20905942.26348  20905942.87249
  -9426159.32748  -7345049.11346         0.00041  23580613.61946  23580613.59648
 -16654888.07748 -12977786.94346         0.00041  22156256.90846  22156256.66548
 -21611103.12849 -16839805.76547         0.00041  21231985.72247  21231986.08849
 -17746456.54008 -13828393.46808  21786736.39308  21786737.46008         0.00001
 -21758084.87509 -16954330.43308  20473355.43709  20473356.09708         0.00001
 -11148857.44548  -8687415.11246         0.00041  22241839.91446  22241839.05048
 94 02 20 03 06 00.0000000  0  8 02 04 05 07 09 12 13 24
  -2539084.92248  -1978489.19346         0.00041  22748568.39646  22748568.75948
  -1281480.38849   -998554.65548         0.00041  20898227.13448  20898227.81549
  -9505910.38748  -7407192.68346         0.00041  23565439.08946  23565437.33448
 -16585051.37748 -12923368.72046         0.00041  22169546.30646  22169546.18648
 -21651794.81849 -16871513.54947         0.00041  21224242.43347  21224242.69949
 -17816711.15708 -13883137.29608  21773367.35008  21773368.43908         0.00001
 -21743025.60109 -16942595.91908  20476221.12409  20476221.78508         0.00001
 -11240685.60448  -8758969.46646         0.00041  22224365.92946  22224364.74948
 94 02 20 03 06 30.0000000  0  8 02 04 05 07 09 12 13 24
  -2475651.48948  -1929060.53846         0.00041  22760640.68046  22760639.77348
  -1321463.52249  -1029710.31548         0.00041  20890618.68448  20890619.28649
  -9585636.97148  -7469317.17246         0.00041  23550266.84746  23550265.84148
 -16515072.68948 -12868839.86346         0.00041  22182862.79146  22182862.63948
 -21691945.28649 -16902799.60647         0.00041  21216602.04147  21216602.35949
 -17886643.23308 -13937629.79208  21760059.71308  21760060.79008         0.00001
 -21727480.03509 -16930482.47708  20479179.35909  20479180.00308         0.00001
 -11332182.59448  -8830265.77146         0.00041  22206954.57246  22206953.41748
 94 02 20 03 07 00.0000000  0  8 02 04 05 07 09 12 13 24
  -2411982.23948  -1879448.13746         0.00041  22772756.93846  22772755.57448
  -1360903.65049  -1060442.85048         0.00041  20883113.49048  20883114.10449
  -9665355.68648  -7531435.52146         0.00041  23535096.89546  23535095.79048
 -16444971.90448 -12814215.86446         0.00041  22196202.73646  22196202.40748
 -21731555.94349 -16933665.03147         0.00041  21209064.21047  21209064.64349
 -17956266.45308 -13991881.62308  21746810.83208  21746811.88408         0.00001
 -21711466.31609 -16918004.23908  20482226.65909  20482227.28008         0.00001
 -11423366.39648  -8901318.03846         0.00041  22189601.84346  22189601.58648
 94 02 20 03 07 30.0000000  0  8 02 04 05 07 09 12 13 24
  -2348075.36148  -1829650.56246         0.00041  22784917.83546  22784916.75748
  -1399784.17049  -1090739.33048         0.00041  20875714.82448  20875715.34449
  -9745050.46348  -7593535.23646         0.00041  23519931.69646  23519930.33548
 -16374745.33348 -12759493.84446         0.00041  22209566.22146  22209566.02148
 -21770624.25149 -16964107.85047         0.00041  21201630.03447  21201630.20849
 -18025572.89808 -14045886.61608  21733622.24008  21733623.27108         0.00001
 -21694981.05109 -16905158.56208  20485363.69709  20485364.30508         0.00001
 -11514259.30748  -8972143.62846         0.00041  22172306.10446  22172305.26448
 94 02 20 03 08 00.0000000  0  8 02 04 05 07 09 12 13 24
  -2283931.17548  -1779668.08846         0.00041  22797123.27146  22797123.00448
  -1438112.75149  -1120605.72748         0.00041  20868421.08848  20868421.70349
  -9824734.39948  -7655626.48746         0.00041  23504767.34946  23504766.95648
 -16304418.33348 -12704693.56946         0.00041  22222948.88546  22222948.73748
 -21809182.32549 -16994153.08048         0.00041  21194292.40948  21194292.91249
 -18094572.14208 -14099652.23108  21720492.12508  21720493.13108         0.00001
 -21678038.17509 -16891956.30708  20488587.79909  20488588.39008         0.00001
 -11604888.98648  -9042764.10746         0.00041  22155060.01446  22155058.97348
 94 02 20 03 08 30.0000000  0  8 02 04 05 07 09 12 13 24
  -2219530.07448  -1729485.43046         0.00041  22809378.92946  22809378.15048
  -1475885.80549  -1150039.25248         0.00041  20861232.90848  20861233.61049
  -9904408.43448  -7717710.03746         0.00041  23489605.19346  23489605.37748
 -16234007.75948 -12649828.16946         0.00041  22236347.69846  22236347.47948
 -21847227.84649 -17023798.92348         0.00041  21187052.59448  21187052.97749
 -18163247.45808 -14153165.43508  21707423.61008  21707424.66208         0.00001
 -21660625.33009 -16878387.83908  20491901.33609  20491901.95308         0.00001
 -11695238.40248  -9113166.19246         0.00041  22137866.82646  22137866.07348
 94 02 20 03 09 00.0000000  0  8 02 04 05 07 09 12 13 24
  -2154878.10748  -1679107.27746         0.00041  22821681.64946  22821681.10848
  -1513114.38049  -1179048.50848         0.00041  20854148.57348  20854149.19349
  -9984082.14348  -7779793.33246         0.00041  23474444.24846  23474443.89848
 -16163524.05948 -12594905.79146         0.00041  22249760.61346  22249760.05748
 -21884777.73149 -17053058.55948         0.00041  21179906.87848  21179907.30349
 -18231601.21208 -14206428.07408  21694416.33708  21694417.30808         0.00001
 -21642749.67909 -16864458.74408  20495302.94009  20495303.55108         0.00001
 -11785320.70648  -9183360.14246         0.00041  22120724.96646  22120724.01048
 94 02 20 03 09 30.0000000  0  8 02 04 05 07 09 12 13 24
  -2089945.69548  -1628510.59546         0.00041  22834038.67346  22834037.36148
  -1549767.35449  -1207609.23948         0.00041  20847173.87748  20847174.38049
 -10063722.20048  -7841850.39946         0.00041  23459289.43946  23459288.93148
 -16092931.93448 -12539898.92546         0.00041  22263193.44346  22263193.23148
 -21921811.97149 -17081916.39848         0.00041  21172859.52548  21172859.92849
 -18299602.75308 -14259416.26108  21681476.02608  21681477.06508         0.00001
 -21624384.89309 -16850148.50208  20498797.63309  20498798.26108         0.00001
 -11875100.49148  -9253318.36346         0.00041  22103640.22746  22103639.39648
 94 02 20 03 10 00.0000000  0  8 02 04 05 07 09 12 13 24
  -2024775.06948  -1577728.29246         0.00041  22846439.18746  22846438.77348
  -1585891.61149  -1235757.98448         0.00041  20840299.58148  20840300.13949
 -10143374.43548  -7903916.98146         0.00041  23444131.60546  23444131.50348
 -16022263.61248 -12484832.68546         0.00041  22276641.03846  22276641.01448
 -21958358.38649 -17110394.11248         0.00041  21165905.10548  21165905.50549
 -18367283.54408 -14312154.51508  21668596.78608  21668597.76008         0.00001
 -21605566.85409 -16835485.07808  20502378.57609  20502379.17508         0.00001
 -11964589.67648  -9323050.13846         0.00041  22086610.67246  22086610.19048
 94 02 20 03 10 30.0000000  0  8 02 04 05 07 09 12 13 24
  -1959368.94448  -1526762.49246         0.00041  22858885.87146  22858885.15748
  -1621480.52449  -1263489.57548         0.00041  20833527.20648  20833527.74549
 -10223027.70148  -7965984.34846         0.00041  23428973.93546  23428973.86448
 -15951504.22348 -12429695.48146         0.00041  22290106.33446  22290106.14348
 -21994400.64649 -17138478.97748         0.00041  21159046.66448  21159047.01249
 -18434628.54108 -14364631.11108  21655781.43808  21655782.42008         0.00001
 -21586284.97809 -16820460.22308  20506047.76609  20506048.38508         0.00001
 -12053756.56648  -9392530.77946         0.00041  22069642.76546  22069642.26048
 94 02 20 03 11 00.0000000  0  8 02 04 05 07 09 12 13 24
  -1893705.68448  -1475596.32146         0.00041  22871380.87546  22871380.55448
  -1656504.49649  -1290780.95648         0.00041  20826862.45948  20826862.99149
 -10302652.14448  -8028029.27946         0.00041  23413822.48746  23413821.76448
 -15880607.83348 -12374451.52946         0.00041  22303597.36946  22303597.27048
 -22029909.43049 -17166148.14948         0.00041  21152289.35448  21152289.79949
 -18501614.79108 -14416828.16408  21643034.35008  21643035.36108         0.00001
 -21566521.04009 -16805059.73308  20509808.69209  20509809.33108         0.00001
 -12142582.84648  -9461746.01446         0.00041  22052739.98946  22052739.10848
 94 02 20 03 11 30.0000000  0  8 02 04 05 07 09 12 13 24
  -1827815.70648  -1424253.48246         0.00041  22883919.15346  22883919.03248
  -1690975.67949  -1317641.59048         0.00041  20820302.69948  20820303.30749
 -10382267.29148  -8090066.97146         0.00041  23398672.29046  23398671.46348
 -15809588.92448 -12319112.10746         0.00041  22317111.84546  22317111.66848
 -22064887.34449 -17193403.65548         0.00041  21145633.27148  21145633.78549
 -18568261.19708 -14468760.40508  21630351.94408  21630352.96408         0.00001
 -21546298.59509 -16789301.96708  20513656.88609  20513657.50708         0.00001
 -12231075.99148  -9530701.65846         0.00041  22035900.18346  22035899.27648
 94 02 20 03 12 00.0000000  0  8 02 04 05 07 09 12 13 24
  -1761739.96848  -1372765.90546         0.00041  22896493.42446  22896492.76148
  -1724930.02949  -1344099.49948         0.00041  20813841.22148  20813841.94949
 -10461921.53848  -8152135.11946         0.00041  23383514.58246  23383513.59848
 -15738493.52848 -12263713.08146         0.00041  22330640.94646  22330640.63748
 -22099373.27149 -17220275.79648         0.00041  21139070.77348  21139071.29149
 -18634607.47208 -14520458.77908  21617726.65808  21617727.61508         0.00001
 -21525661.53309 -16773221.12408  20517583.97309  20517584.58108         0.00001
 -12319275.00848  -9599428.11546         0.00041  22019116.18046  22019115.47748
 94 02 20 03 12 30.0000000  0  8 02 04 05 07 09 12 13 24
  -1695399.40248  -1321071.96946         0.00041  22909118.61446  22909117.07648
  -1758287.06449  -1370091.96748         0.00041  20807493.67148  20807494.32749
 -10541540.29048  -8214175.63946         0.00041  23368362.41546  23368362.64848
 -15667257.14048 -12208204.19646         0.00041  22344196.28546  22344196.46148
 -22133295.17149 -17246708.43448         0.00041  21132615.61348  21132616.06749
 -18700587.35208 -14571871.65008  21605171.09908  21605172.08108         0.00001
 -21504548.45509 -16756769.35808  20521601.67109  20521602.25708         0.00001
 -12407122.84548  -9667880.92946         0.00041  22002399.34546  22002398.53848
 94 02 20 03 13 00.0000000  0  8 02 04 05 07 09 12 13 24
  -1628808.23948  -1269182.76246         0.00041  22921789.40046  22921788.77348
  -1791063.76949  -1395632.23148         0.00041  20801256.54448  20801257.10949
 -10621142.07948  -8276202.92746         0.00041  23353215.08246  23353214.69848
 -15595897.69148 -12152599.42046         0.00041  22357775.42446  22357775.75748
 -22166665.85049 -17272711.55148         0.00041  21126265.44448  21126265.83849
 -18766220.18708 -14623014.09508  21592681.51808  21592682.54508         0.00001
 -21482983.14509 -16739965.20708  20525705.40509  20525705.96208         0.00001
 -12494642.21748  -9736077.79546         0.00041  21985744.94646  21985744.19048
 94 02 20 03 13 30.0000000  0  8 02 04 05 07 09 12 13 24
  -1561990.52648  -1217117.02246         0.00041  22934505.00046  22934503.93548
  -1823282.68949  -1420737.85648         0.00041  20795125.48148  20795126.11049
 -10700747.09548  -8338232.73946         0.00041  23338066.05046  23338066.32448
 -15524454.32748 -12096929.25246         0.00041  22371370.97046  22371370.83948
 -22199504.85349 -17298300.37148         0.00041  21120016.45348  21120016.88849
 -18831519.05508 -14673896.30608  21580255.55008  21580256.52408         0.00001
 -21460983.24309 -16722822.40908  20529891.83209  20529892.37808         0.00001
 -12581849.46648  -9804031.45447         0.00041  21969149.70247  21969149.22948
 94 02 20 03 14 00.0000000  0  8 02 04 05 07 09 12 13 24
  -1494941.93248  -1164871.37546         0.00041  22947263.33846  22947262.72748
  -1854949.76549  -1445413.47348         0.00041  20789099.29648  20789099.96049
 -10780352.09248  -8400262.52346         0.00041  23322918.65046  23322918.06048
 -15452944.69948 -12041207.45146         0.00041  22384979.03546  22384978.69648
 -22231818.67649 -17323479.96048         0.00041  21113867.38848  21113867.78849
 -18896480.22808 -14724515.37908  21567893.86408  21567894.82808         0.00001
 -21438549.65609 -16705341.67708  20534160.77709  20534161.34308         0.00001
 -12668752.09748  -9871747.74747         0.00041  21952612.89347  21952612.15948
 94 02 20 03 14 30.0000000  0  8 02 04 05 07 09 12 13 24
  -1427669.17448  -1112451.04946         0.00041  22960064.58646  22960064.33048
  -1886067.97549  -1469661.40648         0.00041  20783177.69648  20783178.37849
 -10859947.34848  -8462284.73446         0.00041  23307772.25446  23307771.21448
 -15381372.87148 -11985437.18046         0.00041  22398598.35746  22398598.38348
 -22263597.59849 -17348242.74648         0.00041  21107819.95548  21107820.46849
 -18961094.81208 -14774864.38308  21555598.08608  21555599.09008         0.00001
 -21415677.80609 -16687519.43908  20538513.12509  20538513.67708         0.00001
 -12755342.43548  -9939220.69547         0.00041  21936135.52747  21936134.58448
 94 02 20 03 15 00.0000000  0  8 02 04 05 07 09 12 13 24
  -1360167.49448  -1059852.33046         0.00041  22972910.49446  22972909.52248
  -1916617.95449  -1493466.55948         0.00041  20777364.29448  20777364.84549
 -10939519.41248  -8524288.88146         0.00041  23292630.02746  23292629.18848
 -15309717.54948 -11929601.84646         0.00041  22412234.50546  22412233.97748
 -22294821.71049 -17372573.20948         0.00041  21101878.22848  21101878.66849
 -19025337.42008 -14824923.53408  21543373.09908  21543374.06208         0.00001
 -21392347.45209 -16669339.92908  20542952.74509  20542953.31108         0.00001
 -12841590.77848 -10006427.16247         0.00041  21919722.82447  21919721.99648
 94 02 20 03 15 30.0000000  0  8 02 04 05 07 09 12 13 24
  -1292431.81048  -1007071.30646         0.00041  22985798.85946  22985799.05448
  -1946573.99449  -1516808.90048         0.00041  20771663.70848  20771664.38049
 -11019061.33348  -8586269.51546         0.00041  23277492.85046  23277492.76448
 -15237975.80648 -11873699.18346         0.00041  22425886.05946  22425885.91948
 -22325484.28849 -17396466.11548         0.00041  21096043.52248  21096043.76049
 -19089198.60008 -14874685.46908  21531220.68808  21531221.67808         0.00001
 -21368553.51909 -16650799.18608  20547480.54209  20547481.11408         0.00001
 -12927489.23348 -10073360.98347         0.00041  21903376.68847  21903375.91348
 94 02 20 03 16 00.0000000  0  8 02 04 05 07 09 12 13 24
  -1224444.90748   -954094.49046         0.00041  22998738.02446  22998736.65748
  -1975926.65949  -1539681.08148         0.00041  20766077.95948  20766078.66249
 -11098571.54148  -8648225.45646         0.00041  23262362.73846  23262362.44748
 -15166132.43848 -11817717.32146         0.00041  22439557.17346  22439557.21648
 -22355575.03649 -17419913.44048         0.00041  21090317.28548  21090317.64149
 -19152677.30608 -14924149.37008  21519141.03708  21519142.05908         0.00001
 -21344299.46809 -16631899.91108  20552095.90609  20552096.51408         0.00001
 -13013023.22648 -10140010.80747         0.00041  21887100.11347  21887099.42448
 94 02 20 03 16 30.0000000  0  8 02 04 05 07 09 12 13 24
  -1156224.78348   -900935.97246         0.00041  23011719.52346  23011718.56948
  -2004699.07349  -1562101.12248         0.00041  20760602.73748  20760603.51749
 -11178080.57148  -8710180.46246         0.00041  23247233.57946  23247232.29548
 -15094201.85448 -11761667.50446         0.00041  22453245.48746  22453245.11648
 -22385113.54249 -17442930.44648         0.00041  21084696.09148  21084696.51849
 -19215798.06808 -14973334.35708  21507129.55508  21507130.54108         0.00001
 -21319614.44809 -16612664.81308  20556793.29309  20556793.90708         0.00001
 -13098207.13248 -10206387.84247         0.00041  21870890.17547  21870889.37948
 94 02 20 03 17 00.0000000  0  8 02 04 05 07 09 12 13 24
  -1087732.14748   -847565.08746         0.00041  23024753.27046  23024752.16248
  -2032867.96749  -1584050.88848         0.00041  20755242.32348  20755243.07449
 -11257557.96248  -8772110.82946         0.00041  23232109.46546  23232108.33148
 -15022159.63848 -11705530.70246         0.00041  22466954.14946  22466954.20848
 -22414083.99049 -17465504.80648         0.00041  21079183.28648  21079183.77149
 -19278537.28608 -15022222.03608  21495190.66908  21495191.67908         0.00001
 -21294479.47909 -16593079.10808  20561576.29309  20561576.91908         0.00001
 -13183016.01448 -10272472.64647         0.00041  21854751.50947  21854750.70448
 94 02 20 03 17 30.0000000  0  8 02 04 05 07 09 12 13 24
  -1018981.50148   -793993.16846         0.00041  23037835.38346  23037834.92648
  -2060470.19149  -1605559.08748         0.00041  20749989.99648  20749990.49349
 -11337016.75848  -8834026.69546         0.00041  23216988.72146  23216987.65348
 -14950041.29548 -11649334.57746         0.00041  22480677.85046  22480677.91648
 -22442508.37349 -17487653.65748         0.00041  21073774.39648  21073774.82749
 -19340921.09708 -15070832.77608  21483319.37608  21483320.40308         0.00001
 -21268925.49309 -16573166.89608  20566439.02509  20566439.66708         0.00001
 -13267473.78048 -10338283.85947         0.00041  21838680.11447  21838678.91548
 94 02 20 03 18 00.0000000  0  8 02 04 05 07 09 12 13 24
   -949942.73148   -740196.72046         0.00041  23050973.72646  23050972.61848
  -2087507.49749  -1626627.09448         0.00041  20744844.89448  20744845.53449
 -11416433.74048  -8895909.99246         0.00041  23201875.90846  23201874.94848
 -14877817.88648 -11593056.58846         0.00041  22494421.19446  22494421.62548
 -22470363.99349 -17509359.31748         0.00041  21068473.50648  21068474.02749
 -19402922.30308 -15119145.38108  21471520.92408  21471521.91608         0.00001
 -21242929.89409 -16552910.57208  20571385.83809  20571386.45008         0.00001
 -13351553.51648 -10403800.49747         0.00041  21822679.68747  21822679.01748
 94 02 20 03 18 30.0000000  0  8 02 04 05 07 09 12 13 24
   -880665.63948   -686214.57546         0.00041  23064156.74046  23064155.58448
  -2114011.77849  -1647279.75648         0.00041  20739801.22148  20739801.98449
 -11495837.14548  -8957782.70546         0.00041  23186765.95746  23186765.10148
 -14805525.79548 -11536725.07146         0.00041  22508178.48646  22508178.45148
 -22497697.86849 -17530658.42248         0.00041  21063272.09148  21063272.59849
 -19464568.66008 -15167181.48408  21459790.00008  21459791.02408         0.00001
 -21216524.75609 -16532335.12508  20576410.56309  20576411.17208         0.00001
 -13435298.91348 -10469056.61847         0.00041  21806743.52947  21806742.72648
 94 02 20 03 19 00.0000000  0  8 02 04 05 07 09 12 13 24
   -811137.83048   -632037.07846         0.00041  23077387.53346  23077386.31848
  -2139953.15849  -1667493.79548         0.00041  20734864.82248  20734865.43049
 -11575194.18248  -9019619.28646         0.00041  23171664.71646  23171663.83248
 -14733140.45148 -11480320.90046         0.00041  22521952.87646  22521952.84448
 -22524486.00149 -17551532.27548         0.00041  21058174.32148  21058174.81849
 -19525828.50708 -15214916.40708  21448132.63308  21448133.63508         0.00001
 -21189683.63409 -16511419.95208  20581518.26909  20581518.85508         0.00001
 -13518684.75548 -10534032.56447         0.00041  21790876.04947  21790874.96448
 94 02 20 03 19 30.0000000  0  8 02 04 05 07 09 12 13 24
   -741389.36548   -577687.64446         0.00041  23090659.63546  23090659.24048
  -2165349.29249  -1687282.96548         0.00041  20730031.91048  20730032.69349
 -11654528.55348  -9081438.22046         0.00041  23156567.70446  23156567.11348
 -14660666.73748 -11423847.86146         0.00041  22535744.48246  22535744.19648
 -22550745.16849 -17571993.94548         0.00041  21053177.40348  21053177.97949
 -19586713.55608 -15262359.28008  21436546.61308  21436547.57008         0.00001
 -21162422.37309 -16490177.39908  20586705.90609  20586706.46708         0.00001
 -13601726.80148 -10598740.61647         0.00041  21775073.06247  21775072.56548
 94 02 20 03 20 00.0000000  0  8 02 04 05 07 09 12 13 24
   -671441.73248   -523182.98846         0.00041  23103970.58946  23103969.75948
  -2190205.08949  -1706651.09148         0.00041  20725302.01748  20725302.73049
 -11733864.12048  -9143258.06746         0.00041  23141471.02046  23141470.18148
 -14588116.99648 -11367315.58646         0.00041  22549549.85646  22549549.75348
 -22576504.78249 -17592066.35248         0.00041  21048275.47248  21048276.07749
 -19647233.14108 -15309517.37808  21425030.09008  21425031.04108         0.00001
 -21134755.32709 -16468618.64908  20591970.76709  20591971.33208         0.00001
 -13684445.99648 -10663197.10147         0.00041  21759332.22147  21759331.58748
 94 02 20 03 20 30.0000000  0  8 02 04 05 07 09 12 13 24
   -601343.62948   -468561.11146         0.00041  23117309.92846  23117309.12348
  -2214537.53049  -1725611.41748         0.00041  20720671.84748  20720672.44149
 -11813231.97748  -9205103.11146         0.00041  23126367.18446  23126366.80148
 -14515544.59948 -11310765.65846         0.00041  22563360.20546  22563359.94248
 -22601791.89749 -17611770.57848         0.00041  21043463.47548  21043464.00149
 -19707419.75908 -15356416.02208  21413576.92708  21413577.88408         0.00001
 -21106719.66009 -16446772.66308  20597305.78609  20597306.30208         0.00001
 -13766880.68348 -10727431.88647         0.00041  21743645.47347  21743644.83048
 94 02 20 03 21 00.0000000  0  8 02 04 05 07 09 12 13 24
   -530992.81048   -413742.29946         0.00041  23130697.18046  23130696.34348
  -2238263.59149  -1744099.23248         0.00041  20716156.78648  20716157.48249
 -11892538.78348  -9266900.55346         0.00041  23111275.44046  23111275.23948
 -14442865.45148 -11254132.53846         0.00041  22577189.81746  22577190.29348
 -22626512.14449 -17631033.09448         0.00041  21038759.51648  21038759.96749
 -19767180.38508 -15402982.72208  21402204.84208  21402205.80508         0.00001
 -21078226.83609 -16424570.44808  20602727.80709  20602728.32008         0.00001
 -13848927.14348 -10791364.16947         0.00041  21728032.68447  21728031.89948
 94 02 20 03 21 30.0000000  0  8 02 04 05 07 09 12 13 24
   -460337.83848   -358686.49646         0.00041  23144141.80746  23144141.58548
  -2261358.24749  -1762095.04648         0.00041  20711762.03148  20711762.71849
 -11971757.61448  -9328629.45346         0.00041  23096200.33346  23096200.54248
 -14370054.46348 -11197396.69246         0.00041  22591046.30246  22591045.77448
 -22650631.71849 -17649827.55248         0.00041  21034169.64748  21034170.11349
 -19826487.11208 -15449195.73708  21390919.13308  21390920.10208         0.00001
 -21049253.71609 -16401993.97908  20608241.17609  20608241.67708         0.00001
 -13930556.06148 -10854971.08647         0.00041  21712499.24947  21712498.42048
 94 02 20 03 22 00.0000000  0  8 02 04 05 07 09 12 13 24
   -389457.55748   -303455.12346         0.00041  23157630.35946  23157629.76648
  -2283894.97049  -1779656.10348         0.00041  20707473.37048  20707474.06749
 -12050968.33148  -9390352.03046         0.00041  23081127.48946  23081127.05748
 -14297225.61548 -11140646.93746         0.00041  22604904.64446  22604904.56948
 -22674224.99149 -17668211.90748         0.00041  21029679.71848  21029680.39749
 -19885427.06908 -15495122.95508  21379703.24708  21379704.17008         0.00001
 -21019892.25409 -16379114.90408  20613828.46209  20613828.97608         0.00001
 -14011846.61448 -10918314.33947         0.00041  21697030.25547  21697029.25148
 94 02 20 03 22 30.0000000  0  8 02 04 05 07 09 12 13 24
   -318380.11548   -248070.11146         0.00041  23171156.75246  23171155.16348
  -2305916.90949  -1796816.03348         0.00041  20703282.60648  20703283.45649
 -12130206.71548  -9452096.16346         0.00041  23066048.22846  23066048.57948
 -14224418.28748 -11083913.94546         0.00041  22618759.26646  22618759.42148
 -22697318.49549 -17686206.83348         0.00041  21025285.49048  21025285.90949
 -19944038.73608 -15540794.36408  21368549.78708  21368550.70008         0.00001
 -20990185.33509 -16355966.64308  20619481.52409  20619482.01308         0.00001
 -14092828.72848 -10981417.25247         0.00041  21681619.29547  21681618.82148
 94 02 20 03 23 00.0000000  0  8 02 04 05 07 09 12 13 24
   -247000.93648   -192449.97846         0.00041  23184738.31646  23184738.19948
  -2327336.58149  -1813506.66548         0.00041  20699206.73348  20699207.49449
 -12209369.86148  -9513781.67746         0.00041  23050983.49646  23050984.25448
 -14151519.65048 -11027109.80046         0.00041  22632631.26246  22632631.56548
 -22719808.23149 -17703731.29248         0.00041  21021005.69048  21021006.17049
 -20002220.00408 -15586130.39708  21357478.25108  21357479.17308         0.00001
 -20960035.45609 -16332473.21608  20625218.81909  20625219.31508         0.00001
 -14173391.52648 -11044193.42547         0.00041  21666288.90247  21666288.27548
 94 02 20 03 23 30.0000000  0  8 02 04 05 07 09 12 13 24
   -175312.77748   -136589.09946         0.00041  23198379.58346  23198379.89348
  -2348117.32649  -1829699.43048         0.00041  20695252.24848  20695252.96549
 -12288441.26848  -9575395.68846         0.00041  23035937.24046  23035937.20448
 -14078512.58548 -10970221.17046         0.00041  22646523.91546  22646524.25148
 -22741656.78049 -17720756.12148         0.00041  21016848.01648  21016848.49549
 -20059948.79808 -15631113.85308  21346492.81608  21346493.70608         0.00001
 -20929425.56809 -16308621.34408  20631043.69009  20631044.18308         0.00001
 -14253529.14548 -11106638.28747         0.00041  21651039.32447  21651038.52948
 94 02 20 03 24 00.0000000  0  8 02 04 05 07 09 12 13 24
   -103412.09548    -80562.61446         0.00041  23212063.48646  23212062.34848
  -2368325.36749  -1845445.93548         0.00041  20691406.53748  20691407.41249
 -12367491.29148  -9636993.04246         0.00041  23020894.14646  23020894.60948
 -14005469.52148 -10913304.49746         0.00041  22660423.66246  22660423.99648
 -22762941.06849 -17737341.26948         0.00041  21012797.83648  21012798.23449
 -20117295.04808 -15675799.22308  21335580.18408  21335581.06508         0.00001
 -20898430.10209 -16284469.02108  20636941.91609  20636942.41808         0.00001
 -14333317.59348 -11168811.07447         0.00041  21635855.84747  21635855.30748
 94 02 20 03 24 30.0000000  0  8 02 04 05 07 09 12 13 24
    -31408.95448    -24456.26446         0.00041  23225765.38846  23225763.96748
  -2388069.32149  -1860830.81448         0.00041  20687649.54348  20687650.31549
 -12446623.08848  -9698654.12146         0.00041  23005836.72846  23005836.15248
 -13932471.32948 -10856422.78446         0.00041  22674314.94046  22674315.14348
 -22783760.38149 -17753564.10048         0.00041  21008835.97248  21008836.44049
 -20174357.87608 -15720263.74608  21324721.46608  21324722.34808         0.00001
 -20867153.06009 -16260097.28908  20642893.74709  20642894.20608         0.00001
 -14412864.08148 -11230795.31747         0.00041  21620718.79447  21620718.11848
 94 02 20 03 25 00.0000000  0  8 02 04 05 07 09 12 13 24
     40798.68348     31809.40746         0.00041  23239506.35446  23239504.58948
  -2407222.81849  -1875755.60148         0.00041  20684004.71448  20684005.54649
 -12525724.13648  -9760291.24246         0.00041  22990783.51946  22990783.88648
 -13859405.36748 -10799488.26346         0.00041  22688218.32946  22688219.03048
 -22804001.77849 -17769336.60548         0.00041  21004984.04348  21004984.60849
 -20231019.56208 -15764415.68908  21313939.11208  21313939.98108         0.00001
 -20835480.98009 -16235417.73408  20648920.74209  20648921.21008         0.00001
 -14492044.86649 -11292494.59247         0.00041  21605651.07147  21605650.39449
 94 02 20 03 25 30.0000000  0  8 02 04 05 07 09 12 13 24
    113286.44748     88293.35946         0.00041  23253299.93346  23253298.57648
  -2425706.53249  -1890158.47448         0.00041  20680487.29348  20680488.12449
 -12604727.06748  -9821851.88646         0.00041  22975749.52646  22975749.89048
 -13786205.85848 -10742449.67646         0.00041  22702147.75746  22702148.40348
 -22823610.19649 -17784615.88248         0.00041  21001252.72548  21001253.32849
 -20287207.43808 -15808198.43208  21303246.92408  21303247.76508         0.00001
 -20803346.29309 -16210377.70808  20655035.74009  20655036.20708         0.00001
 -14570783.91449 -11353849.66247         0.00041  21590667.57747  21590666.92049
 94 02 20 03 26 00.0000000  0  8 02 04 05 07 09 12 13 24
    186065.31048    145004.14746         0.00041  23267148.12446  23267147.99848
  -2443533.55749  -1904049.64348         0.00041  20677094.93548  20677095.76849
 -12683630.27148  -9883334.83046         0.00041  22960735.03246  22960735.21648
 -13712864.87748 -10685300.86046         0.00041  22716104.98946  22716104.79648
 -22842601.51949 -17799414.30648         0.00041  20997638.73748  20997639.32649
 -20342920.30608 -15851611.03908  21292645.11808  21292645.93408         0.00001
 -20770752.20109 -16184979.70308  20661238.20609  20661238.65408         0.00001
 -14649051.66849 -11414837.49347         0.00041  21575773.79847  21575773.01849
 94 02 20 03 26 30.0000000  0  8 02 04 05 07 09 12 13 24
    259026.98248    201857.38446         0.00041  23281033.10646  23281032.12048
  -2460825.93849  -1917524.20648         0.00041  20673804.40548  20673805.14249
 -12762554.04848  -9944833.79846         0.00041  22945716.03446  22945716.30248
 -13639503.54648 -10628136.17746         0.00041  22730064.70646  22730064.98648
 -22861098.51349 -17813827.53948         0.00041  20994118.96348  20994119.56649
 -20398272.46908 -15894742.57908  21282111.95108  21282112.76708         0.00001
 -20737817.89109 -16159316.59308  20667505.35409  20667505.83708         0.00001
 -14726950.28349 -11475537.67947         0.00041  21560950.04647  21560949.39649
 94 02 20 03 27 00.0000000  0  8 02 04 05 07 09 12 13 24
    332237.04748    258904.15846         0.00041  23294964.42446  23294963.59748
  -2477513.50949  -1930527.49348         0.00041  20670628.70048  20670629.53149
 -12841432.29948 -10006297.30846         0.00041  22930706.07646  22930706.11948
 -13566058.77248 -10570906.48246         0.00041  22744040.52346  22744041.05048
 -22879049.85749 -17827815.59048         0.00041  20990702.73448  20990703.47049
 -20453191.60408 -15937536.69408  21271661.12308  21271661.99108         0.00001
 -20704475.55409 -16133335.53808  20673850.20709  20673850.66608         0.00001
 -14804404.65549 -11535891.70547         0.00041  21546210.83547  21546210.25249
 94 02 20 03 27 30.0000000  0  8 02 04 05 07 09 12 13 24
    405684.20948    316135.62346         0.00041  23308939.74046  23308940.11448
  -2493618.05849  -1943076.47548         0.00041  20667564.21248  20667564.97049
 -12920278.81548 -10067736.08546         0.00041  22915702.09246  22915702.27348
 -13492541.23148 -10513620.06946         0.00041  22758031.32446  22758031.06348
 -22896477.79749 -17841395.79348         0.00041  20987386.45548  20987387.08549
 -20507694.25408 -15980006.27608  21261289.61008  21261290.45908         0.00001
 -20670746.48909 -16107053.13808  20680268.60909  20680269.10408         0.00001
 -14881441.80449 -11595920.62147         0.00041  21531550.97547  21531550.54849
 94 02 20 03 28 00.0000000  0  8 02 04 05 07 09 12 13 24
    479360.65048    373545.91446         0.00041  23322962.48846  23322960.19448
  -2509137.94049  -1955169.87048         0.00041  20664610.83948  20664611.62949
 -12999096.38448 -10129152.31146         0.00041  22900703.18946  22900703.58248
 -13418958.51848 -10456282.89546         0.00041  22772032.80246  22772033.35448
 -22913368.57749 -17854557.43148         0.00041  20984172.13848  20984172.79249
 -20561783.15908 -16022153.45708  21250996.84108  21250997.67608         0.00001
 -20636638.17309 -16080475.21908  20686759.18809  20686759.65808         0.00001
 -14958080.49349 -11655639.05247         0.00041  21516967.28347  21516966.64649
 94 02 20 03 28 30.0000000  0  8 02 04 05 07 09 12 13 24
    553291.46148    431154.31245         0.00041  23337029.99145  23337028.57048
  -2524032.06149  -1966775.66448         0.00041  20661776.71748  20661777.43849
 -13077851.92248 -10190520.20746         0.00041  22885716.71746  22885717.14548
 -13345285.63948 -10398875.45746         0.00041  22786052.86346  22786052.70848
 -22929681.35249 -17867268.67648         0.00041  20981068.05148  20981068.50049
 -20615422.86008 -16063950.61208  21240789.51608  21240790.37008         0.00001
 -20602119.86309 -16053577.82208  20693327.76409  20693328.29308         0.00001
 -15034309.64849 -11715038.36347         0.00041  21502461.24047  21502460.75049
 94 02 20 03 29 00.0000000  0  8 02 04 05 07 09 12 13 24
    627464.90048    488951.77045         0.00041  23351144.14245  23351143.45148
  -2538319.76249  -1977908.92148         0.00041  20659057.67948  20659058.50149
 -13156558.26948 -10251849.76846         0.00041  22870739.66046  22870739.46348
 -13271540.76548 -10341411.91546         0.00041  22800085.49946  22800085.81848
 -22945421.32149 -17879533.58248         0.00041  20978072.93248  20978073.39449
 -20668627.44208 -16105408.71508  21230664.99408  21230665.84708         0.00001
 -20567210.13209 -16026375.42508  20699970.85809  20699971.38308         0.00001
 -15110155.28649 -11774138.82947         0.00041  21488028.46847  21488027.75149
 94 02 20 03 29 30.0000000  0  8 02 04 05 07 09 12 13 24
    701894.25348    546948.65945         0.00041  23365308.60045  23365306.83448
  -2552010.15849  -1988576.73448         0.00041  20656452.41248  20656453.27449
 -13235203.37948 -10313131.62046         0.00041  22855773.93846  22855774.06248
 -13197730.74848 -10283897.61346         0.00041  22814131.55446  22814131.63048
 -22960574.08449 -17891340.92048         0.00041  20975189.26248  20975189.85049
 -20721395.69508 -16146526.82108  21220623.51408  21220624.37908         0.00001
 -20531912.65809 -15998870.88808  20706687.75309  20706688.27008         0.00001
 -15185617.22649 -11832940.31347         0.00041  21473668.24947  21473667.72649
 94 02 20 03 30 00.0000000  0  8 02 04 05 07 09 12 13 24
    776570.27448    605137.73145         0.00041  23379519.83945  23379517.13748
  -2565120.60849  -1998792.64848         0.00041  20653957.60948  20653958.38849
 -13313786.75848 -10374365.38746         0.00041  22840819.80346  22840819.71148
 -13123879.48948 -10226351.16746         0.00041  22828184.75946  22828184.96348
 -22975137.82949 -17902689.28648         0.00041  20972417.97748  20972418.48949
 -20773732.56208 -16187308.78108  21210664.15708  21210664.99608         0.00001
 -20496236.73909 -15971071.46008  20713476.63509  20713477.14508         0.00001
 -15260695.04949 -11891442.48247         0.00041  21459381.59047  21459380.89049
 94 02 20 03 30 30.0000000  0  8 02 04 05 07 09 12 13 24
    851471.43848    663502.24445         0.00041  23393771.38145  23393770.53948
  -2577682.08649  -2008580.79448         0.00041  20651567.16148  20651567.98949
 -13392324.06148 -10435563.23846         0.00041  22825874.35146  22825874.58748
 -13050003.69448 -10168785.61246         0.00041  22842243.55446  22842243.02348
 -22989138.45349 -17913598.85848         0.00041  20969753.57348  20969754.13949
 -20825649.89608 -16227763.83308  21200784.58408  21200785.44508         0.00001
 -20460199.25909 -15942990.29508  20720334.31709  20720334.86708         0.00001
 -15335385.91849 -11949643.12947         0.00041  21445168.31747  21445167.70749
 94 02 20 03 31 00.0000000  0  8 02 04 05 07 09 12 13 24
    926619.23948    722058.95545         0.00041  23408069.68745  23408070.76248
  -2589683.60149  -2017932.60448         0.00041  20649283.25148  20649284.21449
 -13470791.92548 -10496706.99346         0.00041  22810941.84546  22810942.62048
 -12976080.57848 -10111183.18246         0.00041  22856309.90546  22856310.19248
 -23002547.29049 -17924047.29448         0.00041  20967202.16148  20967202.50949
 -20877121.53408 -16267871.58908  21190989.85008  21190990.66608         0.00001
 -20423778.44809 -15914610.43108  20727264.96009  20727265.49408         0.00001
 -15409655.30749 -12007515.34947         0.00041  21431035.39147  21431034.68349
 94 02 20 03 31 30.0000000  0  8 02 04 05 07 09 12 13 24
   1002008.72848    780803.99145         0.00041  23422418.62845  23422416.76848
  -2601118.33049  -2026842.76748         0.00041  20647107.49948  20647108.29849
 -13549188.81748 -10557795.44146         0.00041  22796023.96846  22796023.99248
 -12902109.15148 -10053543.10446         0.00041  22870386.35246  22870386.43048
 -23015358.18149 -17934029.80048         0.00041  20964764.26248  20964764.80249
 -20928144.81108 -16307629.97408  21181280.44408  21181281.30208         0.00001
 -20386976.69609 -15885933.73108  20734268.11709  20734268.60008         0.00001
 -15483490.27549 -12065049.06047         0.00041  21416984.94447  21416984.36249
 94 02 20 03 32 00.0000000  0  8 02 04 05 07 09 12 13 24
   1077616.24748    839718.90945         0.00041  23436806.24345  23436804.38748
  -2611981.83349  -2035307.81648         0.00041  20645040.15848  20645041.03049
 -13627540.63248 -10618848.77246         0.00041  22781114.47646  22781114.36748
 -12828092.40548  -9995867.70946         0.00041  22884470.77146  22884471.20048
 -23027586.77949 -17943558.57148         0.00041  20962437.35948  20962437.71749
 -20978727.07908 -16347044.71408  21171654.94808  21171655.75908         0.00001
 -20349805.63009 -15856969.25208  20741341.52309  20741342.02308         0.00001
 -15556904.75349 -12122255.11347         0.00041  21403014.68647  21403014.06049
 94 02 20 03 32 30.0000000  0  8 02 04 05 07 09 12 13 24
   1153418.18148    898785.33145         0.00041  23451230.09245  23451229.17048
  -2622286.13949  -2043337.12748         0.00041  20643079.25448  20643080.11249
 -13705880.90148 -10679893.09946         0.00041  22766206.62546  22766206.19648
 -12754037.33148  -9938162.45746         0.00041  22898563.42746  22898563.56948
 -23039259.54149 -17952654.22348         0.00041  20960215.81948  20960216.51349
 -21028884.21308 -16386128.18308  21162110.33208  21162111.16108         0.00001
 -20312285.84509 -15827733.04408  20748481.29909  20748481.76908         0.00001
 -15629922.69249 -12179152.18047         0.00041  21389119.64247  21389119.21149
 94 02 20 03 33 00.0000000  0  8 02 04 05 07 09 12 13 24
   1229400.58448    957992.40545         0.00041  23465687.28845  23465688.15448
  -2632048.31349  -2050943.99748         0.00041  20641221.51648  20641222.42649
 -13784232.15748 -10740945.99546         0.00041  22751296.93946  22751296.88848
 -12679964.77648  -9880443.58846         0.00041  22912658.57746  22912659.15348
 -23050397.75649 -17961333.34748         0.00041  20958096.56248  20958096.98149
 -21078638.98708 -16424898.12408  21152642.30708  21152643.15108         0.00001
 -20274444.76009 -15798246.47308  20755682.23509  20755682.69208         0.00001
 -15702569.64349 -12235760.16647         0.00041  21375295.20147  21375294.93749
 94 02 20 03 33 30.0000000  0  8 02 04 05 07 09 12 13 24
   1305605.01048   1017372.44245         0.00041  23480191.62245  23480189.36748
  -2641204.53749  -2058078.69948         0.00041  20639479.27148  20639480.09949
 -13862540.50448 -10801965.44746         0.00041  22736394.94246  22736394.90748
 -12605827.65048  -9822674.39946         0.00041  22926766.91946  22926767.02948
 -23060974.91249 -17969575.28348         0.00041  20956083.63648  20956084.18449
 -21127945.14908 -16463318.49608  21143259.66208  21143260.46208         0.00001
 -20236240.76209 -15768477.11208  20762952.20409  20762952.61308         0.00001
 -15774808.85149 -12292050.43047         0.00041  21361548.70447  21361548.25149
 94 02 20 03 34 00.0000000  0  8 02 04 05 07 09 12 13 24
   1382071.81348   1076956.92245         0.00041  23494742.02045  23494740.55948
  -2649710.64849  -2064706.82148         0.00041  20637860.43248  20637861.35049
 -13940750.03948 -10862907.90646         0.00041  22721511.89046  22721512.48548
 -12531585.84248  -9764823.63846         0.00041  22940894.83246  22940894.72648
 -23070954.09249 -17977351.26048         0.00041  20954184.65448  20954185.17049
 -21176753.34008 -16501350.83908  21133971.76508  21133972.56108         0.00001
 -20197629.05609 -15738390.05608  20770299.76909  20770300.20308         0.00001
 -15846598.38449 -12347990.29547         0.00041  21347887.70847  21347887.16349
 94 02 20 03 34 30.0000000  0  8 02 04 05 07 09 12 13 24
   1458775.39948   1136725.95245         0.00041  23509338.15445  23509336.83248
  -2657613.86949  -2070865.16048         0.00041  20636356.53948  20636357.46049
 -14018885.18048 -10923792.39746         0.00041  22706644.30046  22706643.50748
 -12457286.90448  -9706928.36546         0.00041  22955032.79646  22955033.35548
 -23080360.25449 -17984680.73448         0.00041  20952394.75648  20952395.28049
 -21225098.39008 -16539022.29308  21124771.99008  21124772.77708         0.00001
 -20158649.17609 -15708016.11208  20777717.38709  20777717.75608         0.00001
 -15917956.86449 -12403594.27847         0.00041  21334308.51947  21334308.05549
 94 02 20 03 35 00.0000000  0  8 02 04 05 07 09 12 13 24
   1535726.95148   1196688.16645         0.00041  23523980.60945  23523980.02048
  -2664895.57549  -2076539.19848         0.00041  20634970.96948  20634971.74349
 -14096922.78348 -10984600.87546         0.00041  22691793.26946  22691793.47348
 -12382924.66648  -9648983.76446         0.00041  22969184.34746  22969183.99648
 -23089185.90849 -17991557.86248         0.00041  20950715.14448  20950715.87249
 -21272967.75408 -16576323.08308  21115662.76608  21115663.54108         0.00001
 -20119293.29509 -15677349.18108  20785206.54909  20785206.95708         0.00001
 -15988867.79749 -12458849.52047         0.00041  21320814.69647  21320814.12849
 94 02 20 03 35 30.0000000  0  8 02 04 05 07 09 12 13 24
   1612916.80048   1256836.07545         0.00041  23538670.48145  23538669.00848
  -2671575.15349  -2081744.04648         0.00041  20633699.73948  20633700.66849
 -14174871.44648 -11045340.05946         0.00041  22676959.89546  22676960.44448
 -12308514.07548  -9591001.47746         0.00041  22983343.54846  22983343.82048
 -23097437.57049 -17997987.72648         0.00041  20949145.15448  20949145.53049
 -21320371.84908 -16613261.32408  21106642.05208  21106642.82408         0.00001
 -20079576.40909 -15646400.94708  20792764.40909  20792764.80508         0.00001
 -16059339.56249 -12513762.55747         0.00041  21307404.23247  21307403.72249
 94 02 20 03 36 00.0000000  0  8 02 04 05 07 09 12 13 24
   1690365.59548   1317185.77645         0.00041  23553406.61245  23553406.99148
  -2677666.00049  -2086490.14648         0.00041  20632540.61148  20632541.60649
 -14252743.20348 -11106019.30846         0.00041  22662141.78046  22662141.86148
 -12234051.04248  -9532978.34746         0.00041  22997513.10746  22997513.54148
 -23105088.58349 -18003949.54748         0.00041  20947689.27848  20947689.61649
 -21367307.15708 -16649834.28008  21097710.56308  21097711.31308         0.00001
 -20039499.56309 -15615172.22408  20800390.78409  20800391.17208         0.00001
 -16129352.28949 -12568317.90347         0.00041  21294081.43647  21294080.70749
 94 02 20 03 36 30.0000000  0  8 02 04 05 07 09 12 13 24
   1768068.79548   1377733.70945         0.00041  23568195.43045  23568193.47948
  -2683179.32249  -2090786.22448         0.00041  20631491.41448  20631492.37949
 -14330563.98648 -11166658.83946         0.00041  22647332.77246  22647333.15048
 -12159538.88948  -9474916.93346         0.00041  23011692.56546  23011692.83248
 -23112160.08849 -18009459.80848         0.00041  20946343.45148  20946343.94949
 -21413787.70708 -16686052.87808  21088865.58308  21088866.36908         0.00001
 -19999081.19909 -15583677.38608  20808082.11509  20808082.50308         0.00001
 -16198913.63749 -12622521.52347         0.00041  21280844.13347  21280843.61549
 94 02 20 03 37 00.0000000  0  8 02 04 05 07 09 12 13 24
   1845994.68448   1438455.14845         0.00041  23583022.69545  23583022.41848
  -2688138.85849  -2094650.78648         0.00041  20630547.71648  20630548.56049
 -14408360.83148 -11227279.71146         0.00041  22632528.91446  22632528.80148
 -12085006.88548  -9416840.04446         0.00041  23025875.84046  23025875.79648
 -23118686.39349 -18014545.23848         0.00041  20945101.47748  20945101.99449
 -21459842.16108 -16721939.45508  21080101.69008  21080102.49008         0.00001
 -19958354.70109 -15551942.44208  20815832.09609  20815832.49308         0.00001
 -16268061.50149 -12676402.94847         0.00041  21267685.72947  21267685.18849
 94 02 20 03 37 30.0000000  0  8 02 04 05 07 09 12 13 24
   1924127.70548   1499338.01445         0.00041  23597891.36645  23597890.44848
  -2692565.37349  -2098100.00248         0.00041  20629705.41148  20629706.25149
 -14486157.80348 -11287900.69246         0.00041  22617724.12446  22617724.60348
 -12010484.22548  -9358770.43746         0.00041  23040057.69346  23040056.86548
 -23124670.00649 -18019207.78948         0.00041  20943962.78748  20943963.33949
 -21505485.31008 -16757505.53408  21071416.06908  21071416.87608         0.00001
 -19917339.55409 -15519982.57808  20823637.01909  20823637.42508         0.00001
 -16336807.16649 -12729970.97147         0.00041  21254603.77347  21254603.29949
 94 02 20 03 38 00.0000000  0  8 02 04 05 07 09 12 13 24
   2002538.85248   1560437.58745         0.00041  23612813.11645  23612811.63948
  -2696346.01249  -2101045.93948         0.00041  20628986.02848  20628986.83749
 -14563870.04648 -11348455.64646         0.00041  22602936.40146  22602936.34348
 -11935887.61648  -9300643.21646         0.00041  23054251.79846  23054252.20648
 -23130039.65049 -18023391.92548         0.00041  20942941.12748  20942941.52349
 -21550627.17208 -16792681.00008  21062825.85108  21062826.66508         0.00001
 -19875950.21009 -15487731.13408  20831513.13309  20831513.56008         0.00001
 -16405061.64949 -12783156.25947         0.00041  21241615.40147  21241614.87849
 94 02 20 03 38 30.0000000  0  8 02 04 05 07 09 12 13 24
   2081158.03748   1621699.27645         0.00041  23627773.32645  23627772.38648
  -2699527.04349  -2103524.65348         0.00041  20628380.55148  20628381.46249
 -14641542.02048 -11408979.22846         0.00041  22588155.59546  22588155.95248
 -11861275.00648  -9242503.51846         0.00041  23068451.07746  23068450.54148
 -23134854.33449 -18027143.62748         0.00041  20942025.07448  20942025.38349
 -21595314.32708 -16827502.15208  21054322.15908  21054322.95308         0.00001
 -19834237.73209 -15455227.89608  20839450.75509  20839451.18108         0.00001
 -16472884.85349 -12836005.48447         0.00041  21228708.99447  21228708.57549
 94 02 20 03 39 00.0000000  0  8 02 04 05 07 09 12 13 24
   2159952.81048   1683097.78545         0.00041  23642767.75345  23642766.44648
  -2702139.18149  -2105560.06648         0.00041  20627883.56448  20627884.33049
 -14719188.14748 -11469482.66946         0.00041  22573380.10046  22573380.26648
 -11786674.97348  -9184373.62746         0.00041  23082646.50946  23082646.49548
 -23139116.47849 -18030464.77548         0.00041  20941213.84548  20941214.34049
 -21639558.94609 -16861978.47008  21045902.69109  21045903.44608         0.00001
 -19792219.00109 -15422486.02008  20847446.65309  20847447.05308         0.00001
 -16540301.90849 -12888538.22547         0.00041  21215879.91847  21215879.48549
 94 02 20 03 39 30.0000000  0  8 02 04 05 07 09 12 13 24
   2238980.52748   1744677.80345         0.00041  23657806.03645  23657804.76148
  -2704119.65249  -2107103.27448         0.00041  20627506.54248  20627507.40749
 -14796743.72048 -11529915.54746         0.00041  22558622.25746  22558621.94248
 -11712019.22748  -9126200.31946         0.00041  23096852.10246  23096853.05948
 -23142772.50149 -18033313.62148         0.00041  20940518.17648  20940518.61349
 -21683292.77108 -16896056.76708  21037580.42208  21037581.20408         0.00001
 -19749830.21609 -15389455.79008  20855512.93109  20855513.33708         0.00001
 -16607250.14849 -12940705.65847         0.00041  21203140.00647  21203139.63249
 94 02 20 03 40 00.0000000  0  8 02 04 05 07 09 12 13 24
   2318240.89048   1806439.11745         0.00041  23672886.36645  23672887.63848
  -2705495.25549  -2108175.15948         0.00041  20627244.88148  20627245.70349
 -14874203.94148 -11590274.12846         0.00041  22543881.36946  22543881.72748
 -11637296.61248  -9067974.91146         0.00041  23111072.20346  23111072.12948
 -23145835.66949 -18035700.50448         0.00041  20939935.26148  20939935.72049
 -21726520.48208 -16929740.69008  21029354.44008  21029355.22208         0.00001
 -19707080.65609 -15356144.43708  20863647.90709  20863648.34808         0.00001
 -16673747.93749 -12992522.08847         0.00041  21190485.95147  21190485.52049
 94 02 20 03 40 30.0000000  0  8 02 04 05 07 09 12 13 24
   2397752.97348   1868396.55645         0.00041  23688020.60845  23688018.23848
  -2706279.75649  -2108786.44448         0.00041  20627095.46848  20627096.42649
 -14951547.87248 -11650542.09946         0.00041  22529163.41246  22529163.62848
 -11562500.05648  -9009691.88246         0.00041  23125305.30846  23125305.41048
 -23148284.12649 -18037608.38948         0.00041  20939469.17348  20939469.82749
 -21769231.16109 -16963021.72908  21021226.88109  21021227.62808         0.00001
 -19663963.66309 -15322546.77308  20871852.76809  20871853.23208         0.00001
 -16739798.46949 -13043990.01147         0.00041  21177916.89047  21177916.44749
 94 02 20 03 41 00.0000000  0  8 02 04 05 07 09 12 13 24
   2477499.93948   1930537.04345         0.00041  23703193.08845  23703193.89148
  -2706488.64849  -2108949.20248         0.00041  20627055.67248  20627056.53449
 -15028781.94348 -11710724.45946         0.00041  22514466.63346  22514466.59648
 -11487655.87948  -8951371.74346         0.00041  23139547.55846  23139547.86048
 -23150159.69949 -18039069.87548         0.00041  20939112.43348  20939112.91349
 -21811450.49509 -16995919.90308  21013192.76909  21013193.58208         0.00001
 -19620509.48009 -15288686.36208  20880121.80309  20880122.22508         0.00001
 -16805421.42149 -13095124.75547         0.00041  21165429.11847  21165428.77849
 94 02 20 03 41 30.0000000  0  8 02 04 05 07 09 12 13 24
   2557509.53448   1992882.15545         0.00041  23718420.51545  23718419.11048
  -2706098.68049  -2108645.31548         0.00041  20627129.77248  20627130.76049
 -15105885.30248 -11770804.98046         0.00041  22499793.59746  22499794.14748
 -11412752.08248  -8893005.15546         0.00041  23153800.88146  23153801.61748
 -23151455.43149 -18040079.53248         0.00041  20938865.78848  20938866.21949
 -21853171.63209 -17028429.87108  21005253.50809  21005254.27708         0.00001
 -19576716.06109 -15254561.61308  20888455.41209  20888455.83908         0.00001
 -16870595.08049 -13145909.39447         0.00041  21153027.06447  21153026.63949
 94 02 20 03 42 00.0000000  0  8 02 04 05 07 09 12 13 24
   2637756.19248   2055411.99745         0.00041  23733689.06545  23733689.46348
  -2705138.71949  -2107897.27548         0.00041  20627312.60148  20627313.51449
 -15182884.33548 -11830804.19646         0.00041  22485140.95846  22485141.83048
 -11337813.75348  -8834611.64646         0.00041  23168061.98746  23168061.87448
 -23152185.38349 -18040648.32348         0.00041  20938726.87548  20938727.32649
 -21894419.18309 -17060570.81208  20997404.35409  20997405.12008         0.00001
 -19532612.15809 -15220194.92508  20896848.10609  20896848.54108         0.00001
 -16935335.59049 -13196356.51547         0.00041  21140707.05947  21140706.93049
 94 02 20 03 42 30.0000000  0  8 02 04 05 07 09 12 13 24
   2718224.37248   2118114.44945         0.00041  23749005.20345  23749002.36148
  -2703584.55049  -2106686.21848         0.00041  20627608.35148  20627609.32849
 -15259781.65548 -11890724.15446         0.00041  22470508.65546  22470508.61348
 -11262852.13748  -8776200.00846         0.00041  23182327.10046  23182326.65248
 -23152357.52949 -18040782.46248         0.00041  20938693.97148  20938694.46149
 -21935189.18009 -17092339.63308  20989646.07709  20989646.84508         0.00001
 -19488198.50109 -15185586.87208  20905299.73509  20905300.18408         0.00001
 -16999616.93549 -13246445.84947         0.00041  21128474.82647  21128474.58649
 94 02 20 03 43 00.0000000  0  8 02 04 05 07 09 12 13 24
   2798876.85448   2180960.52045         0.00041  23764349.51645  23764349.77348
  -2701471.65649  -2105039.79348         0.00041  20628010.51448  20628011.32649
 -15336628.96648 -11950605.15346         0.00041  22455885.01846  22455885.16248
 -11187894.78848  -8717791.69346         0.00041  23196590.35146  23196590.44448
 -23151998.98549 -18040503.07648         0.00041  20938762.52748  20938762.88149
 -21975512.45009 -17123760.35708  20981972.81409  20981973.58308         0.00001
 -19443510.32609 -15150764.90808  20913803.60209  20913804.03608         0.00001
 -17063448.09749 -13296184.39347         0.00041  21116328.19947  21116327.87749
 94 02 20 03 43 30.0000000  0  8 02 04 05 07 09 12 13 24
   2879716.95248   2243952.76445         0.00041  23779735.84145  23779733.32848
  -2698803.98649  -2102961.07648         0.00041  20628518.01248  20628518.93049
 -15413439.28548 -12010457.32746         0.00041  22441268.40646  22441268.50248
 -11112922.61248  -8659371.80446         0.00041  23210857.12446  23210857.18548
 -23151071.54449 -18039780.39548         0.00041  20938938.88848  20938939.27149
 -22015369.74109 -17154817.97908  20974388.20509  20974388.99708         0.00001
 -19398532.77309 -15115717.45608  20922362.55209  20922362.95508         0.00001
 -17126818.38549 -13345563.81847         0.00041  21104269.43047  21104268.96749
 94 02 20 03 44 00.0000000  0  8 02 04 05 07 09 12 13 24
   2960729.72548   2307079.57745         0.00041  23795150.60045  23795149.66648
  -2695573.84849  -2100444.06948         0.00041  20629132.73648  20629133.62349
 -15490212.58948 -12070280.64946         0.00041  22426658.50446  22426659.08448
 -11037929.44748  -8600935.57546         0.00041  23225127.28746  23225128.01148
 -23149573.23249 -18038612.87448         0.00041  20939223.92748  20939224.44449
 -22054748.15609 -17185502.45108  20966894.72309  20966895.52508         0.00001
 -19353257.36308 -15080437.90708  20930978.16708  20930978.62308         0.00001
 -17189729.87549 -13394585.73047         0.00041  21092297.40047  21092297.20349
 94 02 20 03 44 30.0000000  0  8 02 04 05 07 09 12 13 24
   3041965.68448   2370380.30345         0.00041  23810609.97745  23810608.24548
  -2691733.85649  -2097451.85148         0.00041  20629863.24048  20629864.32649
 -15566899.32448 -12130036.52446         0.00041  22412065.63546  22412066.02648
 -10962877.15548  -8542453.26746         0.00041  23239410.30646  23239409.99648
 -23147457.87949 -18036964.54148         0.00041  20939626.56348  20939626.94449
 -22093600.27508 -17215776.82408  20959501.40908  20959502.20008         0.00001
 -19307640.99108 -15044892.67508  20939658.70208  20939659.09108         0.00001
 -17252150.57249 -13443225.20947         0.00041  21080419.13847  21080418.95749
 94 02 20 03 45 00.0000000  0  8 02 04 05 07 09 12 13 24
   3123430.47648   2433859.35445         0.00041  23826113.24845  23826110.74648
  -2687302.86949  -2093999.12048         0.00041  20630706.57348  20630707.50549
 -15643502.38448 -12189727.19846         0.00041  22397488.79746  22397488.95748
 -10887771.98148  -8483929.75346         0.00041  23253702.29146  23253702.11348
 -23144719.40549 -18034830.65848         0.00041  20940147.45948  20940148.12349
 -22131932.03308 -17245645.72108  20952207.09208  20952207.90008         0.00001
 -19261694.36408 -15009090.10108  20948402.04208  20948402.42208         0.00001
 -17314111.28649 -13491506.25447         0.00041  21068628.65147  21068628.16849
